[[{"header":{"parameterUnit":"m.s-1","parameterCategory":1,"la1":30.6,"la2":28.766,"lo1":-90.7593,"lo2":-88.6598,"dy":0.0162,"dx":0.0183,"nx":116,"ny":114,"refTime":"2023-03-22T18:00:00:Z","depth":0,"parameterNumber":2,"parameterNumberName":"U-component_of_WINDS"},"data":[0.0,0.0,0.0,0.0,0.0,0.0,0.0,0.0,0.0,0.0,0.0,0.0,0.0,0.0,0.0,0.0,0.0,0.0,0.0,0.0,0.0,0.0,0.0,0.0,0.0,0.0,0.0,0.0,0.0,0.0,0.0,0.0,0.0,0.0,0.0,0.0,0.0,0.0,0.0,0.0,0.0,0.0,0.0,0.0,0.0,0.0,0.0,0.0,0.0,0.0,0.0,0.0,0.0,0.0,0.0,0.0,0.0,0.0,0.0,0.0,0.0,0.0,0.0,0.0,0.0,0.0,0.0,0.0,0.0,0.0,0.0,0.0,0.0,0.0,0.0,0.0,0.0,0.0,0.0,0.0,0.0,0.0,0.0,0.0,0.0,0.0,0.0,0.0,0.0,0.0,0.0,0.0,0.0,0.0,0.0,0.0,0.0,0.0,0.0,0.0,0.0,0.0,0.0,0.0,0.0,0.0,0.0,0.0,0.0,0.0,0.0,0.0,0.0,0.0,0.0,0.0,0.0,0.0,0.0,0.0,0.0,0.0,0.0,0.0,0.0,0.0,0.0,0.0,0.0,0.0,0.0,0.0,0.0,0.0,0.0,0.0,0.0,0.0,0.0,0.0,0.0,0.0,0.0,0.0,0.0,0.0,0.0,0.0,0.0,0.0,0.0,0.0,0.0,0.0,0.0,0.0,0.0,0.0,0.0,0.0,0.0,0.0,0.0,0.0,0.0,0.0,0.0,0.0,0.0,0.0,0.0,0.0,0.0,0.0,0.0,0.0,0.0,0.0,0.0,0.0,0.0,0.0,0.0,0.0,0.0,0.0,0.0,0.0,0.0,0.0,0.0,0.0,0.0,0.0,0.0,0.0,0.0,0.0,0.0,0.0,0.0,0.0,0.0,0.0,0.0,0.0,0.0,0.0,0.0,0.0,0.0,0.0,0.0,0.0,0.0,0.0,0.0,0.0,0.0,0.0,0.0,0.0,0.0,0.0,0.0,0.0,0.0,0.0,0.0,0.0,0.0,0.0,0.0,0.0,0.0,0.0,0.0,0.0,0.0,0.0,0.0,0.0,0.0,0.0,0.0,0.0,0.0,0.0,0.0,0.0,0.0,0.0,0.0,0.0,0.0,0.0,0.0,0.0,0.0,0.0,0.0,0.0,0.0,0.0,0.0,0.0,0.0,0.0,0.0,0.0,0.0,0.0,0.0,0.0,0.0,0.0,0.0,0.0,0.0,0.0,0.0,0.0,0.0,0.0,0.0,0.0,0.0,0.0,0.0,0.0,0.0,0.0,0.0,0.0,0.0,0.0,0.0,0.0,0.0,0.0,0.0,0.0,0.0,0.0,0.0,0.0,0.0,0.0,0.0,0.0,0.0,0.0,0.0,0.0,0.0,0.0,0.0,0.0,0.0,0.0,0.0,0.0,0.0,0.0,0.0,0.0,0.0,0.0,0.0,0.0,0.0,0.0,0.0,0.0,0.0,0.0,0.0,0.0,0.0,0.0,0.0,0.0,0.0,0.0,0.0,0.0,0.0,0.0,0.0,0.0,0.0,0.0,0.0,0.0,0.0,0.0,0.0,0.0,0.0,0.0,0.0,0.0,0.0,0.0,0.0,0.0,0.0,0.0,0.0,0.0,0.0,0.0,0.0,0.0,0.0,0.0,0.0,0.0,0.0,0.0,0.0,0.0,0.0,0.0,0.0,0.0,0.0,0.0,0.0,0.0,0.0,0.0,0.0,0.0,0.0,0.0,0.0,0.0,0.0,0.0,0.0,0.0,0.0,0.0,0.0,0.0,0.0,0.0,0.0,0.0,0.0,0.0,0.0,0.0,0.0,0.0,0.0,0.0,0.0,0.0,0.0,0.0,0.0,0.0,0.0,0.0,0.0,0.0,0.0,0.0,0.0,0.0,0.0,0.0,0.0,0.0,0.0,0.0,0.0,0.0,0.0,0.0,0.0,0.0,0.0,0.0,0.0,0.0,0.0,0.0,0.0,0.0,0.0,0.0,0.0,0.0,0.0,0.0,0.0,0.0,0.0,0.0,0.0,0.0,0.0,0.0,0.0,0.0,0.0,0.0,0.0,0.0,0.0,0.0,0.0,0.0,0.0,0.0,0.0,0.0,0.0,0.0,0.0,0.0,0.0,0.0,0.0,0.0,0.0,0.0,0.0,0.0,0.0,0.0,0.0,0.0,0.0,0.0,0.0,0.0,0.0,0.0,0.0,0.0,0.0,0.0,0.0,0.0,0.0,0.0,0.0,0.0,0.0,0.0,0.0,0.0,0.0,0.0,0.0,0.0,0.0,0.0,0.0,0.0,0.0,0.0,0.0,0.0,0.0,0.0,0.0,0.0,0.0,0.0,0.0,0.0,0.0,0.0,0.0,0.0,0.0,0.0,0.0,0.0,0.0,0.0,0.0,0.0,0.0,0.0,0.0,0.0,0.0,0.0,0.0,0.0,0.0,0.0,0.0,0.0,0.0,0.0,0.0,0.0,0.0,0.0,0.0,0.0,0.0,0.0,0.0,0.0,0.0,0.0,0.0,0.0,0.0,0.0,0.0,0.0,0.0,0.0,0.0,0.0,0.0,0.0,0.0,0.0,0.0,0.0,0.0,0.0,0.0,0.0,0.0,0.0,0.0,0.0,0.0,0.0,0.0,0.0,0.0,0.0,0.0,0.0,0.0,0.0,0.0,0.0,0.0,0.0,0.0,0.0,0.0,0.0,0.0,0.0,0.0,0.0,0.0,0.0,0.0,0.0,0.0,0.0,0.0,0.0,0.0,0.0,0.0,0.0,0.0,0.0,0.0,0.0,0.0,0.0,0.0,0.0,0.0,0.0,0.0,0.0,0.0,0.0,0.0,0.0,0.0,0.0,0.0,0.0,0.0,0.0,0.0,0.0,0.0,0.0,0.0,0.0,0.0,0.0,0.0,0.0,0.0,0.0,0.0,0.0,0.0,0.0,0.0,0.0,0.0,0.0,0.0,0.0,0.0,0.0,0.0,0.0,0.0,0.0,0.0,0.0,0.0,0.0,0.0,0.0,0.0,0.0,0.0,0.0,0.0,0.0,0.0,0.0,0.0,0.0,0.0,0.0,0.0,0.0,0.0,0.0,0.0,0.0,0.0,0.0,0.0,0.0,0.0,0.0,0.0,0.0,0.0,0.0,0.0,0.0,0.0,0.0,0.0,0.0,0.0,0.0,0.0,0.0,0.0,0.0,0.0,0.0,0.0,0.0,0.0,0.0,0.0,0.0,0.0,0.0,0.0,0.0,0.0,0.0,0.0,0.0,0.0,0.0,0.0,0.0,0.0,0.0,0.0,0.0,0.0,0.0,0.0,0.0,0.0,0.0,0.0,0.0,0.0,0.0,0.0,0.0,0.0,0.0,0.0,0.0,0.0,0.0,0.0,0.0,0.0,0.0,0.0,0.0,0.0,0.0,0.0,0.0,0.0,0.0,0.0,0.0,0.0,0.0,0.0,0.0,0.0,0.0,0.0,0.0,0.0,0.0,0.0,0.0,0.0,0.0,0.0,0.0,0.0,0.0,0.0,0.0,0.0,0.0,0.0,0.0,0.0,0.0,0.0,0.0,0.0,0.0,0.0,0.0,0.0,0.0,0.0,0.0,0.0,0.0,0.0,0.0,0.0,0.0,0.0,0.0,0.0,0.0,0.0,0.0,0.0,0.0,0.0,0.0,0.0,0.0,0.0,0.0,0.0,0.0,0.0,0.0,0.0,0.0,0.0,0.0,0.0,0.0,0.0,0.0,0.0,0.0,0.0,0.0,0.0,0.0,0.0,0.0,0.0,0.0,0.0,0.0,0.0,0.0,0.0,0.0,0.0,0.0,0.0,0.0,0.0,0.0,0.0,0.0,0.0,0.0,0.0,0.0,0.0,0.0,0.0,0.0,0.0,0.0,0.0,0.0,0.0,0.0,0.0,0.0,0.0,0.0,0.0,0.0,0.0,0.0,0.0,0.0,0.0,0.0,0.0,0.0,0.0,0.0,0.0,0.0,0.0,0.0,0.0,0.0,0.0,0.0,0.0,0.0,0.0,0.0,0.0,0.0,0.0,0.0,0.0,0.0,0.0,0.0,0.0,0.0,0.0,0.0,0.0,0.0,0.0,0.0,0.0,0.0,0.0,0.0,0.0,0.0,0.0,0.0,0.0,0.0,0.0,0.0,0.0,0.0,0.0,0.0,0.0,0.0,0.0,0.0,0.0,0.0,0.0,0.0,0.0,0.0,0.0,0.0,0.0,0.0,0.0,0.0,0.0,0.0,0.0,0.0,0.0,0.0,0.0,0.0,0.0,0.0,0.0,0.0,0.0,0.0,0.0,0.0,0.0,0.0,0.0,0.0,0.0,0.0,0.0,0.0,0.0,0.0,0.0,0.0,0.0,0.0,0.0,0.0,0.0,0.0,0.0,0.0,0.0,0.0,0.0,0.0,0.0,0.0,0.0,0.0,0.0,0.0,0.0,0.0,0.0,0.0,0.0,0.0,0.0,0.0,0.0,0.0,0.0,0.0,0.0,0.0,0.0,0.0,0.0,0.0,0.0,0.0,0.0,0.0,0.0,0.0,0.0,0.0,0.0,0.0,0.0,0.0,0.0,0.0,0.0,0.0,0.0,0.0,0.0,0.0,0.0,0.0,0.0,0.0,0.0,0.0,0.0,0.0,0.0,0.0,0.0,0.0,0.0,0.0,0.0,0.0,0.0,0.0,0.0,0.0,0.0,0.0,0.0,0.0,0.0,0.0,0.0,0.0,0.0,0.0,0.0,0.0,0.0,0.0,0.0,0.0,0.0,0.0,0.0,0.0,0.0,0.0,0.0,0.0,0.0,0.0,0.0,0.0,0.0,0.0,0.0,0.0,0.0,0.0,0.0,0.0,0.0,0.0,0.0,0.0,0.0,0.0,0.0,0.0,0.0,0.0,0.0,0.0,0.0,0.0,0.0,0.0,0.0,0.0,0.0,0.0,0.0,0.0,0.0,0.0,0.0,0.0,0.0,0.0,0.0,0.0,0.0,0.0,0.0,0.0,0.0,0.0,0.0,0.0,0.0,0.0,0.0,0.0,0.0,0.0,0.0,0.0,0.0,0.0,0.0,0.0,0.0,0.0,0.0,0.0,0.0,0.0,0.0,0.0,0.0,0.0,0.0,0.0,0.0,0.0,0.0,0.0,0.0,0.0,0.0,0.0,0.0,0.0,0.0,0.0,0.0,0.0,0.0,0.0,0.0,0.0,0.0,0.0,0.0,0.0,0.0,0.0,0.0,0.0,0.0,0.0,0.0,0.0,0.0,0.0,0.0,0.0,0.0,0.0,0.0,0.0,0.0,0.0,0.0,0.0,0.0,0.0,0.0,0.0,0.0,0.0,0.0,0.0,0.0,0.0,0.0,0.0,0.0,0.0,0.0,0.0,0.0,0.0,0.0,0.0,0.0,0.0,0.0,0.0,0.0,0.0,0.0,0.0,0.0,0.0,0.0,0.0,0.0,0.0,0.0,0.0,0.0,0.0,0.0,0.0,0.0,0.0,0.0,0.0,0.0,0.0,0.0,0.0,0.0,0.0,0.0,0.0,0.0,0.0,0.0,0.0,0.0,0.0,0.0,0.0,0.0,0.0,0.0,0.0,0.0,0.0,0.0,0.0,0.0,0.0,0.0,0.0,0.0,0.0,0.0,0.0,0.0,0.0,0.0,0.0,0.0,0.0,0.0,0.0,0.0,0.0,0.0,0.0,0.0,0.0,0.0,0.0,0.0,0.0,0.0,0.0,0.0,0.0,0.0,0.0,0.0,0.0,0.0,0.0,0.0,0.0,0.0,0.0,0.0,0.0,0.0,0.0,0.0,0.0,0.0,0.0,0.0,0.0,0.0,0.0,0.0,0.0,0.0,0.0,0.0,0.0,0.0,0.0,0.0,0.0,0.0,0.0,0.0,0.0,0.0,0.0,0.0,0.0,0.0,0.0,0.0,0.0,0.0,0.0,0.0,0.0,0.0,0.0,0.0,0.0,0.0,0.0,0.0,0.0,0.0,0.0,0.0,0.0,0.0,0.0,0.0,0.0,0.0,0.0,0.0,0.0,0.0,0.0,0.0,0.0,-6.0962,0.0,0.0,0.0,0.0,0.0,0.0,0.0,0.0,0.0,0.0,0.0,0.0,0.0,0.0,0.0,0.0,0.0,0.0,0.0,0.0,0.0,0.0,0.0,0.0,0.0,0.0,0.0,0.0,0.0,0.0,0.0,0.0,0.0,0.0,0.0,0.0,0.0,0.0,0.0,-6.1483,-6.1698,-6.1698,-6.1698,-6.1698,-6.1698,0.0,0.0,0.0,0.0,0.0,0.0,0.0,0.0,0.0,0.0,0.0,0.0,0.0,0.0,0.0,0.0,0.0,0.0,0.0,0.0,0.0,0.0,0.0,0.0,0.0,0.0,0.0,0.0,0.0,0.0,0.0,0.0,0.0,0.0,0.0,0.0,0.0,0.0,0.0,0.0,0.0,0.0,0.0,0.0,0.0,0.0,0.0,0.0,0.0,0.0,0.0,0.0,0.0,0.0,0.0,0.0,0.0,0.0,0.0,0.0,0.0,0.0,0.0,0.0,0.0,0.0,0.0,0.0,0.0,0.0,0.0,-6.1841,0.0,0.0,0.0,0.0,0.0,0.0,0.0,0.0,0.0,0.0,0.0,0.0,0.0,0.0,0.0,0.0,0.0,0.0,0.0,0.0,0.0,0.0,0.0,0.0,0.0,0.0,0.0,0.0,0.0,0.0,0.0,0.0,0.0,0.0,0.0,-5.8605,-5.951,-6.0384,-6.1273,-6.1698,-6.1698,-6.1698,-6.1698,-6.1698,-6.1698,0.0,0.0,0.0,0.0,0.0,0.0,0.0,0.0,0.0,0.0,0.0,0.0,0.0,0.0,0.0,0.0,0.0,0.0,0.0,0.0,0.0,0.0,0.0,0.0,0.0,0.0,0.0,0.0,0.0,0.0,0.0,0.0,0.0,0.0,0.0,0.0,0.0,0.0,0.0,0.0,0.0,0.0,0.0,0.0,0.0,0.0,0.0,0.0,0.0,0.0,0.0,0.0,0.0,0.0,0.0,0.0,0.0,0.0,0.0,0.0,0.0,0.0,0.0,-6.3312,-6.2987,-6.314,-6.314,-6.3197,-6.335,-6.335,-6.3274,-6.314,0.0,0.0,0.0,0.0,0.0,0.0,0.0,0.0,0.0,0.0,0.0,0.0,0.0,0.0,0.0,0.0,0.0,0.0,0.0,0.0,0.0,0.0,0.0,0.0,0.0,0.0,0.0,0.0,0.0,0.0,0.0,0.0,0.0,-5.7589,-5.8521,-5.9445,-6.0311,-6.1248,-6.1698,-6.1698,-6.1698,-6.1698,-6.1698,-6.1698,-6.1698,-6.1698,0.0,0.0,0.0,0.0,0.0,0.0,0.0,0.0,0.0,0.0,0.0,0.0,0.0,0.0,0.0,0.0,0.0,0.0,0.0,0.0,0.0,0.0,0.0,0.0,0.0,0.0,0.0,0.0,0.0,0.0,0.0,0.0,0.0,0.0,0.0,0.0,0.0,0.0,0.0,0.0,0.0,-6.6483,-6.6588,0.0,0.0,0.0,0.0,0.0,0.0,0.0,0.0,0.0,0.0,0.0,0.0,0.0,-6.5657,-6.5657,-6.4676,-6.4206,-6.4187,-6.3312,-6.3293,-6.4034,-6.4034,-6.4401,-6.507,-6.507,0.0,-6.4034,-6.4034,0.0,0.0,0.0,0.0,0.0,0.0,0.0,0.0,0.0,0.0,0.0,0.0,0.0,0.0,0.0,0.0,0.0,0.0,0.0,0.0,0.0,0.0,0.0,0.0,0.0,0.0,0.0,0.0,0.0,0.0,0.0,-5.6446,-5.686,-5.8231,-5.9631,-6.1035,-6.1486,-6.1698,-6.1698,-6.1698,-6.1698,-6.1698,-6.1698,-6.1698,-6.1698,-6.1698,0.0,0.0,0.0,0.0,0.0,0.0,0.0,0.0,0.0,0.0,0.0,0.0,0.0,0.0,0.0,0.0,0.0,0.0,0.0,0.0,0.0,0.0,0.0,0.0,0.0,0.0,0.0,0.0,0.0,0.0,0.0,0.0,0.0,0.0,0.0,0.0,0.0,0.0,0.0,-6.6469,-6.6643,-6.6607,-6.6575,-6.654,0.0,0.0,0.0,0.0,0.0,0.0,0.0,0.0,0.0,-6.6206,-6.5873,-6.5697,-6.5697,-6.515,-6.4859,-6.4859,-6.4496,-6.4496,-6.4859,-6.4859,-6.507,-6.5394,-6.5394,-6.5203,-6.4859,-6.4859,-6.507,-6.5356,0.0,0.0,0.0,0.0,0.0,-6.3064,0.0,0.0,0.0,0.0,0.0,0.0,0.0,0.0,0.0,0.0,0.0,0.0,0.0,0.0,0.0,-5.602,0.0,0.0,0.0,0.0,0.0,0.0,0.0,-5.6278,-5.6299,-5.8009,-5.9784,-6.1601,-6.1636,-6.1662,-6.1698,-6.1672,-6.1672,-6.1698,-6.1698,-6.1698,-6.1698,-6.1698,-6.1698,-6.1698,0.0,0.0,0.0,0.0,0.0,0.0,0.0,0.0,0.0,0.0,0.0,0.0,0.0,0.0,0.0,0.0,0.0,0.0,0.0,0.0,0.0,0.0,0.0,0.0,0.0,0.0,0.0,0.0,0.0,0.0,0.0,0.0,0.0,0.0,0.0,0.0,0.0,-6.6741,-6.6691,-6.6613,-6.6601,-6.6575,0.0,0.0,0.0,0.0,0.0,0.0,-6.6508,-6.6362,-6.6281,-6.6281,-6.5989,-6.5807,-6.5776,-6.558,-6.5454,-6.5394,-6.5394,-6.5394,-6.5394,-6.5394,-6.5394,-6.5394,-6.5394,-6.5394,-6.5394,-6.5394,-6.5394,-6.5394,-6.5394,-6.5394,-6.5394,-6.5394,-6.4879,-6.4206,0.0,0.0,0.0,0.0,0.0,0.0,0.0,0.0,0.0,0.0,0.0,0.0,0.0,0.0,-5.575,-5.6073,-5.6037,-5.6029,0.0,0.0,-5.6141,-5.6199,-5.6197,-5.6219,-5.6298,-5.8019,-5.9784,-6.1601,-6.1549,-6.158,-6.1701,-6.1636,-6.1634,-6.1698,-6.1698,-6.1698,-6.1698,-6.1698,-6.1698,-6.1698,-6.1698,0.0,0.0,0.0,0.0,0.0,0.0,0.0,0.0,0.0,0.0,0.0,0.0,0.0,0.0,0.0,0.0,0.0,0.0,0.0,0.0,0.0,0.0,0.0,0.0,0.0,0.0,0.0,0.0,0.0,0.0,0.0,0.0,0.0,0.0,0.0,0.0,0.0,0.0,-6.6613,-6.6601,0.0,0.0,0.0,0.0,-6.6508,-6.6508,-6.6508,-6.6508,-6.6481,-6.6481,-6.6481,-6.6281,-6.6117,-6.5994,-6.5788,-6.5594,-6.5394,-6.5394,-6.5394,-6.5394,-6.5394,-6.5394,-6.5394,-6.5394,-6.5394,-6.5394,-6.5394,-6.5394,-6.5394,-6.5394,-6.5394,-6.5394,-6.5394,-6.4879,-6.4206,0.0,0.0,0.0,0.0,0.0,0.0,0.0,0.0,0.0,0.0,0.0,0.0,0.0,-5.5231,-5.5489,-5.5798,-5.5817,-5.59,-5.6149,0.0,-5.6209,-5.6141,-5.6231,-5.6783,-5.7884,-5.8559,-5.9775,-6.154,-6.1517,-6.1523,-6.158,-6.1582,-6.1601,-6.1635,-6.1674,-6.1698,-6.1698,-6.1698,-6.1698,-6.1698,-6.1698,-6.1698,0.0,0.0,0.0,0.0,0.0,0.0,0.0,0.0,0.0,0.0,0.0,0.0,0.0,0.0,0.0,0.0,0.0,0.0,0.0,0.0,0.0,0.0,0.0,0.0,0.0,0.0,0.0,0.0,0.0,0.0,0.0,0.0,0.0,0.0,0.0,0.0,0.0,-6.6736,-6.6655,0.0,-6.6568,-6.6538,-6.6508,-6.6508,-6.6508,-6.6508,-6.6508,-6.6508,-6.6508,-6.6508,-6.6299,-6.6137,-6.6005,-6.5801,-6.5608,-6.5394,-6.5394,-6.5394,-6.5394,-6.5394,-6.5394,-6.5394,-6.5394,-6.5394,-6.5394,-6.5394,-6.5394,-6.5394,-6.5394,-6.5394,-6.5394,-6.5394,-6.5222,-6.4974,0.0,0.0,0.0,0.0,0.0,0.0,0.0,0.0,0.0,0.0,0.0,-5.5426,-5.5227,-5.5422,-5.5556,-5.553,-5.5671,-5.5836,-5.5984,0.0,-5.6223,-5.6141,-5.6516,-5.7379,-5.8778,-5.9124,-6.0039,-6.149,-6.1482,-6.1485,-6.1508,-6.1539,-6.157,-6.1578,-6.1635,-6.1648,-6.1635,-6.1672,-6.1698,-6.1698,-6.1698,-6.169,-6.1662,0.0,0.0,0.0,0.0,0.0,0.0,0.0,0.0,0.0,0.0,0.0,0.0,0.0,0.0,0.0,0.0,0.0,0.0,0.0,0.0,0.0,0.0,0.0,0.0,0.0,0.0,0.0,0.0,0.0,0.0,0.0,0.0,0.0,0.0,0.0,-6.6794,-6.6763,-6.6682,-6.6626,-6.6607,-6.6533,-6.6508,-6.6508,-6.6508,-6.6508,-6.6508,-6.6508,-6.6508,-6.6508,-6.637,-6.6206,-6.6005,-6.5876,-6.5657,-6.5394,-6.5394,-6.5394,-6.5394,-6.5394,-6.5394,-6.5394,-6.5394,-6.5394,-6.5394,-6.5394,-6.5394,-6.5394,-6.5394,-6.5394,-6.5394,-6.5394,-6.5394,-6.5394,0.0,0.0,0.0,0.0,0.0,0.0,0.0,0.0,0.0,0.0,-5.6887,-5.6688,-5.609,-5.62,-5.6035,-5.5333,-5.566,-5.5826,-5.5656,-5.5975,-5.6191,-5.6238,-5.7112,-5.7981,-5.8817,-5.9671,-6.0553,-6.1505,-6.1428,-6.1434,-6.1501,-6.1495,-6.1499,-6.1508,-6.1578,-6.1557,-6.1512,-6.1634,-6.1683,-6.1701,-6.1701,-6.1666,-6.1601,0.0,0.0,0.0,0.0,0.0,0.0,0.0,0.0,0.0,0.0,0.0,0.0,0.0,0.0,0.0,0.0,0.0,0.0,0.0,0.0,0.0,0.0,0.0,0.0,0.0,0.0,0.0,0.0,0.0,0.0,0.0,0.0,0.0,-6.6791,-6.6795,-6.6772,-6.6707,-6.6692,-6.6666,-6.6613,-6.654,-6.6508,-6.6516,-6.6489,-6.6508,-6.6489,-6.6508,-6.6508,-6.6508,-6.6508,-6.6346,-6.6016,-6.6005,-6.5814,-6.5409,-6.5394,-6.5394,-6.5394,-6.5394,-6.5394,-6.5394,-6.5394,-6.5394,-6.5394,-6.5394,-6.5394,-6.5394,-6.5394,-6.5394,-6.5394,-6.5394,-6.5394,-6.5394,0.0,0.0,0.0,0.0,0.0,0.0,0.0,0.0,0.0,0.0,-5.6887,-5.6829,-5.667,-5.6702,-5.6717,-5.6715,-5.6319,-5.6199,-5.6513,-5.6107,-5.6222,-5.7097,-5.739,-5.8213,-5.971,-5.9982,-6.0546,-6.1434,-6.1414,-6.1415,-6.1431,-6.1485,-6.1504,-6.1495,-6.1525,-6.1518,-6.1508,-6.1549,-6.1581,-6.1638,-6.1638,-6.162,-6.1582,0.0,0.0,0.0,0.0,0.0,0.0,0.0,0.0,0.0,0.0,0.0,0.0,0.0,0.0,0.0,0.0,0.0,0.0,0.0,0.0,0.0,0.0,0.0,0.0,0.0,0.0,0.0,0.0,0.0,0.0,0.0,0.0,-6.6792,-6.6804,-6.6792,-6.6782,-6.6769,-6.6688,-6.6655,-6.6741,-6.6595,-6.6533,-6.6638,-6.6554,-6.6512,-6.6568,-6.6519,-6.6508,-6.6508,-6.6508,-6.6389,-6.6147,-6.6041,-6.5876,-6.5622,-6.5469,-6.5394,-6.5394,-6.5394,-6.5394,-6.5394,-6.5394,-6.5394,-6.5394,-6.5394,-6.5394,-6.5394,-6.5394,-6.5394,-6.5394,-6.5394,-6.5394,-6.5394,0.0,0.0,0.0,0.0,0.0,0.0,0.0,0.0,0.0,0.0,-5.7901,-5.7769,-5.745,-5.7446,-5.7399,-5.7151,-5.6658,-5.6454,-5.6721,-5.6531,-5.6903,-5.8005,-5.8381,-5.9048,-6.0079,-6.0468,-6.0895,-6.1393,-6.1393,-6.1393,-6.14,-6.144,-6.1456,-6.1462,-6.1491,-6.1471,-6.1459,-6.1487,-6.151,-6.1555,-6.1555,-6.1566,-6.1554,-6.1512,-6.1508,-6.1504,-6.1471,-6.1485,-6.1505,-6.1505,0.0,0.0,0.0,0.0,0.0,0.0,0.0,0.0,0.0,0.0,0.0,0.0,0.0,0.0,0.0,0.0,0.0,0.0,0.0,0.0,0.0,0.0,0.0,0.0,-6.6795,-6.6795,-6.6795,-6.6801,-6.6795,-6.6795,-6.6728,-6.6702,-6.6799,-6.6666,-6.6613,-6.6687,-6.6601,-6.6561,-6.6601,-6.6533,-6.6508,-6.6508,-6.6508,-6.6406,-6.6206,-6.6074,-6.59,-6.5697,-6.5513,-6.5394,-6.5394,-6.5394,-6.5394,0.0,-6.5394,-6.5394,-6.5394,-6.5394,-6.5394,0.0,0.0,0.0,0.0,0.0,-6.5394,-6.5394,0.0,0.0,0.0,0.0,0.0,0.0,0.0,0.0,0.0,0.0,0.0,-5.9027,-5.8314,-5.8345,-5.8079,-5.7243,-5.692,-5.6684,-5.6537,-5.7178,-5.797,-5.8907,-5.9691,-6.0157,-6.0234,-6.1011,-6.1393,-6.1393,-6.1393,-6.1393,-6.1393,-6.1393,-6.1393,-6.14,-6.1468,-6.1456,-6.1394,-6.1452,-6.1497,-6.151,-6.1495,-6.1491,-6.1493,-6.1493,-6.149,-6.148,-6.1421,-6.144,-6.1485,-6.149,0.0,0.0,0.0,0.0,0.0,0.0,0.0,0.0,0.0,0.0,0.0,0.0,0.0,0.0,0.0,0.0,0.0,0.0,0.0,0.0,0.0,0.0,0.0,0.0,-6.6795,-6.6795,-6.6795,-6.6795,-6.6795,-6.6795,-6.6808,-6.6806,-6.681,-6.6746,-6.6698,-6.6707,-6.6655,-6.6613,-6.6613,0.0,0.0,0.0,0.0,-6.6414,-6.6234,-6.6074,-6.5912,-6.5724,-6.5509,-6.5394,-6.5394,-6.5394,-6.5394,-6.5394,-6.5394,-6.5394,-6.5394,-6.5394,-6.5394,-6.5394,-6.5394,-6.5394,-6.5394,-6.5394,-6.5394,0.0,0.0,0.0,0.0,0.0,0.0,0.0,0.0,0.0,0.0,-5.929,-5.929,-5.9234,-5.9084,-5.9102,-5.9027,-5.884,-5.7727,-5.6939,-5.6755,-5.7851,-5.8916,-5.9804,-6.0007,-6.0429,-6.1121,-6.1315,-6.1393,-6.1393,-6.1393,-6.1393,-6.1393,-6.1393,-6.1393,-6.1393,-6.1408,-6.1401,-6.14,-6.1415,-6.1448,-6.15,-6.1446,-6.1443,-6.1489,-6.1433,-6.1421,-6.1415,-6.1407,-6.1414,-6.1415,-6.1421,-6.2612,-6.4111,-6.412,-6.5344,0.0,0.0,0.0,0.0,0.0,0.0,0.0,0.0,0.0,0.0,0.0,0.0,0.0,0.0,0.0,0.0,0.0,0.0,0.0,-6.6795,-6.6795,-6.6795,-6.6795,-6.6795,-6.6795,-6.6795,-6.6808,-6.6798,-6.6804,-6.6744,-6.6726,-6.6775,-6.6731,-6.6677,-6.6677,-6.662,0.0,-6.6508,-6.6508,-6.6474,-6.6431,-6.6156,-6.5982,-6.5947,0.0,0.0,-6.5394,-6.5394,-6.5394,-6.5394,-6.5394,-6.5394,-6.5394,-6.5394,-6.5394,-6.5394,-6.5394,-6.5394,-6.5394,-6.5394,-6.5394,-6.5394,0.0,0.0,0.0,0.0,0.0,0.0,0.0,0.0,0.0,0.0,-5.929,-5.929,-5.929,-5.929,-5.929,-5.929,-5.8374,-5.7934,-5.8293,-5.8838,-5.9628,-6.0704,-6.0745,-6.0953,-6.1393,-6.1393,-6.1393,-6.1393,-6.1393,-6.1393,-6.1393,-6.1393,-6.1393,-6.1393,-6.1393,-6.1393,-6.1393,-6.1393,-6.1421,-6.1458,-6.1408,-6.1421,-6.1452,-6.1401,-6.1393,-6.1393,-6.1393,-6.1421,-6.1454,-6.1454,-6.2652,-6.4142,-6.4142,-6.5374,-6.6795,0.0,0.0,0.0,0.0,0.0,0.0,0.0,0.0,0.0,0.0,0.0,0.0,0.0,0.0,-6.6795,0.0,0.0,-6.6795,-6.6795,-6.6795,-6.6795,-6.6795,-6.6795,-6.6795,-6.6795,-6.6804,-6.6798,-6.6795,-6.6766,-6.6762,-6.6795,-6.6767,-6.675,-6.675,-6.6655,-6.6601,-6.6601,-6.6526,-6.6531,-6.6548,-6.6177,-6.6005,-6.5994,-6.5589,-6.5394,-6.5394,-6.5394,-6.5394,-6.5394,-6.5394,-6.5394,-6.5394,-6.5394,-6.5394,-6.5394,-6.5394,-6.5394,-6.5394,-6.5394,-6.5394,-6.5394,0.0,0.0,0.0,0.0,0.0,0.0,0.0,0.0,0.0,0.0,-5.929,-5.929,-5.929,-5.929,-5.9271,-5.9174,-5.8925,-5.9059,-5.9718,-5.9765,-6.0267,-6.1347,-6.1393,-6.1393,-6.1393,-6.1393,-6.1393,-6.1393,-6.1393,-6.1393,-6.1393,-6.1393,-6.1393,-6.1393,-6.1393,-6.1393,-6.1393,-6.1393,-6.1393,-6.1393,-6.1393,-6.1393,-6.1393,-6.1393,-6.1393,-6.1393,-6.1393,-6.1441,-6.1503,-6.1503,-6.2693,-6.4193,-6.4193,-6.5406,-6.6795,-6.6795,-6.6795,0.0,0.0,0.0,0.0,0.0,0.0,0.0,0.0,-6.6795,-6.6795,-6.6795,-6.6795,-6.6795,-6.6795,-6.6795,-6.6795,-6.6795,-6.6795,-6.6795,-6.6795,-6.6795,-6.6795,-6.6795,-6.6795,-6.6795,-6.6795,-6.6795,-6.6795,-6.6795,-6.6792,-6.6791,-6.6803,-6.6692,-6.6655,-6.6707,-6.6595,-6.6554,-6.6601,-6.6234,-6.6041,-6.5994,-6.563,-6.544,-6.5394,-6.5394,-6.5394,-6.5394,-6.5394,-6.5394,-6.5394,-6.5394,-6.5394,-6.5394,-6.5394,-6.5394,-6.5394,-6.5394,-6.5394,-6.5394,0.0,0.0,0.0,0.0,0.0,0.0,0.0,0.0,0.0,0.0,0.0,0.0,0.0,0.0,-5.9117,-5.8727,-5.933,-5.9703,-5.9637,-6.0335,-6.0933,-6.1386,-6.1393,-6.1393,-6.1393,-6.1393,-6.1393,-6.1393,-6.1393,-6.1393,-6.1393,-6.1393,-6.1393,-6.1393,-6.1393,-6.1393,-6.1393,-6.1393,-6.1393,-6.1393,-6.1393,-6.1393,-6.1393,-6.1393,-6.1393,-6.1393,-6.1393,-6.1441,-6.1503,-6.1503,-6.2693,-6.4193,-6.4193,-6.5406,-6.6795,-6.6795,-6.6795,-6.6795,-6.6795,-6.6795,-6.6795,-6.6795,-6.6795,-6.6795,0.0,-6.6795,-6.6795,-6.6795,-6.6795,-6.6795,-6.6795,-6.6795,-6.6795,-6.6795,-6.6795,-6.6795,-6.6795,-6.6795,-6.6795,-6.6795,-6.6795,-6.6795,-6.6795,-6.6795,-6.6795,-6.6795,-6.6792,-6.6798,-6.6806,-6.6795,-6.675,-6.6692,-6.6696,-6.6649,-6.6601,-6.6388,-6.6177,-6.5994,-6.5776,-6.558,-6.5394,-6.5394,-6.5394,-6.5394,-6.5394,-6.5394,-6.5394,-6.5394,-6.5394,-6.5394,-6.5394,-6.5394,-6.5394,-6.5394,-6.5394,-6.5394,0.0,0.0,0.0,0.0,0.0,0.0,0.0,0.0,0.0,0.0,0.0,0.0,0.0,-5.9473,-5.9447,-5.936,-5.9573,-5.9859,-6.0154,-6.0514,-6.0885,-6.1209,-6.1344,-6.1393,-6.1393,-6.1393,-6.1393,-6.1393,-6.1393,-6.1393,-6.1393,-6.1393,-6.1393,-6.1393,-6.1393,-6.1393,-6.1393,-6.1393,-6.1393,-6.1393,-6.1393,-6.1393,-6.1393,-6.1393,-6.1393,-6.14,-6.1447,-6.1484,0.0,-6.2138,-6.3183,-6.4359,-6.4846,-6.5831,-6.6795,-6.6795,-6.6795,-6.6795,-6.6795,-6.6795,-6.6795,-6.6795,-6.6795,-6.6795,-6.6795,-6.6795,-6.6795,-6.6795,-6.6795,-6.6795,-6.6795,-6.6795,-6.6795,0.0,-6.7224,-6.7556,-6.7556,-6.7986,-6.8318,-6.8318,-6.8318,-6.7908,-6.6893,-6.6795,-6.6795,-6.6795,-6.6795,-6.679,-6.6798,-6.6794,-6.6787,-6.6755,-6.6722,-6.6696,-6.6655,-6.6414,-6.6205,-6.6005,-6.5801,-6.5594,-6.5394,-6.5394,-6.5394,-6.5394,-6.5394,-6.5394,-6.5394,-6.5394,-6.5394,-6.5394,-6.5394,-6.5394,-6.5394,-6.5394,-6.5394,-6.5394,0.0,0.0,0.0,0.0,0.0,0.0,0.0,0.0,0.0,0.0,0.0,0.0,0.0,-5.9544,-5.9614,-5.9869,-5.9719,-5.9874,-6.0552,-6.0563,-6.0707,-6.1085,-6.1244,-6.1344,-6.1393,-6.1393,-6.1393,-6.1393,-6.1393,-6.1393,-6.1393,-6.1393,-6.1393,-6.1393,-6.1393,-6.1393,-6.1393,-6.1393,-6.1393,-6.1393,-6.1393,-6.1393,-6.1393,-6.1393,-6.1393,-6.1407,-6.1479,-6.1504,-6.1636,-6.2575,-6.3511,-6.4455,-6.5331,-6.6151,-6.6795,-6.6795,-6.6795,-6.6795,-6.6795,-6.6795,-6.6795,-6.6795,-6.6795,-6.6795,-6.6795,-6.6795,-6.6795,-6.6795,-6.6795,-6.6795,-6.6795,-6.6795,-6.6873,-6.7127,-6.7693,-6.8181,-6.8415,-6.9001,-6.9391,-6.9391,-6.9391,-6.8903,-6.7634,-6.7517,-6.7517,-6.7517,-6.7517,-6.7517,-6.7517,-6.7517,-6.7514,-6.7517,-6.747,-6.7423,-6.7394,-6.7204,-6.6956,-6.67,-6.6525,-6.6334,-6.6082,-6.5853,-6.5624,-6.5394,-6.5394,-6.5394,-6.5394,-6.5394,-6.5394,-6.5394,-6.5394,-6.5394,-6.5394,-6.5394,-6.5394,-6.5394,0.0,0.0,0.0,0.0,0.0,0.0,0.0,0.0,0.0,0.0,0.0,0.0,0.0,0.0,-5.9473,-5.9869,-5.9719,-5.9874,-6.0552,-6.0482,-6.0618,-6.1085,-6.1103,-6.12,-6.1393,-6.1393,-6.1393,-6.1393,-6.1393,-6.1393,-6.1393,-6.1393,-6.1393,-6.1393,-6.1393,-6.1393,-6.1393,-6.1393,-6.1393,-6.1393,-6.1393,-6.1393,-6.1393,-6.1393,-6.1393,-6.1407,-6.1479,-6.1504,-6.1636,-6.2575,-6.3511,-6.4455,-6.5331,-6.6151,-6.6795,-6.6795,-6.6795,-6.6795,-6.6795,-6.6795,-6.6795,-6.6795,-6.6795,-6.6795,-6.6795,-6.6795,-6.6795,-6.6795,-6.6795,-6.6795,-6.6795,-6.6795,-6.7088,-6.7927,-6.8083,-6.8396,-6.9235,-6.9372,-6.9391,-6.9391,-6.9391,-6.9372,0.0,-6.9313,-6.9313,-6.9313,-6.9313,-6.9313,-6.9313,-6.9313,-6.9313,-6.9313,-6.9313,-6.926,-6.9133,-6.9128,-6.8878,-6.8417,-6.8424,-6.8212,-6.7802,-6.7018,-6.6197,-6.5394,-6.5394,-6.5394,-6.5394,-6.5394,-6.5394,-6.5394,-6.5394,-6.5394,-6.5394,-6.5394,-6.5394,-6.5394,0.0,0.0,0.0,0.0,0.0,0.0,0.0,0.0,0.0,0.0,0.0,0.0,0.0,0.0,0.0,0.0,-5.9915,-6.0084,-6.0447,-6.0514,-6.0601,-6.0757,-6.0974,-6.1139,-6.12,-6.1337,-6.1393,-6.1393,-6.1393,-6.1393,-6.1393,-6.1393,-6.1393,-6.1393,-6.1393,-6.1393,-6.1393,-6.1393,-6.1393,-6.1393,-6.1393,-6.1393,-6.1393,-6.1393,-6.1393,-6.1407,0.0,-6.1873,-6.2517,-6.3456,-6.4392,-6.5312,-6.6131,-6.658,-6.6795,-6.6795,-6.6795,-6.6795,-6.6795,-6.6795,-6.6795,-6.6795,-6.6795,-6.6795,-6.6795,-6.6795,-6.6795,-6.6795,-6.6795,-6.6971,-6.7556,-6.7654,-6.7947,-6.8825,-6.945,-6.9938,-7.0211,-7.0757,-7.1128,-7.1128,-7.1128,0.0,0.0,0.0,0.0,-6.9391,-6.9391,-6.9391,-6.9391,-6.9391,-6.9391,-6.9391,-6.9391,-6.9351,-6.9278,-6.9226,-6.9046,-6.8762,-6.8486,-6.8281,-6.8084,-6.7757,-6.7474,-6.7167,-6.6533,-6.6254,-6.6216,-6.5643,-6.5394,-6.5394,-6.5394,-6.5394,-6.5394,-6.5394,-6.5394,-6.5394,0.0,0.0,0.0,0.0,0.0,0.0,0.0,0.0,0.0,0.0,0.0,0.0,0.0,0.0,0.0,0.0,0.0,-6.0178,-6.0389,-6.0468,-6.0553,-6.0589,-6.0883,-6.1049,-6.1103,-6.1302,-6.1393,-6.1393,-6.1393,-6.1393,-6.1393,-6.1393,-6.1393,-6.1393,-6.1393,-6.1393,-6.1393,-6.1393,-6.1393,-6.1393,-6.1393,-6.1393,-6.1393,-6.1393,-6.1393,0.0,-6.1797,-6.2499,-6.3355,-6.3983,-6.4821,-6.5741,-6.6541,-6.6795,-6.6795,-6.6795,-6.6795,-6.6795,-6.6795,-6.6795,-6.6795,-6.6795,-6.6795,-6.6795,-6.6795,-6.6795,-6.6795,-6.6795,-6.7049,-6.7439,-6.8005,-6.8357,-6.8845,-6.9723,-7.0328,-7.0816,-7.1128,-7.1655,-7.2007,-7.2007,-7.2007,-7.2007,0.0,0.0,0.0,-7.0328,-7.0328,-7.0328,-7.0328,-7.0328,-7.0328,-7.0328,-7.0328,-7.0294,-7.0235,-7.0186,-7.0019,-6.9719,-6.9401,-6.9023,-6.8618,-6.8563,-6.838,-6.8059,-6.7409,-6.7133,-6.7056,-6.6216,-6.5853,-6.5834,-6.5528,-6.5394,-6.5394,-6.5394,-6.5394,-6.5394,0.0,0.0,0.0,0.0,0.0,0.0,0.0,0.0,0.0,0.0,0.0,0.0,0.0,0.0,0.0,0.0,0.0,0.0,-6.0389,-6.0403,-6.0447,-6.0577,-6.0784,-6.0953,-6.1085,-6.1268,-6.1393,-6.1393,-6.1393,-6.1393,-6.1393,-6.1393,-6.1393,-6.1393,-6.1393,-6.1393,-6.1393,-6.1393,-6.1393,-6.1393,-6.1393,-6.1393,-6.1393,-6.1393,-6.1393,-6.1509,-6.2391,-6.33,-6.4111,-6.4213,-6.4873,-6.5797,-6.6561,-6.6795,-6.6795,-6.6795,-6.6795,-6.6795,-6.6795,-6.6795,-6.6795,-6.6795,-6.6795,-6.6795,-6.6795,-6.6795,-6.6795,-6.6795,-6.7498,-6.8103,-6.8161,-6.8884,-6.9742,-7.0621,-7.0777,-7.107,-7.187,-7.2007,-7.2007,0.0,-7.2007,0.0,0.0,0.0,0.0,-7.2007,0.0,-7.2007,-7.2007,-7.2007,-7.2007,-7.2007,-7.2007,-7.1972,-7.1917,-7.1893,-7.1673,-7.1221,-7.1023,-7.042,-6.9476,-6.9406,-6.8954,-6.8227,-6.8039,-6.797,-6.7897,-6.7095,-6.6751,-6.6617,-6.5796,-6.5433,-6.5394,-6.5394,-6.5394,-6.5394,0.0,0.0,0.0,0.0,0.0,0.0,0.0,0.0,0.0,0.0,0.0,0.0,0.0,0.0,0.0,0.0,0.0,0.0,-6.0389,-6.0403,-6.0417,-6.0447,-6.0603,-6.0754,-6.0943,-6.1095,-6.1252,-6.1393,-6.1393,-6.1393,-6.1393,-6.1393,-6.1393,-6.1393,-6.1393,-6.1393,-6.1393,-6.1393,-6.1393,-6.1393,-6.1393,-6.1393,-6.1393,-6.1393,-6.1393,-6.1509,-6.2391,-6.3269,-6.414,-6.4794,-6.5684,-6.6528,-6.6731,-6.6795,-6.6795,-6.6795,-6.6795,-6.6795,-6.6795,-6.6795,-6.6795,-6.6795,-6.6795,-6.6795,-6.6795,-6.6795,-6.6795,-6.6795,-6.7498,-6.8298,-6.8942,-6.9782,-7.066,-7.1538,-7.1675,-7.1753,-7.1968,-7.2007,-7.2007,-7.2007,-7.2007,-7.2007,-7.2007,-7.2007,0.0,0.0,-7.2007,-7.2007,-7.2007,-7.2007,-7.2007,-7.2007,-7.2007,-7.1984,-7.1976,-7.1929,-7.1698,-7.1349,-7.1308,-7.1023,-7.0516,-7.0465,-7.0277,-6.9988,-6.9261,-6.8915,-6.8795,-6.7954,-6.7247,-6.6674,-6.6464,-6.5967,-6.5394,-6.5394,-6.5394,-6.5394,0.0,0.0,0.0,0.0,0.0,0.0,0.0,0.0,0.0,0.0,0.0,0.0,0.0,0.0,0.0,0.0,0.0,0.0,0.0,-6.0403,-6.0403,-6.0403,-6.0527,-6.0649,-6.0773,-6.0993,-6.1156,-6.126,-6.1352,-6.1393,-6.1393,-6.1393,-6.1393,-6.1393,-6.1393,-6.1393,-6.1393,-6.1393,-6.1393,0.0,0.0,-6.1393,-6.1393,-6.1393,-6.1393,-6.1548,-6.2818,-6.407,-6.5194,-6.5752,-6.633,-6.6791,-6.6807,-6.6795,-6.6795,-6.6795,-6.6795,-6.6795,-6.6795,-6.6795,-6.6795,-6.6795,-6.6795,-6.6795,-6.6795,-6.6795,-6.6912,-6.7283,-6.8064,-6.8942,-6.9801,-7.0679,-7.1421,-7.1929,-7.2007,-7.2007,-7.2007,-7.2007,-7.2007,-7.2007,-7.2007,-7.2007,-7.2007,-7.2007,-7.2007,0.0,-7.2007,-7.2007,-7.2007,-7.2007,-7.2007,-7.2007,-7.2007,-7.2007,-7.2007,-7.1932,-7.1761,-7.1443,-7.1416,-7.1222,-7.0898,-7.0829,-7.0791,-7.0709,0.0,-6.9892,-6.9741,-6.8877,-6.8234,-6.7725,-6.6999,-6.6407,-6.5929,-6.5547,-6.5394,-6.5394,0.0,0.0,0.0,0.0,0.0,0.0,0.0,0.0,0.0,0.0,0.0,0.0,0.0,0.0,0.0,0.0,0.0,0.0,0.0,0.0,-6.0403,-6.0403,-6.052,-6.0584,-6.0589,-6.0884,-6.1058,-6.1103,-6.1268,-6.1359,-6.1393,-6.1393,-6.1393,-6.1393,-6.1393,-6.1393,-6.1393,-6.1393,-6.1393,-6.1393,-6.1393,-6.1393,-6.1393,0.0,-6.1393,-6.1633,-6.3376,-6.5079,-6.6533,-6.6725,-6.6788,-6.6783,-6.6807,-6.6795,-6.6795,-6.6795,-6.6795,-6.6795,-6.6795,-6.6795,-6.6795,-6.6795,-6.6795,-6.6795,-6.6795,-6.6795,-6.7049,-6.7927,-6.8786,-6.9664,-7.0543,-7.1402,-7.2007,-7.2007,-7.2007,-7.2007,-7.2007,-7.2007,-7.2007,-7.2007,-7.2007,-7.2007,-7.2007,-7.2007,-7.2007,-7.2007,-7.2007,-7.2007,-7.2007,-7.2007,-7.2007,-7.2007,-7.2007,-7.2007,-7.2007,-7.194,-7.1764,-7.1501,-7.1434,-7.1233,-7.0898,-7.0829,-7.082,-7.0806,0.0,0.0,-7.0562,-6.9781,-6.9371,-6.9059,-6.7477,-6.6789,-6.6598,-6.5719,-6.5394,-6.5394,0.0,0.0,0.0,0.0,0.0,0.0,0.0,0.0,0.0,0.0,-6.0182,-6.0403,0.0,0.0,0.0,0.0,0.0,0.0,0.0,0.0,0.0,-6.0403,-6.0412,-6.05,-6.0589,-6.0661,-6.0822,-6.1103,-6.112,-6.1244,-6.1393,-6.1393,-6.1393,-6.1393,-6.1393,-6.1393,-6.1393,-6.1393,-6.1393,-6.1393,-6.1393,-6.1393,-6.1393,-6.1393,0.0,0.0,-6.3372,-6.5083,-6.6526,-6.6726,-6.6767,-6.6722,-6.6778,-6.6795,-6.6795,-6.6795,-6.6795,-6.6795,-6.6795,-6.6795,-6.6795,-6.6795,-6.6795,-6.6795,-6.6795,-6.6795,-6.7049,-6.7927,-6.8786,-6.9664,-7.0543,-7.1402,-7.2007,-7.2007,-7.2007,-7.2007,-7.2007,-7.2007,-7.2007,-7.2007,-7.2007,-7.2007,-7.2007,-7.2007,0.0,0.0,0.0,-7.2007,-7.2007,-7.2007,-7.2007,-7.2007,-7.2007,-7.2007,-7.2007,-7.1982,-7.1823,-7.1501,-7.1484,-7.1279,-7.0898,-7.0885,-7.0843,-7.0787,-7.0791,0.0,-7.0673,-7.0463,-6.9938,-6.9176,-6.81,-6.7286,-6.6598,-6.5719,-6.5394,-6.5394,0.0,0.0,0.0,0.0,0.0,0.0,0.0,-5.9473,-5.9685,-5.9869,-6.0106,-6.0437,-6.0981,-6.0637,-6.0575,0.0,0.0,0.0,0.0,0.0,0.0,0.0,0.0,0.0,-6.0494,-6.0559,-6.0731,-6.1003,0.0,-6.12,-6.1393,-6.1393,-6.1393,-6.1393,-6.1393,-6.1393,-6.1393,-6.1393,-6.1393,-6.1393,-6.1393,-6.1393,0.0,0.0,0.0,0.0,-6.3541,-6.4811,-6.5972,-6.659,-6.6787,-6.6763,-6.6781,-6.6795,-6.6795,-6.6795,-6.6795,-6.6795,-6.6795,-6.6795,-6.6795,-6.6795,-6.6795,-6.6795,-6.6795,-6.6795,-6.7185,-6.8493,-6.9118,-6.9801,-7.1128,-7.1714,-7.2007,-7.2007,-7.2007,-7.2007,-7.2007,-7.2007,-7.2007,-7.2007,-7.2007,-7.2007,-7.2007,-7.2007,-7.2007,-7.2007,0.0,-7.2007,-7.2007,-7.2007,-7.2007,-7.2007,-7.2007,-7.2007,-7.2007,-7.2007,-7.1833,-7.1501,-7.1566,-7.1357,-7.0898,-7.1017,-7.0979,-7.0843,-7.0843,0.0,-7.0748,-7.0723,-7.0443,-6.9938,-6.9,-6.8131,-6.7328,-6.6403,-6.5796,-6.5394,0.0,0.0,0.0,0.0,0.0,0.0,0.0,-5.9473,-5.9685,-5.9869,-6.001,-6.0559,-6.175,-6.1153,-6.0981,0.0,0.0,0.0,0.0,0.0,0.0,0.0,0.0,0.0,0.0,0.0,0.0,-6.0828,-6.0983,0.0,0.0,0.0,0.0,0.0,-6.1393,-6.1393,-6.1393,-6.1393,-6.1393,0.0,0.0,-6.1393,0.0,0.0,0.0,0.0,0.0,-6.4558,-6.5452,-6.6462,-6.6803,-6.6791,-6.6807,-6.6795,-6.6795,-6.6795,-6.6795,-6.6795,-6.6795,-6.6795,-6.6795,-6.6795,-6.6795,-6.6795,-6.6795,-6.6795,-6.7283,-6.904,-6.9391,-6.9938,-7.1675,-7.2007,-7.2007,-7.2007,-7.2007,-7.2007,-7.2007,-7.2007,-7.2007,-7.2007,-7.2007,-7.2007,-7.2007,-7.2007,0.0,0.0,0.0,0.0,-7.2007,-7.2007,-7.2007,-7.2007,-7.2007,-7.2007,-7.2007,-7.2007,-7.1842,-7.1536,-7.1653,-7.1466,-7.1023,-7.1184,-7.1139,-7.0953,-7.0953,0.0,0.0,-7.082,-7.0777,-7.0642,-6.9689,-6.8931,-6.8242,-6.7137,-6.6304,-6.5673,0.0,0.0,0.0,0.0,0.0,0.0,0.0,-5.9473,-5.9685,-5.9869,-6.001,-6.0787,-6.2576,-6.2013,-6.1841,0.0,0.0,0.0,0.0,0.0,0.0,0.0,0.0,0.0,0.0,0.0,0.0,-6.0626,-6.0828,0.0,0.0,0.0,0.0,0.0,0.0,-6.1393,-6.1393,-6.1393,0.0,0.0,0.0,0.0,0.0,0.0,0.0,0.0,0.0,-6.4558,-6.5452,-6.6462,-6.6803,-6.6791,-6.6807,-6.6795,-6.6795,-6.6795,-6.6795,-6.6795,-6.6795,-6.6795,-6.6795,-6.6795,-6.6795,-6.6795,-6.6795,-6.6795,-6.7283,-6.904,-6.9391,-6.9938,-7.1675,-7.2007,-7.2007,-7.2007,-7.2007,-7.2007,-7.2007,-7.2007,-7.2007,-7.2007,-7.2007,-7.2007,-7.2007,-7.2007,-7.2007,0.0,0.0,0.0,-7.2007,-7.2007,-7.2007,-7.2007,-7.2007,-7.2007,-7.2007,-7.2007,-7.189,-7.1683,-7.1694,-7.1602,-7.145,-7.1448,-7.1349,-7.1162,-7.1162,0.0,0.0,-7.0834,-7.0806,-7.0695,-6.9745,-6.9351,-6.9082,-6.7404,-6.6742,-6.6551,0.0,0.0,0.0,0.0,0.0,0.0,-5.9473,-5.9649,-5.9853,-5.9994,-6.0072,-6.0806,-6.2691,-6.2586,-6.2739,-6.3599,0.0,0.0,0.0,0.0,0.0,0.0,0.0,0.0,0.0,0.0,-6.046,-6.0589,-6.0673,0.0,0.0,0.0,0.0,0.0,0.0,0.0,-6.1393,0.0,0.0,0.0,0.0,0.0,0.0,0.0,0.0,0.0,0.0,0.0,-6.4802,-6.624,-6.6779,-6.6801,-6.6792,-6.6795,-6.6795,-6.6795,-6.6795,-6.6795,-6.6795,-6.6795,-6.6795,-6.6795,-6.6795,-6.6795,-6.6795,-6.7205,-6.7927,-6.9157,-6.9821,-7.0543,-7.1772,-7.2007,-7.2007,-7.2007,-7.2007,-7.2007,-7.2007,-7.2007,-7.2007,-7.2007,-7.2007,-7.2007,0.0,0.0,-7.2007,0.0,0.0,0.0,-7.2007,-7.2007,-7.2007,-7.2007,-7.2007,-7.2007,-7.2007,-7.2007,-7.1893,-7.17,-7.1822,-7.1744,-7.1509,-7.1587,-7.1524,-7.1367,-7.1259,0.0,0.0,-7.092,-7.0857,-7.0805,-7.0407,-6.9956,-6.9366,-6.8046,-6.7285,-6.672,0.0,0.0,0.0,0.0,0.0,-5.9633,-5.9685,-5.9834,-5.9994,-6.0103,-6.0372,-6.1137,-6.2724,-6.314,-6.3637,-6.4477,-6.377,0.0,0.0,0.0,0.0,0.0,0.0,0.0,0.0,0.0,-6.0453,-6.054,-6.0584,-6.0712,0.0,0.0,-6.1184,0.0,0.0,0.0,0.0,0.0,0.0,0.0,0.0,0.0,0.0,0.0,0.0,0.0,0.0,0.0,0.0,0.0,0.0,-6.6795,-6.6795,-6.6795,-6.6795,-6.6795,-6.6795,-6.6795,-6.6795,-6.6795,-6.6795,-6.6795,-6.6795,-6.6795,-6.6795,-6.7264,-6.8044,-6.9176,-6.9899,-7.066,-7.1792,-7.2007,-7.2007,-7.2007,-7.2007,-7.2007,-7.2007,-7.2007,-7.2007,-7.2007,0.0,-7.2007,0.0,-7.2007,0.0,0.0,0.0,0.0,0.0,-7.2007,-7.2007,-7.2007,-7.2007,-7.2007,-7.2007,-7.2007,-7.1927,-7.1789,-7.1927,-7.1874,-7.1647,-7.1755,-7.1708,-7.1551,0.0,0.0,0.0,-7.1072,-7.0992,-7.0966,-7.0871,-7.0483,-6.986,-6.8867,-6.799,-6.7189,0.0,0.0,0.0,0.0,0.0,0.0,-5.9869,-6.001,-6.0084,-6.0099,-6.0976,-6.1917,-6.2815,-6.3675,-6.4496,-6.5318,-6.4649,0.0,0.0,0.0,0.0,0.0,0.0,0.0,0.0,0.0,-6.0403,-6.0403,-6.054,-6.0601,-6.0613,-6.0945,-6.1103,-6.1111,0.0,0.0,0.0,0.0,0.0,0.0,0.0,0.0,0.0,0.0,0.0,0.0,0.0,0.0,0.0,0.0,0.0,0.0,0.0,-6.6795,-6.6795,-6.6795,-6.6795,-6.6795,-6.6795,-6.6795,-6.6795,-6.6795,-6.6795,-6.6795,-6.6795,-6.6815,-6.7303,-6.904,-6.9411,-6.9938,-7.1675,-7.2007,-7.2007,-7.2007,-7.2007,-7.2007,-7.2007,-7.2007,-7.2007,0.0,-7.2007,-7.2007,-7.2007,-7.2007,0.0,0.0,0.0,0.0,0.0,-7.2007,-7.2007,-7.2007,-7.2007,-7.2007,-7.2007,-7.2007,-7.2007,-7.2007,-7.2007,-7.2007,-7.1987,-7.2007,-7.189,0.0,0.0,0.0,0.0,-7.1289,-7.1195,-7.1192,-7.0985,-7.0898,-7.0769,-6.9835,-6.8981,-6.8156,0.0,0.0,0.0,0.0,0.0,0.0,0.0,-6.0197,-6.0299,-6.0299,-6.1067,-6.1936,-6.2815,-6.3675,-6.4516,-6.5337,-6.5165,0.0,0.0,0.0,0.0,0.0,0.0,0.0,0.0,0.0,-6.0403,-6.0403,-6.0453,-6.052,-6.0601,-6.0841,-6.1002,-6.1103,-6.131,0.0,0.0,0.0,0.0,0.0,0.0,0.0,0.0,0.0,0.0,0.0,0.0,0.0,0.0,0.0,0.0,0.0,0.0,0.0,0.0,-6.6795,-6.6795,-6.6795,-6.6795,-6.6795,-6.6795,-6.6795,-6.6795,-6.6795,-6.6795,-6.7264,-6.8005,-6.9157,-6.9879,-7.064,-7.1792,-7.2007,-7.2007,-7.2007,-7.2007,-7.2007,-7.2007,-7.2007,-7.2007,-7.2007,-7.2007,-7.2007,0.0,0.0,0.0,0.0,0.0,0.0,0.0,-7.2007,-7.2007,-7.2007,-7.2007,-7.2007,-7.2007,-7.2007,-7.2007,-7.2007,-7.2007,-7.2007,-7.2007,-7.2007,0.0,0.0,0.0,0.0,0.0,-7.1473,-7.1414,-7.1405,-7.1329,-7.132,-7.1193,-7.0252,-6.941,-6.8578,0.0,0.0,0.0,0.0,0.0,0.0,0.0,-6.0313,-6.0403,-6.0403,-6.1382,-6.2299,-6.2853,-6.3942,-6.484,-6.5356,-6.5394,0.0,0.0,0.0,0.0,0.0,0.0,0.0,-6.1612,-6.1115,-6.0695,-6.0403,-6.0403,-6.0453,-6.0527,-6.0704,-6.0862,-6.1021,-6.122,-6.1337,0.0,0.0,0.0,0.0,0.0,0.0,-6.1393,0.0,0.0,0.0,0.0,0.0,0.0,0.0,0.0,0.0,0.0,0.0,0.0,0.0,-6.6795,-6.6795,-6.6795,-6.6795,-6.6795,-6.6795,-6.6795,-6.6795,-6.6795,-6.7224,-6.7947,-6.9157,-6.9821,-7.0582,-7.1772,-7.2007,-7.2007,-7.2007,-7.2007,-7.2007,-7.2007,-7.2007,0.0,-7.2007,0.0,0.0,0.0,0.0,0.0,0.0,0.0,0.0,0.0,-7.2007,-7.2007,-7.2007,-7.2007,-7.2007,-7.2007,-7.2007,-7.2007,-7.2007,-7.2007,-7.2007,-7.2007,-7.2007,0.0,0.0,0.0,0.0,0.0,-7.1634,-7.1573,-7.1566,-7.1525,-7.1501,-7.1423,-7.0835,-7.0105,-6.9267,0.0,0.0,0.0,0.0,0.0,0.0,0.0,-6.0403,-6.0403,-6.0403,-6.186,-6.2911,-6.2911,-6.4401,-6.5394,-6.5394,0.0,0.0,0.0,0.0,0.0,0.0,0.0,0.0,-6.1822,-6.1669,-6.123,-6.0499,-6.0441,-6.0403,-6.0403,-6.054,-6.0685,-6.0901,-6.1031,-6.1209,-6.1393,-6.1393,-6.1393,-6.1393,-6.1393,-6.1393,0.0,0.0,0.0,0.0,0.0,0.0,0.0,0.0,0.0,0.0,0.0,0.0,0.0,0.0,0.0,0.0,0.0,-6.6795,-6.6795,-6.6795,-6.6795,-6.6795,-6.6795,-6.6795,0.0,-6.8962,-6.9313,-6.984,-7.1597,-7.1909,-7.1929,-7.1987,-7.2007,-7.1987,-7.1929,-7.1851,0.0,0.0,-7.1909,0.0,0.0,0.0,0.0,0.0,0.0,0.0,0.0,-7.2007,-7.2007,-7.2007,-7.2007,-7.2007,-7.2007,-7.2007,-7.2007,-7.2007,-7.2007,-7.2007,-7.2007,-7.2007,0.0,0.0,0.0,0.0,0.0,-7.1794,-7.1711,-7.17,-7.158,-7.154,-7.154,-7.154,-7.0977,-7.0122,0.0,0.0,0.0,0.0,0.0,0.0,0.0,0.0,0.0,0.0,-6.186,-6.2911,-6.2911,-6.4401,-6.5394,0.0,0.0,0.0,0.0,0.0,0.0,0.0,0.0,0.0,-6.3613,-6.228,-6.1516,-6.1325,-6.0695,-6.0403,-6.0403,-6.054,-6.0633,-6.0673,-6.0964,-6.1209,-6.1393,-6.1393,-6.1393,-6.1393,-6.1393,-6.1393,0.0,0.0,0.0,0.0,-6.2391,-6.33,0.0,0.0,0.0,0.0,0.0,0.0,0.0,0.0,-6.6795,0.0,-6.6795,0.0,-6.6795,-6.6795,-6.6795,-6.6795,0.0,-6.6795,-6.7107,-6.8181,-6.8415,-6.8942,-7.0679,-7.1011,-7.1226,-7.189,-7.2007,-7.1772,-7.1109,-7.0426,0.0,-7.0933,-7.1011,-7.1265,0.0,0.0,0.0,0.0,0.0,0.0,0.0,-7.2007,-7.2007,-7.2007,-7.2007,-7.2007,-7.2007,-7.2007,-7.2007,-7.2007,-7.2007,-7.2007,-7.2007,-7.2007,0.0,0.0,0.0,0.0,-7.2007,-7.1953,-7.1927,-7.1924,-7.1886,-7.1878,-7.1878,-7.1878,-7.1332,-7.0552,0.0,0.0,0.0,0.0,0.0,0.0,0.0,0.0,0.0,0.0,0.0,-6.2911,-6.2911,-6.4401,0.0,0.0,0.0,0.0,0.0,0.0,0.0,0.0,0.0,-6.4588,-6.4206,-6.3274,-6.2395,-6.1593,-6.1153,-6.0752,-6.0403,-6.0474,-6.054,-6.0613,-6.0945,-6.1209,-6.1393,-6.1393,-6.1393,-6.1393,-6.1393,0.0,0.0,0.0,0.0,0.0,-6.1924,-6.295,0.0,-6.4632,-6.5687,-6.6795,0.0,0.0,0.0,0.0,-6.6795,-6.6795,-6.6795,-6.6795,-6.6795,-6.6795,-6.6795,-6.6795,-6.6795,-6.6795,-6.7049,-6.7927,-6.8103,-6.8513,-6.986,-7.0094,-7.027,-7.0738,-7.0816,-7.064,0.0,0.0,-6.9586,-7.0055,-7.0094,0.0,0.0,0.0,0.0,0.0,0.0,0.0,0.0,-7.2007,-7.2007,-7.2007,-7.2007,-7.2007,-7.2007,-7.2007,-7.2007,-7.2007,-7.2007,-7.2007,-7.2007,-7.2007,-7.2007,0.0,0.0,0.0,-7.2007,-7.2007,-7.2007,-7.2007,-7.2007,-7.2007,-7.2007,-7.2007,-7.1694,-7.1245,0.0,0.0,0.0,0.0,0.0,0.0,0.0,0.0,0.0,0.0,0.0,0.0,0.0,0.0,0.0,0.0,0.0,0.0,0.0,0.0,0.0,0.0,-6.5394,-6.507,-6.4416,-6.4263,-6.3465,-6.1994,-6.1726,-6.1249,-6.058,-6.046,-6.0474,-6.0613,-6.0925,-6.1184,-6.1352,-6.1386,-6.1393,-6.1393,-6.1393,0.0,0.0,0.0,0.0,0.0,0.0,0.0,0.0,-6.4106,-6.5297,-6.6795,-6.6795,0.0,0.0,0.0,0.0,0.0,-6.6795,-6.6795,-6.6795,-6.6795,-6.6795,-6.6795,-6.6795,-6.6795,-6.701,-6.7752,-6.7908,-6.8161,-6.904,-6.9196,-6.9255,-6.9372,0.0,0.0,-6.9196,-6.9098,-6.904,-6.9196,0.0,0.0,0.0,0.0,0.0,0.0,0.0,0.0,0.0,-7.2007,-7.2007,-7.2007,-7.2007,-7.2007,-7.2007,-7.2007,-7.2007,-7.2007,-7.2007,-7.2007,-7.2007,-7.2007,-7.2007,0.0,0.0,0.0,-7.2007,-7.2007,-7.2007,-7.2007,-7.2007,-7.2007,-7.2007,-7.2007,-7.2007,-7.187,0.0,0.0,0.0,0.0,0.0,0.0,0.0,0.0,0.0,0.0,0.0,0.0,0.0,0.0,0.0,0.0,0.0,0.0,0.0,0.0,0.0,-6.5394,-6.5394,-6.5337,-6.5222,-6.4535,-6.4072,-6.3804,-6.2319,-6.1535,-6.1402,-6.0714,-6.0474,-6.0601,-6.0839,-6.1012,-6.1156,-6.1337,-6.1393,-6.1393,-6.1393,0.0,0.0,0.0,0.0,0.0,0.0,0.0,0.0,-6.4106,-6.5297,-6.6795,-6.6795,0.0,0.0,0.0,0.0,0.0,-6.6795,-6.6795,-6.6795,-6.6795,-6.6795,-6.6795,-6.6795,-6.6795,-6.6834,-6.6971,-6.699,-6.7264,-6.8142,-6.8298,-6.8532,-6.9274,0.0,-6.8298,0.0,0.0,-6.7478,0.0,0.0,0.0,0.0,0.0,0.0,0.0,0.0,0.0,0.0,-7.2007,-7.2007,-7.2007,-7.2007,-7.2007,-7.2007,-7.2007,-7.2007,-7.2007,-7.2007,-7.2007,-7.2007,-7.2007,-7.2007,0.0,0.0,-7.2007,-7.2007,-7.2007,-7.2007,-7.2007,-7.2007,-7.2007,-7.2007,-7.2007,-7.2007,-7.187,0.0,0.0,0.0,0.0,0.0,0.0,0.0,0.0,0.0,0.0,0.0,0.0,0.0,0.0,0.0,0.0,0.0,0.0,0.0,0.0,-6.5394,-6.5394,-6.5394,-6.5394,-6.5394,-6.5031,-6.463,-6.4206,-6.3388,-6.251,-6.1573,-6.0771,-6.0474,-6.0601,-6.0806,-6.0983,-6.1111,-6.131,-6.1393,-6.1393,0.0,0.0,0.0,0.0,0.0,0.0,0.0,0.0,0.0,0.0,-6.5297,-6.6795,-6.6795,0.0,0.0,0.0,0.0,0.0,-6.6795,-6.6795,-6.6795,-6.6795,-6.6795,-6.6795,-6.6795,-6.6795,-6.6795,-6.6795,-6.6795,-6.6912,-6.7322,-6.74,-6.7537,-6.7927,0.0,-6.74,-6.74,-6.7049,0.0,0.0,0.0,0.0,0.0,0.0,0.0,0.0,0.0,0.0,0.0,0.0,-7.1519,-7.1987,-7.2007,-7.2007,-7.2007,-7.2007,-7.2007,-7.2007,-7.2007,-7.2007,-7.2007,-7.2007,-7.2007,-7.2007,0.0,-7.2007,-7.2007,-7.2007,-7.2007,-7.2007,-7.2007,-7.2007,-7.2007,-7.2007,-7.2007,-7.187,0.0,0.0,0.0,0.0,0.0,0.0,0.0,0.0,0.0,0.0,0.0,0.0,0.0,0.0,0.0,0.0,0.0,0.0,0.0,-6.5394,-6.5394,-6.5394,-6.5394,-6.5394,-6.5394,-6.5394,-6.5089,-6.4477,-6.4301,-6.3312,-6.1593,-6.0962,-6.0638,-6.0559,-6.0795,-6.0963,-6.1058,-6.1295,-6.1393,-6.1393,0.0,0.0,0.0,0.0,0.0,0.0,0.0,0.0,0.0,0.0,0.0,0.0,0.0,0.0,0.0,-6.6795,-6.6795,-6.6795,-6.6795,-6.6795,-6.6795,-6.6795,-6.6795,-6.6795,-6.6795,-6.6795,-6.6795,-6.6795,-6.6795,-6.6795,-6.6795,-6.6795,0.0,-6.6795,-6.6795,-6.6795,-6.6795,0.0,0.0,0.0,0.0,0.0,0.0,0.0,0.0,0.0,0.0,0.0,0.0,0.0,-7.1011,-7.1675,-7.189,-7.2007,-7.2007,-7.2007,-7.2007,-7.2007,-7.2007,-7.2007,-7.2007,-7.2007,-7.2007,-7.2007,-7.2007,-7.2007,-7.2007,-7.2007,-7.2007,-7.2007,-7.2007,-7.2007,-7.2007,-7.2007,-7.2007,-7.1909,0.0,0.0,0.0,0.0,0.0,0.0,0.0,0.0,0.0,0.0,0.0,0.0,0.0,0.0,0.0,0.0,0.0,0.0,0.0,-6.5394,-6.5394,-6.5394,-6.5394,-6.5394,-6.5394,-6.5394,-6.5375,-6.5318,-6.4554,-6.3312,-6.1593,-6.1535,-6.1129,-6.0425,-6.0758,-6.0911,-6.0942,-6.1263,-6.1393,-6.1393,-6.1393,0.0,0.0,0.0,0.0,0.0,0.0,0.0,0.0,0.0,0.0,0.0,0.0,0.0,-6.6795,-6.6795,-6.6795,-6.6795,-6.6795,-6.6795,-6.6795,-6.6795,-6.6795,-6.6795,-6.6795,-6.6795,-6.6795,-6.6795,-6.6795,-6.6795,-6.6795,-6.6795,-6.6795,-6.6795,-6.6795,-6.6795,0.0,0.0,0.0,0.0,0.0,0.0,0.0,0.0,0.0,0.0,0.0,0.0,0.0,0.0,0.0,-7.0797,-7.1577,-7.2007,-7.2007,-7.2007,-7.2007,-7.2007,-7.2007,-7.2007,-7.2007,-7.2007,-7.2007,-7.2007,-7.2007,-7.2007,-7.2007,-7.2007,-7.2007,-7.2007,-7.2007,-7.2007,-7.2007,-7.2007,-7.2007,-7.1987,0.0,0.0,0.0,0.0,0.0,0.0,0.0,0.0,0.0,0.0,0.0,0.0,0.0,0.0,0.0,0.0,0.0,0.0,0.0,-6.5394,-6.5394,-6.5394,-6.5394,-6.5394,-6.5394,-6.5394,-6.5394,-6.5394,-6.4592,-6.3847,-6.3197,-6.2662,-6.1956,-6.1162,-6.1497,-6.1364,-6.0932,-6.1255,-6.1393,-6.1393,-6.1393,-6.1393,0.0,0.0,0.0,0.0,0.0,0.0,0.0,0.0,-6.5006,-6.6131,-6.6639,-6.6795,-6.6795,-6.6795,-6.6795,-6.6795,-6.6795,-6.6795,-6.6795,-6.6795,-6.6795,-6.6795,-6.6795,-6.6795,-6.6795,-6.6795,-6.6795,-6.6795,-6.6795,-6.6795,-6.6795,-6.6795,-6.6795,0.0,0.0,0.0,0.0,0.0,0.0,0.0,0.0,0.0,0.0,0.0,0.0,0.0,0.0,0.0,0.0,-7.0679,-7.1011,-7.1441,-7.1987,-7.2007,-7.2007,-7.2007,-7.2007,-7.2007,-7.2007,-7.2007,-7.2007,-7.2007,-7.2007,-7.2007,-7.2007,-7.2007,-7.2007,-7.2007,-7.2007,-7.2007,-7.2007,-7.2007,-7.2007,-7.2007,0.0,0.0,0.0,0.0,0.0,0.0,0.0,0.0,0.0,0.0,0.0,0.0,0.0,0.0,0.0,0.0,0.0,0.0,-6.5394,-6.5394,-6.5394,-6.5394,-6.5394,-6.5394,-6.5394,-6.5394,-6.5394,-6.5394,-6.484,-6.4454,-6.4187,-6.3579,-6.2853,-6.2027,-6.2317,-6.2023,-6.1308,-6.1593,-6.1589,-6.1393,-6.1393,-6.1393,0.0,0.0,0.0,0.0,0.0,0.0,0.0,0.0,-6.4821,-6.5741,-6.6541,-6.6795,-6.6795,-6.6795,-6.6619,-6.6424,-6.6424,-6.6209,-6.6017,-6.6017,-6.6017,-6.6017,-6.6017,-6.6424,-6.6795,-6.6795,-6.6795,-6.6795,-6.6795,-6.6795,0.0,0.0,-6.6795,0.0,0.0,0.0,0.0,0.0,0.0,0.0,0.0,0.0,0.0,0.0,0.0,0.0,0.0,0.0,0.0,0.0,-7.0406,-7.0992,-7.1577,-7.1851,-7.2007,-7.2007,-7.2007,-7.2007,-7.2007,-7.2007,-7.2007,-7.2007,-7.2007,-7.2007,-7.2007,-7.2007,-7.2007,-7.2007,-7.2007,-7.2007,-7.2007,-7.2007,-7.2007,-7.2007,0.0,0.0,0.0,0.0,0.0,0.0,0.0,0.0,0.0,0.0,0.0,0.0,0.0,0.0,0.0,0.0,0.0,0.0,-6.5394,-6.5394,-6.5394,-6.5394,-6.5394,-6.5394,-6.5394,-6.5394,-6.5394,-6.5394,-6.5394,-6.4993,-6.4206,-6.4206,-6.3751,-6.2911,-6.3115,-6.2801,-6.2135,-6.2336,-6.2034,-6.1412,-6.1412,-6.1412,-6.1393,0.0,0.0,0.0,0.0,0.0,0.0,0.0,-6.4801,-6.5722,-6.6522,-6.6776,-6.6776,-6.6776,-6.6209,-6.5585,-6.5585,-6.496,-6.4299,-6.4299,-6.4299,-6.4299,-6.4299,-6.5587,-6.6776,-6.6776,-6.6776,-6.6776,-6.6795,-6.6795,0.0,-6.6795,0.0,0.0,0.0,0.0,0.0,0.0,0.0,0.0,0.0,0.0,0.0,0.0,0.0,0.0,0.0,0.0,0.0,0.0,-6.9762,-7.0679,-7.0699,-7.1558,-7.1987,-7.2007,-7.2007,-7.2007,-7.2007,-7.2007,-7.2007,-7.2007,-7.2007,-7.2007,-7.2007,-7.2007,-7.2007,-7.2007,-7.2007,-7.2007,-7.2007,-7.2007,-7.2007,-7.2007,0.0,0.0,0.0,0.0,0.0,0.0,0.0,0.0,0.0,0.0,0.0,0.0,0.0,0.0,0.0,0.0,0.0,0.0,-6.5394,-6.5394,-6.5394,-6.5394,-6.5394,-6.5394,-6.5394,-6.5394,-6.5394,-6.5394,-6.5394,-6.528,-6.5031,-6.5031,-6.4592,-6.3823,-6.3978,-6.3666,-6.3034,-6.3226,-6.2926,-6.2313,-6.2313,-6.1944,-6.14,0.0,0.0,0.0,0.0,0.0,0.0,0.0,0.0,0.0,-6.4765,-6.5041,-6.5041,-6.5041,-6.4863,-6.4687,-6.4687,-6.4494,-6.4299,-6.4299,-6.4299,-6.4299,-6.4299,-6.4689,-6.5041,-6.5041,-6.5041,-6.5234,-6.5839,-6.5956,0.0,0.0,0.0,0.0,0.0,0.0,0.0,0.0,0.0,0.0,0.0,0.0,0.0,0.0,0.0,0.0,0.0,0.0,0.0,0.0,-6.861,-6.9469,-7.0699,-7.0953,-7.1382,-7.2007,-7.2007,-7.2007,-7.2007,-7.2007,-7.2007,-7.2007,-7.2007,-7.2007,-7.2007,-7.2007,-7.2007,-7.2007,-7.2007,-7.2007,-7.2007,-7.2007,-7.2007,-7.2007,0.0,0.0,0.0,0.0,0.0,0.0,0.0,0.0,0.0,0.0,-6.5394,-6.5394,0.0,0.0,0.0,0.0,0.0,0.0,0.0,-6.5394,-6.5394,-6.5394,-6.5394,-6.5394,-6.5394,-6.5394,-6.5394,-6.5394,-6.5394,-6.5394,-6.5394,-6.5394,-6.5146,-6.4683,-6.4757,-6.4417,-6.3808,-6.4005,-6.3709,-6.3091,-6.3184,-6.289,-6.24,0.0,0.0,0.0,0.0,0.0,0.0,0.0,0.0,0.0,-6.4026,-6.4299,-6.4299,-6.4299,-6.4045,-6.377,-6.377,-6.3535,-6.3262,-6.3262,-6.3262,-6.3262,-6.3262,-6.3809,-6.4299,-6.4299,-6.4299,-6.4455,-6.498,-6.5077,0.0,0.0,0.0,0.0,0.0,0.0,0.0,0.0,0.0,0.0,0.0,0.0,0.0,0.0,0.0,0.0,0.0,0.0,0.0,0.0,-6.7927,-6.861,-6.9664,-7.0348,-7.0953,-7.1499,-7.1831,-7.2007,-7.2007,-7.2007,-7.2007,-7.2007,-7.2007,-7.2007,-7.2007,-7.2007,-7.2007,-7.2007,-7.2007,-7.2007,-7.2007,-7.2007,-7.2007,-7.2007,0.0,0.0,0.0,0.0,0.0,0.0,0.0,0.0,0.0,0.0,-6.5394,-6.5394,0.0,0.0,0.0,0.0,0.0,0.0,0.0,-6.5394,-6.5394,-6.5394,-6.5394,-6.5394,-6.5394,-6.5394,-6.5394,-6.5394,-6.5394,-6.5394,-6.5394,-6.5394,-6.5394,-6.5394,-6.5394,-6.5068,-6.4526,-6.4725,-6.4421,-6.3843,-6.4035,-6.4078,-6.3916,-6.313,0.0,0.0,0.0,0.0,0.0,0.0,0.0,0.0,-6.3809,-6.4065,-6.4065,-6.4065,-6.3496,-6.2872,-6.2872,-6.2306,-6.1698,-6.1698,-6.1698,-6.1698,-6.1698,-6.293,-6.4065,-6.4065,-6.4065,-6.4084,-6.4162,-6.4182,-6.4201,0.0,0.0,0.0,0.0,0.0,0.0,0.0,0.0,0.0,0.0,0.0,0.0,0.0,0.0,0.0,0.0,0.0,0.0,-6.6795,-6.7576,-6.8025,-6.8103,-6.9664,-7.0543,0.0,-7.1499,-7.1929,-7.2007,-7.2007,-7.2007,-7.2007,-7.2007,-7.2007,-7.2007,-7.2007,-7.2007,-7.2007,-7.2007,-7.2007,-7.2007,-7.2007,-7.2007,-7.2007,0.0,0.0,0.0,0.0,0.0,0.0,0.0,0.0,0.0,0.0,0.0,0.0,0.0,0.0,0.0,0.0,0.0,0.0,0.0,-6.5394,-6.5394,-6.5394,-6.5394,-6.5394,-6.5394,-6.5394,-6.5394,-6.5394,-6.5394,-6.5394,-6.5394,-6.5394,-6.5394,-6.5394,-6.5394,-6.5413,-6.5442,-6.5642,-6.532,-6.4743,-6.4938,-6.4604,-6.3986,-6.3901,-6.3905,0.0,0.0,0.0,0.0,0.0,0.0,0.0,-6.2208,-6.2267,-6.2267,-6.2267,-6.213,-6.1971,-6.1971,-6.1835,-6.1698,-6.1698,-6.1698,-6.1698,-6.1698,-6.1991,-6.2267,-6.2267,-6.2267,-6.2462,-6.3145,-6.3282,0.0,0.0,0.0,0.0,0.0,0.0,0.0,0.0,0.0,0.0,0.0,0.0,0.0,0.0,0.0,0.0,0.0,0.0,0.0,-6.6795,-6.6971,-6.74,-6.8083,-6.8474,-6.9352,0.0,-7.0894,-7.1343,-7.2007,-7.2007,-7.2007,-7.2007,-7.2007,-7.2007,-7.2007,-7.2007,-7.2007,-7.2007,-7.2007,-7.2007,-7.2007,-7.2007,-7.2007,-7.2007,0.0,0.0,0.0,0.0,0.0,0.0,0.0,0.0,0.0,0.0,0.0,0.0,0.0,0.0,0.0,0.0,0.0,0.0,0.0,0.0,-6.5394,-6.5394,-6.5394,-6.5394,-6.5394,-6.5394,-6.5394,-6.5394,-6.5394,-6.5394,-6.5394,-6.5394,-6.5394,-6.5394,-6.5394,-6.5469,-6.558,-6.5856,-6.5793,-6.549,-6.58,-6.5684,-6.5295,-6.4954,-6.4844,-6.4765,-6.3921,0.0,0.0,0.0,0.0,0.0,0.0,0.0,-6.1698,-6.1698,-6.1698,-6.1698,-6.1698,-6.1698,-6.1698,-6.1698,-6.1698,-6.1698,-6.1698,-6.1698,-6.1698,-6.1698,-6.1698,-6.1835,-6.2286,0.0,0.0,0.0,0.0,0.0,0.0,0.0,0.0,0.0,0.0,0.0,0.0,0.0,0.0,0.0,0.0,0.0,0.0,-6.6795,-6.6795,-6.6795,-6.6795,-6.701,-6.7478,-6.7888,-6.8552,-6.9469,-7.0309,-7.1167,-7.2007,-7.2007,-7.2007,-7.2007,-7.2007,-7.2007,-7.2007,-7.2007,-7.2007,-7.2007,-7.2007,-7.2007,-7.2007,-7.2007,-7.2007,-7.2007,0.0,0.0,0.0,0.0,0.0,0.0,0.0,0.0,0.0,0.0,0.0,0.0,0.0,0.0,0.0,0.0,0.0,0.0,0.0,0.0,0.0,-6.5394,-6.5394,-6.5394,-6.5394,-6.5394,-6.5394,-6.5394,-6.5394,-6.5394,-6.5394,-6.5394,-6.5394,-6.5394,-6.5394,-6.5425,-6.5484,-6.5837,-6.6026,-6.61,-6.647,-6.6692,-6.6725,-6.601,-6.5758,-6.5682,-6.4824,-6.3965,-6.3204,-6.3047,0.0,0.0,0.0,0.0,-6.1698,-6.1698,-6.1698,-6.1698,-6.1698,-6.1698,-6.1698,-6.1698,-6.1698,-6.1698,-6.1698,-6.1698,-6.1698,-6.1698,-6.1698,-6.1698,0.0,0.0,0.0,0.0,0.0,0.0,0.0,0.0,0.0,0.0,0.0,0.0,0.0,0.0,0.0,0.0,0.0,0.0,-6.6795,-6.6795,-6.6795,-6.6795,-6.6795,-6.6795,-6.6795,-6.7517,-6.7947,-6.8122,-6.9703,-7.0933,-7.1772,-7.1772,-7.1851,-7.2007,-7.2007,-7.2007,-7.2007,-7.2007,-7.2007,-7.2007,-7.2007,-7.2007,-7.2007,-7.2007,-7.2007,-7.2007,0.0,0.0,0.0,0.0,0.0,0.0,0.0,0.0,0.0,0.0,-6.5394,-6.5394,0.0,0.0,0.0,0.0,0.0,0.0,0.0,0.0,0.0,-6.5394,-6.5394,-6.5394,-6.5394,-6.5394,-6.5394,-6.5394,-6.5394,-6.5394,-6.5394,-6.5394,-6.5394,-6.5394,-6.5394,-6.5513,-6.5671,-6.59,-6.609,-6.6281,-6.6638,-6.6771,-6.6787,-6.6664,-6.6636,-6.6522,-6.5722,-6.4863,-6.4006,-6.3243,-6.2423,0.0,0.0,0.0,-6.1698,-6.1698,-6.1698,-6.1698,-6.1698,-6.1698,-6.1698,-6.1698,-6.1698,-6.1698,-6.1698,-6.1698,-6.1698,0.0,-6.1698,0.0,0.0,0.0,0.0,0.0,0.0,0.0,0.0,0.0,0.0,0.0,0.0,0.0,0.0,0.0,0.0,0.0,0.0,0.0,-6.6756,-6.6795,-6.6795,-6.6795,-6.6795,-6.6795,-6.6795,-6.6912,-6.7342,-6.8103,-6.9098,-7.0035,-7.0875,-7.0875,-7.1285,-7.2007,-7.2007,-7.2007,-7.2007,-7.2007,-7.2007,-7.2007,-7.2007,-7.2007,-7.2007,-7.2007,-7.2007,-7.2007,0.0,0.0,0.0,0.0,0.0,0.0,0.0,0.0,0.0,0.0,0.0,-6.5394,0.0,0.0,0.0,0.0,0.0,0.0,0.0,0.0,0.0,-6.5394,-6.5394,-6.5394,-6.5394,-6.5394,-6.5394,-6.5394,-6.5394,-6.5394,-6.5394,-6.544,-6.544,-6.5394,-6.5394,-6.5532,-6.5769,-6.5936,-6.6163,-6.6419,-6.6702,-6.6798,-6.6798,-6.6792,-6.6795,-6.6756,-6.6405,-6.5741,-6.4902,-6.4023,-6.3145,-6.2345,-6.1854,0.0,0.0,0.0,-6.1698,-6.1698,-6.1698,-6.1698,-6.1698,-6.1698,-6.1698,-6.1698,-6.1698,-6.1698,-6.1698,-6.1698,-6.1698,0.0,0.0,0.0,0.0,0.0,0.0,0.0,0.0,0.0,0.0,0.0,0.0,0.0,0.0,0.0,0.0,0.0,0.0,-6.5741,-6.6112,-6.6561,-6.6795,-6.6795,-6.6795,-6.6795,-6.6795,-6.6795,-6.7244,-6.8103,-6.8493,-6.9137,-6.9996,-7.0484,-7.1187,-7.2007,-7.2007,-7.2007,-7.2007,-7.2007,-7.2007,-7.2007,-7.2007,-7.2007,-7.2007,-7.2007,-7.2007,-7.2007,0.0,0.0,0.0,0.0,0.0,0.0,0.0,0.0,0.0,0.0,0.0,0.0,0.0,0.0,0.0,0.0,0.0,0.0,0.0,0.0,0.0,-6.5394,-6.5394,-6.5394,-6.5394,-6.5394,-6.5394,-6.5394,-6.5394,-6.5394,-6.5394,-6.5454,-6.5469,-6.5425,-6.544,-6.5605,-6.5866,-6.5982,-6.6244,-6.6595,-6.6736,-6.6795,-6.6795,-6.6795,-6.6795,-6.6795,-6.6795,-6.6288,-6.5468,-6.4589,-6.3711,-6.2852,-6.1971,-6.1698,0.0,0.0,0.0,-6.1698,-6.1698,-6.1698,-6.1698,-6.1698,-6.1698,-6.1698,-6.1698,-6.1698,-6.1698,0.0,0.0,0.0,0.0,0.0,0.0,0.0,0.0,0.0,0.0,0.0,0.0,0.0,0.0,0.0,0.0,0.0,0.0,0.0,0.0,-6.5136,-6.5585,-6.617,-6.658,-6.6795,-6.6795,-6.6795,-6.6795,-6.6795,-6.7127,-6.7771,-6.7771,-6.8239,-6.9098,-6.9742,-7.0504,-7.1363,-7.1812,-7.2007,-7.2007,-7.2007,-7.2007,-7.2007,-7.2007,-7.2007,-7.2007,-7.2007,-7.2007,-7.2007,0.0,0.0,0.0,0.0,0.0,0.0,0.0,0.0,0.0,0.0,0.0,0.0,-6.5394,-6.5394,-6.5394,-6.5394,-6.5394,-6.5394,-6.5394,-6.5394,-6.5394,-6.5394,-6.5394,0.0,-6.5394,-6.5394,-6.5394,-6.5394,-6.5394,-6.5394,-6.5394,-6.5394,-6.544,-6.5494,-6.5566,-6.5743,-6.6011,-6.6124,-6.6426,-6.6783,-6.6801,-6.6795,-6.6795,-6.6795,-6.6795,-6.6795,-6.6795,-6.6288,-6.5468,-6.4589,-6.3711,-6.2852,-6.1971,-6.1698,-6.1698,0.0,0.0,0.0,-6.1698,-6.1698,-6.1698,-6.1698,-6.1698,-6.1698,-6.1698,0.0,-6.1698,0.0,0.0,0.0,0.0,0.0,0.0,0.0,0.0,0.0,0.0,0.0,0.0,0.0,0.0,0.0,0.0,0.0,0.0,0.0,0.0,-6.3867,-6.5507,-6.5643,-6.6014,-6.6776,-6.6795,-6.6795,-6.6795,-6.6795,-6.6815,-6.6873,-6.6873,-6.7322,-6.8161,-6.822,-6.8708,-6.9625,-7.1285,-7.2007,-7.2007,-7.2007,-7.2007,-7.2007,-7.2007,-7.2007,-7.2007,-7.2007,-7.2007,-7.2007,0.0,0.0,0.0,0.0,0.0,0.0,0.0,0.0,0.0,0.0,0.0,0.0,0.0,-6.5394,-6.5394,-6.5394,-6.5394,-6.5394,-6.5394,-6.5394,-6.5394,-6.5394,-6.5394,-6.5394,-6.5394,-6.544,-6.545,-6.545,-6.5513,-6.5523,-6.5523,-6.5618,-6.5618,-6.5566,-6.5537,-6.5724,-6.6009,-6.6144,-6.6386,-6.6687,-6.6775,-6.6795,-6.6795,-6.6795,-6.6795,-6.6795,-6.6795,-6.66,-6.6249,-6.5409,-6.455,-6.3672,-6.2813,-6.2149,-6.1698,-6.1698,-6.1698,-6.1698,-6.1698,-6.1698,-6.1698,-6.1698,-6.1698,-6.1698,-6.1698,-6.1698,-6.1698,0.0,0.0,0.0,0.0,0.0,0.0,0.0,0.0,0.0,0.0,0.0,0.0,0.0,0.0,0.0,0.0,0.0,0.0,0.0,0.0,0.0,-6.3906,-6.4999,-6.5722,-6.6014,-6.6522,-6.6795,-6.6795,-6.6795,-6.6795,-6.6795,-6.6795,-6.6951,-6.7283,-6.7849,-6.8279,-6.863,-6.9821,-7.064,-7.1206,-7.1772,-7.2007,-7.2007,-7.2007,-7.2007,-7.2007,-7.2007,-7.2007,-7.2007,0.0,0.0,0.0,0.0,0.0,0.0,0.0,0.0,0.0,-6.5394,0.0,0.0,0.0,0.0,-6.5394,-6.5394,-6.5662,-6.5834,-6.5834,-6.6082,-6.6235,-6.6235,-6.6285,-6.6319,-6.6319,-6.6087,-6.6112,-6.6399,-6.5867,-6.5747,-6.603,-6.5822,-6.5701,-6.5674,-6.5613,-6.5775,-6.607,-6.6198,-6.6406,-6.667,-6.6762,-6.6795,-6.6795,-6.6795,-6.6795,-6.6795,-6.6795,-6.6795,-6.6678,-6.5878,-6.5214,-6.4531,-6.3379,-6.2403,-6.1698,-6.1698,-6.1698,-6.1698,-6.1698,-6.1698,-6.1698,-6.1698,-6.1698,-6.1698,-6.1698,-6.1698,-6.1698,0.0,0.0,0.0,0.0,0.0,0.0,0.0,0.0,0.0,0.0,0.0,0.0,0.0,0.0,0.0,0.0,0.0,0.0,0.0,0.0,0.0,-6.2989,-6.4101,-6.4999,-6.5585,-6.6385,-6.6795,-6.6795,-6.6795,-6.6795,-6.6795,-6.6795,-6.6795,-6.6815,-6.74,-6.7654,-6.7712,-6.8591,-6.9469,-7.0309,-7.0894,-7.1304,-7.1558,-7.1558,-7.1733,-7.1968,-7.1675,-7.1558,-7.1519,0.0,0.0,0.0,0.0,0.0,0.0,0.0,0.0,-6.5394,-6.5394,0.0,0.0,0.0,0.0,0.0,-6.5433,-6.6216,-6.6713,-6.6732,-6.7477,-6.7897,-6.7897,-6.8028,-6.8112,-6.8112,-6.7343,-6.7367,-6.8191,-6.6509,-6.6125,-6.6945,-6.6087,-6.5745,-6.5832,-6.5832,-6.5974,-6.6193,-6.6272,-6.6468,-6.6792,-6.6792,-6.6795,-6.6795,-6.6795,-6.6795,-6.6795,-6.6795,-6.6795,-6.6678,-6.5897,-6.5624,-6.5292,-6.3555,-6.2423,-6.1737,-6.1718,-6.1698,-6.1698,0.0,0.0,0.0,-6.1698,-6.1698,0.0,-6.1698,0.0,-6.1698,0.0,0.0,0.0,0.0,0.0,0.0,0.0,0.0,0.0,0.0,0.0,0.0,0.0,0.0,0.0,0.0,0.0,0.0,0.0,0.0,-6.2071,-6.2911,-6.2989,-6.3789,-6.5507,-6.6346,-6.6756,-6.6756,-6.6795,-6.6795,-6.6795,-6.6795,-6.6795,-6.6795,-6.6795,-6.6795,-6.6854,-6.7693,-6.8532,-6.9333,-6.9372,-6.9899,-7.066,-7.066,-7.1187,-7.1812,-7.0972,-7.066,-7.0543,0.0,0.0,0.0,0.0,0.0,0.0,-6.5394,-6.5394,-6.5394,0.0,0.0,0.0,-6.5394,-6.5394,-6.5643,-6.6292,-6.656,-6.6961,-6.7534,-6.7782,-6.7897,-6.7897,-6.8028,-6.8112,-6.8112,-6.7975,-6.8032,-6.8262,-6.7837,-6.7755,-6.7985,-6.7735,-6.7307,-6.6737,-6.6737,-6.6518,-6.6138,-6.6148,-6.6251,-6.6444,-6.6605,-6.6713,-6.6795,-6.6795,-6.6795,-6.6795,-6.6795,-6.6795,-6.6776,-6.6541,-6.6073,-6.5292,-6.3555,-6.2833,-6.252,-6.1893,-6.1698,-6.1698,-6.1698,0.0,0.0,0.0,0.0,0.0,0.0,0.0,0.0,0.0,0.0,0.0,0.0,0.0,0.0,0.0,0.0,0.0,0.0,0.0,0.0,0.0,0.0,0.0,0.0,0.0,0.0,0.0,-6.1698,-6.1815,-6.2052,-6.2657,-6.3516,-6.4628,-6.5487,-6.5936,-6.5936,-6.6502,-6.6795,-6.6795,-6.6795,-6.6795,-6.6795,-6.6795,-6.6795,-6.6815,-6.7049,-6.7303,-6.7615,-6.8884,-6.9547,-6.9762,-6.9762,-6.9918,-7.0094,-6.984,-6.9762,-6.9723,0.0,0.0,0.0,0.0,0.0,-6.5394,-6.5394,-6.5394,-6.5394,0.0,0.0,0.0,-6.5394,-6.5719,-6.6159,-6.6655,-6.7343,-6.7935,-6.8413,-6.8757,-6.8948,-6.8948,-6.9111,-6.9172,-6.9172,-6.8992,-6.9056,-6.9382,-6.8717,-6.859,-6.8936,-6.8558,-6.8129,-6.7628,-6.7263,-6.687,-6.651,-6.6163,-6.6129,-6.6322,-6.6426,-6.657,-6.6716,-6.6716,-6.6753,-6.6795,-6.6795,-6.6795,-6.6795,-6.6795,-6.6268,-6.5429,-6.4414,-6.3848,-6.336,-6.2501,-6.2247,-6.2169,-6.1796,-6.1698,-6.1698,-6.1698,0.0,0.0,-6.1698,-6.1698,0.0,0.0,0.0,0.0,0.0,0.0,0.0,0.0,0.0,0.0,0.0,0.0,0.0,0.0,0.0,0.0,0.0,0.0,0.0,-6.16,-6.1635,-6.1663,-6.1701,-6.254,-6.3223,-6.3731,-6.4609,-6.5234,-6.5604,-6.6073,-6.6463,-6.6795,-6.6795,-6.6795,-6.6795,-6.6795,-6.6795,-6.6795,-6.6795,-6.6795,-6.6873,-6.7908,-6.8532,-6.8864,-6.8864,-6.9079,-6.9352,-6.8981,-6.8864,-6.8806,0.0,0.0,0.0,-6.5394,-6.5394,-6.5394,-6.5394,-6.5394,-6.5394,0.0,-6.5394,-6.5433,-6.5528,-6.6235,-6.6804,-6.6976,-6.8352,-6.9266,-6.9362,-7.005,-7.0416,-7.0416,-7.0609,-7.0703,-7.0703,-7.0137,-7.0187,-7.0898,-6.9417,-6.9071,-6.9821,-6.9052,-6.8615,-6.8513,-6.7628,-6.7186,-6.7051,-6.6244,-6.6041,-6.6259,-6.6275,-6.6399,-6.6574,-6.659,-6.667,-6.6787,-6.6795,-6.6795,-6.6795,-6.6795,-6.6327,0.0,-6.5624,-6.4999,-6.4143,-6.336,-6.3008,-6.2716,-6.203,-6.1776,-6.1698,-6.1698,-6.1698,0.0,-6.1701,-6.1701,-6.1701,0.0,0.0,0.0,0.0,0.0,0.0,0.0,0.0,0.0,0.0,0.0,0.0,0.0,0.0,0.0,0.0,-6.1448,-6.1439,-6.1481,-6.1552,-6.1621,-6.1692,-6.2425,-6.2852,-6.2852,-6.3691,-6.4531,-6.5292,-6.5507,-6.5956,-6.6678,-6.6756,-6.6795,-6.6795,-6.6795,-6.6795,-6.6795,-6.6795,-6.6795,-6.6795,-6.6795,-6.7264,-6.7966,-6.7966,-6.8435,-6.902,-6.8239,-6.7966,-6.7849,0.0,0.0,-6.5394,-6.5394,-6.5394,-6.5394,-6.5394,-6.5394,-6.5394,-6.5394,-6.5394,-6.5662,-6.6369,-6.6659,-6.732,-6.866,-6.9142,-6.9666,-7.0356,-7.0547,-7.0643,-7.0643,-7.0733,-7.0791,-7.0791,-7.0703,-7.0744,-7.0898,-7.0571,-7.0494,-7.0667,-7.0494,-7.0071,-6.9417,-6.8552,-6.7763,-6.7051,-6.6244,-6.5921,-6.599,-6.6098,-6.6228,-6.6373,-6.6538,-6.6625,-6.6653,-6.6759,-6.6795,-6.6795,-6.6795,-6.6697,-6.6444,0.0,0.0,0.0,-6.4104,-6.3047,-6.2071,-6.2598,-6.2228,-6.1698,0.0,0.0,0.0,-6.1692,-6.1694,-6.1697,0.0,0.0,0.0,0.0,0.0,0.0,0.0,0.0,0.0,0.0,0.0,0.0,0.0,0.0,0.0,0.0,-6.1518,-6.1454,-6.1413,-6.1527,-6.1601,-6.1621,-6.1839,-6.1952,-6.1952,-6.2794,-6.334,-6.3516,-6.4902,-6.5682,-6.5839,-6.6483,-6.6795,-6.6795,-6.6795,-6.6795,-6.6795,-6.6795,-6.6795,-6.6795,-6.6795,-6.6893,-6.7049,-6.7049,-6.7166,-6.7283,-6.7127,-6.7049,-6.7029,-6.5394,-6.5394,-6.5394,-6.5394,-6.5394,-6.5394,-6.5394,-6.5394,-6.5394,-6.5394,-6.5425,-6.5779,-6.6659,-6.7193,-6.8004,-6.9249,-6.9792,-7.0228,-7.0669,-7.0703,-7.0703,-7.0703,-7.0758,-7.0787,-7.0787,-7.0857,-7.0898,-7.0898,-7.0898,-7.0898,-7.0898,-7.0898,-7.0475,-6.9667,-6.8802,-6.7917,-6.7051,-6.6244,-6.5897,-6.591,-6.5967,-6.6119,-6.6302,-6.6413,-6.654,-6.6709,-6.6784,-6.6795,-6.6795,-6.6795,-6.6795,0.0,-6.6327,-6.5897,-6.547,0.0,-6.4336,-6.3555,0.0,0.0,0.0,-6.1815,0.0,0.0,0.0,-6.1701,-6.1705,0.0,0.0,0.0,0.0,0.0,0.0,0.0,0.0,0.0,0.0,0.0,0.0,0.0,0.0,0.0,0.0,-6.1467,-6.1443,-6.1396,-6.1493,-6.1569,-6.1599,-6.1652,-6.1705,-6.1698,-6.213,-6.2559,-6.3008,-6.3867,-6.4511,-6.496,-6.58,-6.619,-6.6229,-6.6619,-6.6795,-6.6795,-6.6795,-6.6795,-6.6795,-6.6795,-6.6795,-6.6795,-6.6795,-6.6795,-6.6795,-6.6795,-6.6795,-6.6795,-6.5425,-6.5409,-6.5394,-6.5409,-6.5409,-6.5394,-6.5394,-6.5394,-6.5394,-6.5425,-6.5484,-6.5853,-6.6715,-6.7496,-6.8345,-6.9323,-7.01,-7.056,-7.0714,-7.0748,-7.0748,-7.0748,-7.0806,-7.0815,-7.0815,-7.0871,-7.0898,-7.0898,-7.0898,-7.0898,-7.0898,-7.0898,-7.0475,-6.9667,-6.8816,-6.7949,-6.7045,-6.6268,-6.5933,-6.5933,-6.5933,-6.6076,-6.6267,-6.6337,-6.6535,-6.6762,-6.6792,-6.6795,-6.6795,-6.6795,-6.6795,-6.6795,-6.6795,-6.6697,0.0,0.0,0.0,0.0,0.0,0.0,0.0,0.0,0.0,-6.1914,0.0,0.0,0.0,0.0,0.0,0.0,0.0,0.0,0.0,0.0,0.0,0.0,0.0,0.0,0.0,0.0,0.0,0.0,0.0,-6.1398,-6.1381,-6.139,-6.1448,-6.1495,-6.155,-6.1658,-6.1696,-6.1703,-6.1703,-6.2035,-6.2735,-6.2911,-6.334,-6.4065,-6.4921,-6.5351,-6.537,-6.619,-6.6561,-6.658,-6.6737,-6.6795,-6.6795,-6.6795,-6.6795,-6.6795,-6.6795,-6.6795,-6.6795,-6.6795,-6.6795,-6.6795,-6.5479,-6.544,-6.5425,-6.5479,0.0,0.0,-6.5394,-6.5394,-6.5425,-6.5479,-6.5494,-6.5848,-6.6801,-6.6988,-6.7707,-6.9351,-6.9695,-7.0121,-7.0832,-7.0871,-7.0871,-7.0871,-7.0885,-7.0885,-7.0885,-7.0898,-7.0898,-7.0898,-7.0898,-7.0898,-7.0898,-7.0898,-7.0475,-6.9681,-6.8903,-6.8043,-6.7058,-6.6367,-6.6086,-6.6086,-6.6086,-6.6098,0.0,-6.6445,-6.659,-6.6644,-6.6756,-6.6795,-6.6795,0.0,-6.6795,-6.6795,0.0,-6.6307,-6.5858,-6.6483,0.0,0.0,0.0,0.0,0.0,0.0,-6.2848,0.0,0.0,0.0,-6.1697,-6.1699,0.0,0.0,0.0,0.0,0.0,0.0,0.0,0.0,0.0,0.0,0.0,0.0,0.0,0.0,0.0,0.0,-6.1304,-6.1304,-6.1369,-6.1417,-6.1428,-6.1599,-6.1704,-6.1696,-6.1696,-6.175,-6.1854,-6.2618,-6.3047,-6.3164,-6.4023,-6.4455,-6.4475,-6.5331,-6.5741,-6.578,-6.6483,-6.6795,-6.6795,-6.6795,-6.6795,-6.6795,-6.6795,-6.6795,-6.6795,-6.6795,-6.6795,-6.6795,-6.5509,-6.5509,-6.5494,-6.5454,0.0,0.0,-6.5469,-6.5479,-6.5542,-6.5552,-6.5632,-6.6192,-6.7557,-6.7752,-6.8452,-7.0151,-7.0365,-7.0533,0.0,-7.0898,-7.0898,-7.0898,-7.0898,-7.0898,-7.0898,-7.0898,-7.0898,-7.0898,-7.0898,-7.0898,-7.0898,-7.0898,-7.0206,-6.895,-6.8706,-6.7834,-6.6502,-6.6293,-6.6219,0.0,0.0,-6.639,0.0,-6.6558,-6.6648,-6.672,-6.6787,-6.6795,-6.6795,0.0,-6.6795,0.0,0.0,0.0,0.0,-6.6697,0.0,0.0,0.0,0.0,0.0,0.0,0.0,0.0,-6.2419,0.0,-6.1699,0.0,0.0,0.0,0.0,0.0,0.0,0.0,0.0,0.0,0.0,0.0,0.0,0.0,0.0,0.0,0.0,0.0,0.0,0.0,0.0,-6.1348,-6.1404,-6.1559,-6.166,-6.1705,-6.1705,-6.1701,-6.1692,-6.2063,-6.2254,-6.2267,-6.3125,-6.3555,-6.3574,-6.4453,-6.4843,-6.4882,-6.5741,-6.6092,-6.6131,-6.66,-6.6795,-6.6795,-6.6795,-6.6795,-6.6795,-6.6795,-6.6795,-6.6795,-6.5599,-6.558,-6.5566,-6.5469,-6.5513,-6.5523,-6.5523,-6.5613,-6.5655,-6.5655,-6.5734,-6.6268,-6.7524,-6.7672,-6.8371,-7.0071,-7.0206,-7.0417,0.0,-7.0898,-7.092,-7.0979,-7.092,-7.0939,-7.0979,-7.092,-7.0898,-7.0898,-7.0898,-7.0898,-7.0898,-7.0898,-7.0034,-6.8455,-6.8601,-6.7736,-6.6167,-6.6326,-6.6373,-6.6386,-6.6538,-6.661,-6.6653,-6.6653,-6.6713,-6.6795,-6.6795,-6.6795,-6.6795,-6.6795,-6.6795,0.0,-6.6795,0.0,0.0,0.0,0.0,0.0,-6.6092,0.0,0.0,0.0,0.0,0.0,0.0,0.0,0.0,0.0,0.0,0.0,0.0,0.0,-6.1621,-6.1387,0.0,-6.1621,0.0,0.0,0.0,0.0,0.0,0.0,0.0,0.0,0.0,-6.1384,-6.1349,-6.1351,-6.1448,-6.1551,-6.1658,-6.1693,-6.1692,-6.1709,-6.1701,-6.1701,-6.1696,-6.1705,-6.2349,-6.264,-6.2676,-6.3555,-6.3945,-6.3984,-6.4863,-6.5234,-6.5312,-6.6131,-6.6463,-6.6483,-6.6717,-6.6795,-6.6795,-6.6795,-6.6795,-6.6795,-6.5793,-6.5688,-6.5594,-6.5594,-6.5594,-6.5594,-6.5594,-6.5701,-6.5793,-6.5793,-6.5793,-6.5858,-6.5962,-6.591,-6.6569,-6.8327,-6.8494,-6.9167,-7.0783,0.0,-7.0979,-7.1173,-7.1005,-7.0992,-7.1203,-7.1005,-7.0898,-7.0898,-7.0898,-7.0898,-7.0898,-7.0898,-7.0067,-6.8592,-6.8797,-6.793,-6.6314,-6.6515,-6.6585,-6.6585,-6.659,-6.667,-6.6792,0.0,-6.6795,-6.6795,-6.6795,0.0,0.0,-6.6795,-6.6795,0.0,0.0,0.0,0.0,0.0,0.0,0.0,0.0,0.0,0.0,-6.5747,0.0,0.0,0.0,0.0,-6.2969,0.0,0.0,0.0,0.0,-6.1699,-6.1426,-6.0586,-6.1152,0.0,0.0,0.0,0.0,0.0,0.0,0.0,0.0,0.0,0.0,-6.1383,-6.1408,-6.1452,-6.1581,-6.1655,-6.1699,-6.1697,-6.1697,-6.1695,-6.1708,-6.1708,-6.1705,-6.1697,-6.1737,-6.1731,-6.1776,-6.2637,-6.3047,-6.3086,-6.3965,-6.4338,-6.4416,-6.5273,-6.5643,-6.5722,-6.6502,-6.6795,-6.6795,-6.6795,-6.6795,-6.6795,-6.5859,-6.5827,-6.5755,-6.5622,-6.5655,-6.5734,0.0,-6.582,0.0,0.0,-6.5859,0.0,0.0,-6.6673,-6.7122,0.0,0.0,-6.8648,-6.9206,-6.9263,0.0,-6.9482,-6.9887,-7.0183,0.0,0.0,-7.0898,-7.0898,-7.0898,-7.0898,-7.0879,-7.0451,-6.9656,-6.8594,-6.8338,-6.7599,-6.6501,-6.667,-6.6723,0.0,0.0,-6.6759,-6.6795,0.0,0.0,-6.6795,-6.6795,-6.6795,0.0,-6.6795,-6.6795,-6.6795,-6.6795,-6.6795,-6.6795,-6.6795,-6.6795,0.0,0.0,0.0,-6.6089,-6.6374,0.0,0.0,0.0,0.0,0.0,0.0,0.0,0.0,0.0,-6.1699,-6.1601,-6.1308,-6.1504,-6.1601,0.0,0.0,0.0,0.0,0.0,0.0,0.0,0.0,0.0,-6.1408,-6.1393,-6.1456,0.0,-6.1618,-6.1653,-6.1699,-6.1699,-6.1698,-6.1695,-6.1695,-6.1693,-6.1705,-6.1701,-6.1696,-6.1711,-6.2015,-6.2149,-6.2189,-6.3067,-6.3438,-6.3516,-6.4375,-6.4746,-6.4824,-6.5663,-6.6014,-6.6073,-6.66,-6.6795,-6.6795,-6.5897,-6.5897,-6.584,-6.5701,-6.5734,-6.5807,0.0,0.0,0.0,0.0,-6.5897,0.0,-6.6609,0.0,-6.7092,0.0,-6.81,-6.8228,-6.8461,-6.8544,0.0,-6.8704,-6.9151,-6.9482,0.0,0.0,0.0,0.0,-7.09,-7.0881,-7.0637,-7.0202,-6.9421,-6.833,-6.8034,-6.7448,-6.667,-6.6759,-6.6795,0.0,0.0,-6.6795,0.0,0.0,-6.6795,-6.6795,0.0,-6.6795,-6.6795,-6.6795,-6.6795,-6.6795,-6.6795,-6.6795,-6.6795,-6.6795,-6.6795,-6.6795,-6.6795,-6.6414,0.0,-6.6745,-6.6068,0.0,-6.5937,0.0,0.0,0.0,0.0,0.0,0.0,0.0,-6.1699,-6.1699,-6.1699,-6.1699,0.0,-6.1699,0.0,0.0,0.0,0.0,0.0,0.0,-6.1426,-6.1479,-6.1463,-6.1514,0.0,0.0,-6.1653,-6.1699,-6.1699,-6.1699,-6.1698,-6.1698,-6.1697,-6.1693,-6.1709,-6.1705,-6.1702,-6.1692,-6.1705,-6.1725,-6.2288,-6.254,-6.2618,-6.3477,-6.3848,-6.3926,-6.4804,-6.5331,-6.5702,-6.6502,-6.6795,-6.6795,0.0,-6.5897,-6.5885,-6.5807,-6.5793,0.0,0.0,0.0,-6.5897,0.0,-6.5897,-6.591,-6.5903,-6.6019,-6.6437,-6.7259,-6.745,-6.7806,-6.843,-6.8672,0.0,0.0,-6.8812,-6.89,-6.9045,0.0,0.0,0.0,0.0,-7.0748,-7.0125,-7.0094,-6.9303,-6.7909,-6.7856,-6.7469,-6.6795,-6.6795,-6.6795,-6.6795,-6.6795,-6.6795,-6.6795,-6.6795,-6.6795,-6.6795,-6.6795,-6.6795,-6.6795,-6.6795,-6.6795,-6.6795,-6.6795,-6.6795,-6.6795,-6.6795,-6.6795,-6.6795,-6.6795,-6.6805,-6.6815,-6.6881,0.0,0.0,0.0,0.0,-6.543,0.0,0.0,0.0,0.0,0.0,-6.1719,-6.1758,-6.1738,-6.1699,-6.1699,0.0,0.0,0.0,0.0,0.0,0.0,-6.1422,-6.1456,-6.1581,-6.1605,-6.1623,0.0,0.0,-6.1699,-6.1699,-6.1699,-6.1699,-6.1699,-6.1699,-6.1699,-6.1697,-6.1697,-6.1695,-6.1709,-6.1702,-6.1699,-6.1697,-6.1705,-6.1701,-6.1759,-6.2598,-6.293,-6.3028,-6.3906,-6.4765,-6.5643,-6.6483,-6.6795,-6.6795,-6.5916,-6.5897,-6.5897,0.0,-6.5872,-6.5885,0.0,0.0,0.0,0.0,-6.5897,-6.5933,-6.6041,-6.6077,-6.6225,-6.6545,-6.6613,0.0,0.0,0.0,0.0,-6.7189,-6.7668,-6.8025,-6.8202,-6.8824,-6.9181,-6.9231,0.0,-6.9403,-6.9212,-6.8728,-6.8291,-6.7876,-6.7329,-6.6977,-6.6795,-6.6795,-6.6795,-6.6795,-6.6795,-6.6795,0.0,0.0,-6.6795,-6.6795,-6.6795,-6.6795,-6.6795,-6.6795,-6.6795,-6.6795,-6.6795,-6.6795,-6.6795,-6.6795,-6.6795,-6.6795,-6.6795,-6.685,-6.6881,-6.6902,-6.6891,-6.6894,0.0,0.0,0.0,0.0,0.0,0.0,0.0,0.0,0.0,-6.2558,-6.2129,-6.1699,-6.1699,0.0,0.0,-6.1699,0.0,0.0,0.0,-6.1543,-6.1551,-6.1603,-6.1605,0.0,0.0,0.0,0.0,-6.1699,-6.1699,-6.1699,-6.1699,-6.1699,-6.1699,-6.1699,-6.1698,-6.1697,-6.1695,-6.1709,-6.1707,-6.1705,-6.1697,-6.1694,-6.1713,-6.1937,-6.203,-6.213,-6.2989,-6.3867,-6.4804,-6.6268,-6.6795,-6.6795,-6.6088,0.0,0.0,-6.6013,0.0,0.0,-6.5916,-6.5897,0.0,-6.5897,-6.5938,0.0,-6.6098,-6.6221,-6.6353,-6.6419,-6.6482,0.0,-6.6432,0.0,0.0,-6.659,-6.7027,-6.7302,-6.7415,-6.8104,0.0,-6.855,0.0,-6.8845,-6.8536,-6.8169,-6.7785,-6.7395,-6.6996,-6.6795,-6.6795,-6.6795,-6.6795,-6.6795,-6.6795,0.0,0.0,-6.6795,-6.6795,-6.6795,-6.6795,-6.6795,-6.6795,-6.6795,-6.6795,-6.6795,-6.6795,-6.6795,-6.6795,-6.6795,-6.6795,-6.6795,-6.6795,-6.6852,-6.6904,-6.6904,-6.6892,-6.6894,-6.6894,-6.6894,-6.664,0.0,0.0,0.0,0.0,0.0,0.0,-6.2988,-6.2265,-6.1699,0.0,0.0,0.0,0.0,-6.1699,0.0,0.0,0.0,-6.1624,-6.1605,0.0,0.0,0.0,0.0,0.0,-6.1699,-6.1699,-6.1699,-6.1699,-6.1699,-6.1699,-6.1699,-6.1699,-6.1698,-6.1698,-6.1695,-6.1694,-6.1693,-6.1707,-6.1701,-6.1697,-6.1692,-6.1705,-6.1796,-6.2657,-6.3301,-6.3887,-6.5214,-6.5956,-6.6288,0.0,0.0,0.0,0.0,0.0,0.0,0.0,-6.5946,0.0,-6.5938,0.0,-6.6138,-6.6167,-6.6438,-6.662,-6.661,0.0,-6.6753,-6.6639,-6.6746,-6.6753,-6.6639,-6.6746,-6.6795,-6.6795,-6.7434,-6.7801,0.0,0.0,-6.8507,-6.7927,-6.7927,-6.7537,-6.6795,-6.6795,-6.6795,0.0,-6.6795,-6.6795,-6.6795,-6.6795,-6.6795,-6.6795,-6.6795,-6.6795,-6.6795,-6.6795,-6.6795,-6.6795,-6.6795,-6.6795,-6.6795,-6.6795,-6.6795,-6.6795,-6.6795,-6.6795,-6.6795,-6.6795,-6.6852,-6.6904,-6.6904,-6.6892,-6.6894,-6.6894,-6.6894,-6.6699,-6.5937,-6.5683,-6.5176,0.0,0.0,0.0,-6.3144,0.0,0.0,0.0,0.0,0.0,0.0,0.0,0.0,0.0,0.0,0.0,0.0,0.0,0.0,0.0,0.0,0.0,-6.1699,-6.1699,0.0,-6.1699,0.0,-6.1699,-6.1699,-6.1699,-6.1699,-6.1699,-6.1698,-6.1698,-6.1697,-6.1693,-6.1707,-6.1701,-6.1699,-6.1692,-6.1776,-6.254,-6.2833,-6.2911,-6.3672,-6.4511,-6.5273,0.0,0.0,0.0,0.0,0.0,-6.6243,-6.6088,-6.6157,-6.6217,-6.6217,-6.6251,-6.6341,-6.6497,-6.6569,-6.6648,-6.6756,-6.679,0.0,0.0,0.0,0.0,-6.6762,-6.679,-6.6795,-6.6795,-6.6921,-6.6999,0.0,0.0,0.0,-6.7029,-6.7029,-6.6951,-6.6795,-6.6795,-6.6795,-6.6795,-6.6795,0.0,-6.6795,-6.6795,-6.6795,-6.6795,-6.6795,-6.6795,-6.6795,-6.6795,-6.6795,-6.6795,-6.6795,-6.6795,-6.6795,-6.6795,-6.6795,-6.6795,-6.6795,-6.6795,-6.6795,-6.6795,-6.6852,-6.6904,-6.6904,-6.6892,-6.6894,-6.6894,-6.6894,-6.6855,-6.6699,-6.6094,-6.5723,-6.6133,0.0,0.0,0.0,0.0,0.0,0.0,0.0,0.0,0.0,0.0,0.0,0.0,0.0,0.0,0.0,0.0,0.0,0.0,0.0,0.0,0.0,0.0,0.0,0.0,0.0,-6.1699,-6.1699,-6.1699,-6.1699,-6.1699,-6.1699,-6.1699,-6.1699,-6.1697,-6.1696,-6.1695,-6.1704,-6.1692,-6.1718,-6.1874,-6.1932,-6.1952,-6.211,-6.2716,-6.3555,0.0,0.0,-6.6524,0.0,0.0,0.0,0.0,-6.6464,0.0,-6.6317,-6.6379,-6.6489,-6.6585,-6.6661,-6.6723,-6.6795,-6.6795,-6.6795,-6.6795,-6.6795,-6.6795,-6.6795,-6.6795,-6.6795,-6.6795,-6.6795,-6.6795,-6.6795,0.0,0.0,-6.6795,-6.6795,-6.6795,-6.6795,-6.6795,-6.6795,0.0,0.0,0.0,-6.6795,-6.6795,-6.6795,-6.6795,-6.6795,-6.6795,-6.6795,-6.6795,-6.6795,-6.6795,-6.6795,-6.6795,-6.6795,-6.6795,-6.6795,-6.6795,-6.6795,-6.6795,-6.6795,-6.6795,-6.6852,-6.6904,-6.6904,-6.6892,-6.6894,-6.6894,-6.6894,-6.6894,-6.6894,-6.6562,-6.6406,-6.6816,-6.5488,0.0,0.0,0.0,0.0,0.0,0.0,0.0,0.0,0.0,0.0,0.0,0.0,0.0,0.0,0.0,0.0,0.0,0.0,0.0,0.0,0.0,0.0,0.0,0.0,0.0,-6.1699,-6.1699,-6.1699,-6.1699,-6.1699,-6.1699,-6.1699,-6.1699,-6.1698,-6.1697,-6.1705,-6.1696,-6.1709,-6.1703,-6.1698,-6.1698,-6.1698,-6.1971,-6.2442,0.0,-6.6795,0.0,0.0,-6.6713,0.0,-6.6629,-6.6713,-6.67,-6.6438,-6.6535,-6.6644,-6.6644,-6.6746,-6.6795,-6.6795,-6.6795,-6.6795,-6.6795,-6.6795,-6.6795,-6.6795,-6.6795,-6.6795,-6.6795,-6.6795,-6.6795,0.0,0.0,0.0,0.0,-6.6795,0.0,0.0,0.0,0.0,0.0,0.0,-6.6795,-6.6795,-6.6795,-6.6795,-6.6795,-6.6795,-6.6795,-6.6795,-6.6795,-6.6795,-6.6795,-6.6795,-6.6795,-6.6795,-6.6795,-6.6795,-6.6795,-6.6795,-6.6795,-6.6795,-6.6795,-6.6852,-6.6904,-6.6904,-6.6892,-6.6894,-6.6894,-6.6894,-6.6894,-6.6894,-6.6894,-6.6894,-6.6894,-6.5488,0.0,0.0,0.0,0.0,0.0,0.0,0.0,0.0,0.0,0.0,0.0,0.0,0.0,0.0,0.0,0.0,0.0,0.0,0.0,0.0,0.0,-6.1699,-6.1678,0.0,-6.1699,0.0,-6.1699,-6.1699,-6.1699,-6.1699,-6.1699,-6.1699,-6.1699,-6.1699,-6.1697,-6.1708,-6.1701,-6.1697,-6.1707,-6.1701,-6.1698,-6.1698,-6.1698,-6.1796,0.0,0.0,0.0,0.0,0.0,0.0,-6.6629,-6.6713,-6.6792,-6.6762,-6.6765,-6.6787,-6.6787,-6.6792,-6.6795,-6.6795,-6.6795,-6.6795,-6.6795,-6.6795,-6.6795,-6.6795,-6.6795,-6.6795,-6.6795,-6.6795,-6.6795,0.0,0.0,-6.6795,0.0,0.0,0.0,0.0,0.0,0.0,0.0,-6.6795,-6.6795,-6.6795,-6.6795,-6.6795,-6.6795,-6.6795,-6.6795,-6.6795,-6.6795,-6.6795,-6.6795,-6.6795,-6.6795,-6.6795,-6.6795,-6.6795,-6.6795,-6.6795,-6.6795,-6.6795,-6.6795,-6.6852,-6.6904,-6.6904,-6.6892,-6.6894,-6.6894,-6.6894,-6.6894,-6.6894,-6.6894,-6.6894,-6.6894,-6.5488,-6.4551,0.0,0.0,0.0,0.0,0.0,-6.1699,-6.1699,0.0,0.0,0.0,0.0,0.0,0.0,0.0,0.0,0.0,0.0,0.0,-6.1612,0.0,-6.1677,-6.1612,-6.1677,0.0,-6.1699,-6.1699,-6.1699,-6.1699,-6.1699,-6.1699,-6.1699,-6.1699,-6.1699,-6.1697,-6.1696,-6.1691,-6.1697,-6.1697,-6.1709,-6.1698,-6.1698,-6.1698,-6.1718,0.0,0.0,0.0,0.0,0.0,0.0,0.0,-6.6762,-6.6795,-6.6795,-6.6795,-6.6795,-6.6795,-6.6795,-6.6795,-6.6795,-6.6795,-6.6795,-6.6795,-6.6795,-6.6795,-6.6795,-6.6795,-6.6795,-6.6795,-6.6795,-6.6795,0.0,0.0,0.0,0.0,0.0,0.0,0.0,0.0,-6.6795,-6.6795,-6.6795,-6.6795,-6.6795,-6.6795,-6.6795,-6.6795,-6.6795,-6.6795,-6.6795,-6.6795,-6.6795,-6.6795,-6.6795,-6.6795,-6.6795,-6.6795,-6.6795,-6.6795,-6.6795,-6.6795,-6.6798,-6.6805,-6.6856,-6.6904,-6.6908,-6.6893,-6.6894,-6.6894,-6.6894,-6.6894,-6.6894,-6.6894,-6.6894,-6.6894,-6.6328,-6.5625,0.0,0.0,0.0,0.0,0.0,0.0,-6.1699,0.0,-6.1699,0.0,0.0,0.0,0.0,0.0,0.0,0.0,0.0,0.0,-6.1655,0.0,-6.1698,-6.1655,-6.1698,-6.1699,-6.1699,-6.1699,-6.1699,-6.1699,-6.1699,-6.1699,-6.1699,-6.1699,-6.1699,-6.1699,-6.1698,-6.1694,-6.1704,-6.1699,-6.1692,-6.1698,-6.1698,-6.1698,-6.1698,-6.6795,0.0,-6.6795,0.0,-6.6795,-6.6795,-6.6795,-6.6795,-6.6795,-6.6795,-6.6795,-6.6795,-6.6795,-6.6795,-6.6795,-6.6795,-6.6795,-6.6795,-6.6795,-6.6795,-6.6795,-6.6795,-6.6795,0.0,-6.6795,-6.6795,-6.6795,-6.6795,-6.6795,0.0,0.0,0.0,0.0,0.0,-6.6795,-6.6795,-6.6795,-6.6795,-6.6795,-6.6795,-6.6795,-6.6795,-6.6795,-6.6795,-6.6795,-6.6795,-6.6795,-6.6795,-6.6795,-6.6795,-6.6795,-6.6795,-6.6795,-6.6795,-6.6795,-6.6795,-6.6795,-6.6798,-6.6805,-6.6856,-6.6904,-6.6908,-6.6893,-6.6894,-6.6894,-6.6894,-6.6894,-6.6894,-6.6894,-6.6894,-6.6894,-6.6699,-6.6113,-6.4883,0.0,0.0,0.0,0.0,0.0,0.0,-6.1699,-6.1699,-6.1699,0.0,0.0,0.0,0.0,0.0,0.0,0.0,0.0,0.0,0.0,0.0,0.0,-6.1699,-6.1699,-6.1699,-6.1699,-6.1699,-6.1699,-6.1699,-6.1699,-6.1699,-6.1699,-6.1699,-6.1699,-6.1698,-6.1696,-6.1692,-6.1707,-6.1699,-6.1709,-6.1705,-6.1705,-6.1705,-6.6795,-6.6795,-6.6795,-6.6795,-6.6795,-6.6795,-6.6795,-6.6795,-6.6795,-6.6795,-6.6795,-6.6795,-6.6795,-6.6795,-6.6795,-6.6795,-6.6795,-6.6795,-6.6795,-6.6795,-6.6795,0.0,0.0,-6.6795,-6.6795,-6.6795,-6.6795,-6.6795,0.0,0.0,-6.6795,0.0,-6.6795,-6.6795,-6.6795,-6.6795,-6.6795,-6.6795,-6.6795,-6.6795,-6.6795,-6.6795,-6.6795,-6.6795,-6.6795,-6.6795,-6.6795,-6.6795,-6.6795,-6.6795,-6.6795,-6.6795,-6.6795,-6.6795,-6.6795,-6.6795,-6.6795,-6.6795,-6.6798,-6.6852,-6.6904,-6.6904,-6.6892,-6.6894,-6.6894,-6.6894,-6.6894,-6.6894,-6.6894,-6.6894,-6.6894,-6.6191,-6.5605,-6.5586,0.0,0.0,0.0,0.0,0.0,-6.1699,-6.1699,-6.1699,-6.1699,0.0,0.0,0.0,0.0,0.0,0.0,0.0,0.0,-6.1607,-6.1675,0.0,-6.1605,-6.1676,-6.1699,-6.1699,-6.1699,-6.1699,-6.1699,-6.1699,-6.1699,-6.1699,-6.1699,-6.1699,-6.1699,-6.1699,-6.1699,-6.1697,-6.1697,-6.1695,-6.1708,-6.1701,-6.1697,-6.1696,-6.6795,-6.6795,-6.6795,-6.6795,-6.6795,-6.6795,-6.6795,-6.6795,-6.6795,-6.6795,-6.6795,-6.6795,-6.6795,-6.6795,-6.6795,0.0,-6.6795,-6.6795,0.0,-6.6795,-6.6795,-6.6795,-6.6795,-6.6795,-6.6795,-6.6795,-6.6795,-6.6795,0.0,0.0,0.0,-6.6795,-6.6795,-6.6795,-6.6795,-6.6795,-6.6795,-6.6795,-6.6795,-6.6795,-6.6795,-6.6795,-6.6795,-6.6795,-6.6795,-6.6795,-6.6795,-6.6795,-6.6795,-6.6795,-6.6795,-6.6795,-6.6795,-6.6795,-6.6795,-6.6795,-6.6795,-6.682,-6.6854,-6.688,-6.6905,-6.6892,-6.6894,-6.6894,-6.6894,-6.6894,-6.6894,-6.6894,-6.6894,-6.6894,-6.6894,-6.668,-6.6094,-6.4902,-6.4258,0.0,0.0,0.0,0.0,0.0,-6.1699,-6.1699,0.0,-6.1699,0.0,0.0,0.0,0.0,0.0,0.0,0.0,0.0,-6.1699,0.0,-6.1676,-6.1699,-6.1699,-6.1699,-6.1699,-6.1699,-6.1699,-6.1699,-6.1699,-6.1699,-6.1699,-6.1699,-6.1699,-6.1699,-6.1699,-6.1697,-6.1697,-6.1695,-6.1708,-6.1707,-6.1705,-6.1705,-6.6795,-6.6795,-6.6795,-6.6795,-6.6795,-6.6795,-6.6795,-6.6795,-6.6795,-6.6795,-6.6795,-6.6795,-6.6795,-6.6795,0.0,-6.6795,-6.6795,-6.6795,-6.6795,-6.6795,-6.6795,-6.6795,-6.6795,-6.6795,-6.6795,0.0,0.0,-6.6795,-6.6795,-6.6795,-6.6795,-6.6795,-6.6795,-6.6795,-6.6795,-6.6795,-6.6795,-6.6795,-6.6795,-6.6795,-6.6795,-6.6795,-6.6795,-6.6795,-6.6795,-6.6795,-6.6795,-6.6795,-6.6795,-6.6795,-6.6795,-6.6795,-6.6795,-6.6795,-6.6795,-6.6795,-6.6795,-6.68,-6.6856,-6.6881,-6.6906,-6.6893,-6.6894,-6.6894,-6.6894,-6.6894,-6.6894,-6.6894,-6.6894,-6.6894,-6.6894,-6.6894,-6.6328,-6.457,-6.4297,-6.3691,-6.1953,0.0,0.0,0.0,0.0,0.0,0.0,-6.1699,0.0,0.0,0.0,0.0,0.0,0.0,0.0,-6.1699,-6.1699,0.0,-6.1699,-6.1699,-6.1699,-6.1699,-6.1699,-6.1699,-6.1699,-6.1699,-6.1699,-6.1699,-6.1699,-6.1699,-6.1699,-6.1699,-6.1699,-6.1698,-6.1698,-6.1697,-6.1695,-6.1694,-6.1693,-6.1692,-6.6795,-6.6795,0.0,0.0,-6.6795,0.0,-6.6795,-6.6795,-6.6795,-6.6795,-6.6795,-6.6795,-6.6795,-6.6795,-6.6795,-6.6795,0.0,0.0,0.0,-6.6795,-6.6795,-6.6795,-6.6795,-6.6795,-6.6795,-6.6795,-6.6795,-6.6795,-6.6795,-6.6795,-6.6795,-6.6795,-6.6795,-6.6795,-6.6795,-6.6795,-6.6795,-6.6795,-6.6795,-6.6795,-6.6795,-6.6795,-6.6795,-6.6795,-6.6795,-6.6795,-6.6795,-6.6795,-6.6795,-6.6795,-6.6795,-6.6795,-6.6795,-6.6795,-6.6795,-6.6795,-6.6798,-6.68,-6.6811,-6.6859,-6.6905,-6.6891,-6.6894,-6.6894,-6.6894,-6.6894,-6.6894,-6.6894,-6.6894,-6.6894,-6.6894,-6.6894,-6.6328,-6.457,-6.4297,-6.3691,-6.1953,0.0,0.0,0.0,0.0,0.0,0.0,-6.1699,-6.1699,0.0,0.0,0.0,0.0,0.0,-6.1699,-6.1699,-6.1699,-6.1699,-6.1699,-6.1699,-6.1699,-6.1699,-6.1699,-6.1699,-6.1699,-6.1699,-6.1699,-6.1699,-6.1699,-6.1699,-6.1699,-6.1699,-6.1699,-6.1699,-6.1699,-6.1699,-6.1699,-6.1698,-6.1697,-6.1697,0.0,0.0,-6.6795,-6.6795,-6.6795,-6.6795,-6.6795,-6.6795,-6.6795,-6.6795,-6.6795,-6.6795,-6.6795,-6.6795,-6.6795,-6.6795,-6.6795,-6.6795,-6.6795,-6.6795,-6.6795,-6.6795,-6.6795,-6.6795,-6.6795,-6.6795,-6.6795,-6.6795,-6.6795,-6.6795,-6.6795,-6.6795,-6.6795,-6.6795,-6.6795,-6.6795,-6.6795,-6.6795,-6.6795,-6.6795,-6.6795,-6.6795,-6.6795,-6.6795,-6.6795,-6.6795,-6.6795,-6.6795,-6.6795,-6.6795,-6.6795,-6.6795,-6.6795,-6.6795,-6.6795,-6.6795,-6.6802,-6.6811,-6.6859,-6.6887,-6.6891,-6.6894,-6.6894,-6.6894,-6.6894,-6.6894,-6.6894,-6.6894,-6.6894,-6.6894,-6.6894,-6.6894,-6.6328,-6.457,-6.4297,-6.3691,-6.1953,-6.1699,0.0,0.0,-6.1699,-6.1699,-6.1699,-6.1699,-6.1699,0.0,0.0,0.0,0.0,-6.1699,-6.1699,-6.1699,-6.1699,-6.1699,-6.1699,-6.1699,-6.1699,-6.1699,-6.1699,-6.1699,-6.1699,-6.1699,-6.1699,-6.1699,-6.1699,-6.1699,-6.1699,-6.1699,-6.1699,-6.1699,-6.1699,-6.1699,-6.1699,-6.1699,-6.1699,-6.1699,-6.6795,-6.6795,-6.6795,-6.6795,-6.6795,-6.6795,-6.6795,-6.6795,-6.6795,-6.6795,-6.6795,-6.6795,-6.6795,-6.6795,-6.6795,-6.6795,-6.6795,-6.6795,-6.6795,-6.6795,-6.6795,-6.6795,-6.6795,-6.6795,-6.6795,-6.6795,-6.6795,-6.6795,-6.6795,-6.6795,-6.6795,-6.6795,-6.6795,-6.6795,-6.6795,-6.6795,-6.6795,-6.6795,-6.6795,-6.6795,-6.6795,-6.6795,-6.6795,-6.6795,-6.6795,-6.6795,-6.6795,-6.6561,-6.6249,-6.6249,-6.5995,-6.5665,-6.5665,-6.5665,-6.5741,-6.6131,-6.6507,-6.6809,-6.688,-6.6906,-6.689,-6.6894,-6.6894,-6.6894,-6.6894,-6.6894,-6.6894,-6.6894,-6.6894,-6.6894,-6.6894,-6.6562,-6.5879,-6.4512,-6.3965,-6.3242,-6.1894,-6.1699,0.0,-6.1699,-6.1699,-6.1699,-6.1699,-6.1699,-6.1699,-6.1699,0.0,0.0,-6.1699,-6.1699,-6.1699,-6.1699,-6.1699,-6.1699,-6.1699,-6.1699,-6.1699,-6.1699,-6.1699,-6.1699,-6.1699,-6.1699,-6.1699,-6.1699,-6.1699,-6.1699,-6.1699,-6.1699,-6.1699,-6.1699,-6.1699,-6.1699,-6.1699,-6.1699,-6.1699,-6.1699,-6.6795,-6.6795,-6.6795,-6.6795,-6.6795,-6.6795,-6.6795,-6.6795,-6.6795,-6.6795,-6.6795,-6.6795,-6.6795,-6.6795,-6.6795,-6.6795,-6.6795,-6.6795,-6.6795,-6.6795,-6.6795,-6.6795,-6.6795,-6.6795,-6.6795,-6.6795,-6.6795,-6.6795,-6.6795,-6.6795,-6.6795,-6.6795,-6.6795,-6.6795,-6.6795,-6.6795,-6.6795,-6.6795,-6.6795,-6.6795,-6.6795,-6.6737,-6.6619,-6.6619,-6.6541,-6.6424,-6.6424,-6.5975,-6.5409,-6.5409,-6.4902,-6.4299,-6.4301,-6.4301,-6.4458,-6.5199,-6.5883,-6.6492,-6.6802,-6.6905,-6.6908,-6.6894,-6.6894,-6.6894,-6.6894,-6.6894,-6.6894,-6.6894,-6.6894,-6.6855,-6.6738,-6.6094,-6.5312,-6.4433,-6.3574,-6.2734,-6.1992,0.0,-6.1699,-6.1699,-6.1699,-6.1699,-6.1699,-6.1699,-6.1699,-6.1699,-6.1699,-6.1699,0.0,-6.1699,-6.1699,-6.1699,-6.1699,-6.1699,-6.1699,-6.1699,-6.1699,-6.1699,-6.1699,-6.1699,-6.1699,-6.1699,-6.1699,-6.1699,-6.1699,-6.1699,-6.1699,-6.1699,-6.1699,-6.1699,-6.1699,-6.1699,-6.1699,-6.1699,-6.1699,-6.1699,-6.6795,-6.6795,-6.6795,-6.6795,-6.6795,-6.6795,-6.6795,-6.6795,-6.6795,-6.6795,-6.6795,-6.6795,-6.6795,-6.6795,-6.6795,-6.6795,-6.6795,-6.6795,-6.6795,-6.6795,-6.6795,-6.6795,-6.6795,-6.6795,-6.6795,-6.6795,-6.6795,-6.6795,-6.6795,-6.6795,-6.6795,-6.6795,-6.6795,-6.6795,-6.6795,-6.6795,-6.6795,-6.6795,-6.6795,-6.6795,-6.6795,-6.6385,-6.58,-6.58,-6.5331,-6.4689,-6.4689,-6.4611,-6.4494,-6.4494,-6.4416,-6.4299,-6.4308,-6.4292,-6.4331,-6.4456,-6.4595,-6.5005,-6.6492,-6.689,-6.6894,-6.6894,-6.6894,-6.6894,-6.6894,-6.6894,-6.6894,-6.6894,-6.6894,-6.668,-6.5937,-6.5683,-6.5312,-6.4433,-6.3574,-6.2949,-6.2812,0.0,-6.1699,-6.1699,-6.1699,-6.1699,-6.1699,-6.1699,-6.1699,-6.1699,-6.1699,-6.1699,-6.1699,-6.1699,-6.1699,-6.1699,-6.1699,-6.1699,-6.1699,-6.1699,-6.1699,-6.1699,-6.1699,-6.1699,-6.1699,-6.1699,-6.1699,-6.1699,-6.1699,-6.1699,-6.1699,-6.1699,-6.1699,-6.1699,-6.1699,-6.1699,-6.1699,-6.1699,-6.1699,-6.1699,-6.6795,-6.6795,-6.6795,-6.6795,-6.6795,-6.6795,-6.6795,-6.6795,-6.6795,-6.6795,-6.6795,-6.6795,-6.6795,-6.6795,-6.6795,-6.6795,-6.6795,-6.6795,-6.6795,-6.6795,-6.6795,-6.6795,-6.6795,-6.6795,-6.6795,-6.6795,-6.6795,-6.6795,-6.6795,-6.6795,-6.6795,-6.6795,-6.6795,-6.6795,-6.6795,-6.6795,-6.6795,-6.6795,-6.6541,-6.6151,-6.6151,-6.5643,-6.4902,-6.4902,-6.4648,-6.4299,-6.4299,-6.4004,-6.3596,-6.3601,-6.3291,-6.2904,-6.2892,-6.2895,-6.2993,-6.3465,-6.3937,-6.4487,-6.5287,-6.5506,-6.5508,-6.5508,-6.5508,-6.5508,-6.5508,-6.5508,-6.5508,-6.5508,-6.5508,-6.5371,-6.4961,-6.4512,-6.4062,-6.3672,-6.2871,0.0,0.0,-6.1953,-6.1699,-6.1699,-6.1699,-6.1699,-6.1699,-6.1699,-6.1699,-6.1699,-6.1699,-6.1699,-6.1699,-6.1699,-6.1699,-6.1699,-6.1699,-6.1699,-6.1699,-6.1699,-6.1699,-6.1699,-6.1699,-6.1699,-6.1699,-6.1699,-6.1699,-6.1699,-6.1699,-6.1699,-6.1699,-6.1699,-6.1699,-6.1699,-6.1699,-6.1699,-6.1699,-6.1699,-6.1699,-6.1699,-6.6756,-6.6795,-6.6795,-6.6795,-6.6795,-6.6795,-6.6795,-6.6795,-6.6795,-6.6795,-6.6795,-6.6795,-6.6795,-6.6795,-6.6795,-6.6795,-6.6795,-6.6795,-6.6795,-6.6795,-6.6795,-6.6795,-6.6795,-6.6795,-6.6795,-6.6795,-6.6795,-6.6795,-6.6795,-6.6795,-6.6795,-6.6795,-6.6795,-6.6795,-6.6795,-6.6697,-6.6522,-6.6522,-6.6053,-6.5292,-6.5292,-6.4785,-6.4004,-6.4004,-6.3867,-6.3691,-6.3691,-6.3264,-6.2701,-6.2709,-6.2246,-6.1702,-6.1709,-6.1692,-6.1829,-6.2494,-6.316,-6.3787,-6.4197,-6.4296,-6.4297,-6.4297,-6.4297,-6.4297,-6.4297,-6.4297,-6.4297,-6.4297,-6.4297,-6.4238,-6.4043,-6.3457,-6.3008,-6.3008,0.0,0.0,0.0,-6.1836,-6.1699,-6.1699,-6.1699,-6.1699,-6.1699,-6.1699,-6.1699,-6.1699,-6.1699,-6.1699,-6.1699,-6.1699,-6.1699,-6.1699,-6.1699,-6.1699,-6.1699,-6.1699,-6.1699,-6.1699,-6.1699,-6.1699,-6.1699,-6.1699,-6.1699,-6.1699,-6.1699,-6.1699,-6.1699,-6.1699,-6.1699,-6.1699,-6.1699,-6.1699,-6.1699,-6.1699,-6.1699,-6.1699,-6.6658,-6.6795,-6.6795,-6.6795,-6.6795,-6.6795,-6.6795,-6.6795,-6.6795,-6.6795,-6.6795,-6.6795,-6.6795,-6.6795,-6.6795,-6.6795,-6.6795,-6.6795,-6.6795,-6.6795,-6.6795,-6.6795,-6.6795,-6.6795,-6.6795,-6.6795,-6.6795,-6.6795,-6.6795,-6.6795,-6.6795,-6.6795,-6.6795,-6.6795,-6.6795,-6.6385,-6.5682,-6.5682,-6.5194,-6.4397,-6.4397,-6.3867,-6.3106,-6.3106,-6.2598,-6.1893,-6.1893,-6.1844,-6.1795,-6.1795,-6.1741,-6.1709,-6.1695,-6.1697,-6.1717,-6.1777,-6.1836,-6.2246,-6.3865,-6.4296,-6.4297,-6.4297,-6.4297,-6.4297,-6.4297,-6.4297,-6.4297,-6.4297,-6.4297,-6.4043,-6.3242,-6.3047,-6.3008,-6.3008,0.0,0.0,-6.2793,-6.2207,-6.1699,-6.1699,-6.1699,-6.1699,-6.1699,-6.1699,-6.1699,-6.1699,-6.1699,-6.1699,-6.1699,-6.1699,-6.1699,-6.1699,-6.1699,-6.1699,-6.1699,-6.1699,-6.1699,-6.1699,-6.1699,-6.1699,-6.1699,-6.1699,-6.1699,-6.1699,-6.1699,-6.1699,-6.1699,-6.1699,-6.1699,-6.1699,-6.1699,-6.1699,-6.1699,-6.1699,-6.1699,-6.1699,-6.5995,-6.6463,-6.6795,-6.6795,-6.6795,-6.6795,-6.6795,-6.6795,-6.6795,-6.6795,-6.6795,-6.6795,-6.6795,-6.6795,-6.6795,-6.6795,-6.6795,-6.6795,-6.6795,-6.6795,-6.6795,-6.6795,-6.6795,-6.6795,-6.6795,-6.6795,-6.6795,-6.6795,-6.6795,-6.6795,-6.6795,-6.6795,-6.6522,-6.6053,-6.6053,-6.5585,-6.4785,-6.4785,-6.4297,-6.3496,-6.3496,-6.2969,-6.2189,-6.2189,-6.1998,-6.1692,-6.1692,-6.1697,-6.1705,-6.1691,-6.1694,-6.1695,-6.1698,-6.1699,-6.1699,-6.1699,-6.1699,-6.1836,-6.2519,-6.2695,-6.2695,-6.2695,-6.2695,-6.2695,-6.2695,-6.2695,-6.2695,-6.2695,-6.2695,-6.2598,-6.2246,-6.2187,-6.2187,-6.2187,0.0,-6.1816,-6.2148,-6.1914,-6.1699,-6.1699,-6.1699,-6.1699,-6.1699,-6.1699,-6.1699,-6.1699,-6.1699,-6.1699,-6.1699,-6.1699,-6.1699,-6.1699,-6.1699,-6.1699,-6.1699,-6.1699,-6.1699,-6.1699,-6.1699,-6.1699,-6.1699,-6.1699,-6.1699,-6.1699,-6.1699,-6.1699,-6.1699,-6.1699,-6.1699,-6.1699,-6.1699,-6.1699,-6.1699,-6.1699,-6.1699,-6.1699,-6.5487,-6.6034,-6.6502,-6.6756,-6.6795,-6.6795,-6.6795,-6.6795,-6.6795,-6.6795,-6.6795,-6.6795,-6.6795,-6.6795,-6.6795,-6.6795,-6.6795,-6.6795,-6.6795,-6.6795,-6.6795,-6.6795,-6.6795,-6.6795,-6.6795,-6.6795,-6.6795,-6.6795,-6.6795,-6.6795,-6.6795,-6.6541,-6.6131,-6.5585,-6.5312,-6.4707,-6.3887,-6.3887,-6.3399,-6.2598,-6.2598,-6.2228,-6.1701,-6.1703,-6.1692,-6.1697,-6.1701,-6.1707,-6.1693,-6.1696,-6.1698,-6.1698,-6.1699,-6.1699,-6.1699,-6.1699,-6.1699,-6.1699,-6.1699,-6.1699,-6.1699,-6.1699,-6.1699,-6.1699,-6.1699,-6.1699,-6.1699,-6.1699,-6.1699,-6.1699,-6.1699,-6.1699,-6.1699,-6.1699,-6.1699,-6.1699,-6.1699,-6.1699,-6.1699,-6.1699,-6.1699,-6.1699,-6.1699,-6.1699,-6.1699,-6.1699,-6.1699,-6.1699,-6.1699,-6.1699,-6.1699,-6.1699,-6.1699,-6.1699,-6.1699,-6.1699,-6.1699,-6.1699,-6.1699,-6.1699,-6.1699,-6.1699,-6.1699,-6.1699,-6.1699,-6.1699,-6.1699,-6.1699,-6.1699,-6.1699,-6.1699,-6.1699,-6.1699,-6.1699,-6.1699,-6.1699,-6.5234,-6.5585,-6.5858,-6.6658,-6.6795,-6.6795,-6.6795,-6.6795,-6.6795,-6.6795,-6.6795,-6.6795,-6.6795,-6.6795,-6.6795,-6.6795,-6.6795,-6.6795,-6.6795,-6.6795,-6.6795,-6.6795,-6.6795,-6.6795,-6.6795,-6.6795,-6.6795,-6.6795,-6.6795,-6.6795,-6.6776,-6.5975,-6.5585,-6.5546,-6.4687,-6.3809,-6.2989,-6.2989,-6.2481,-6.1698,-6.1698,-6.1698,-6.1701,-6.1694,-6.1697,-6.1699,-6.1707,-6.1694,-6.1697,-6.1697,-6.1698,-6.1699,-6.1699,-6.1699,-6.1699,-6.1699,-6.1699,-6.1699,-6.1699,-6.1699,-6.1699,-6.1699,-6.1699,-6.1699,-6.1699,-6.1699,-6.1699,-6.1699,-6.1699,-6.1699,-6.1699,-6.1699,-6.1699,-6.1699,-6.1699,-6.1699,-6.1699,-6.1699,-6.1699,-6.1699,-6.1699,-6.1699,-6.1699,-6.1699,-6.1699,-6.1699,-6.1699,-6.1699,-6.1699,-6.1699,-6.1699,-6.1699,-6.1699,-6.1699,-6.1699,-6.1699,-6.1699,-6.1699,-6.1699,-6.1699,-6.1699,-6.1699,-6.1699,-6.1699,-6.1699,-6.1699,-6.1699,-6.1699,-6.1699,-6.1699,-6.1699,-6.1699,-6.1699,-6.1699,-6.1699,-6.1699,-6.3672,-6.4765,-6.5682,-6.5917,-6.6424,-6.6795,-6.6795,-6.6795,-6.6795,-6.6795,-6.6795,-6.6795,-6.6795,-6.6795,-6.6795,-6.6795,-6.6795,-6.6795,-6.6795,-6.6795,-6.6795,-6.6795,-6.6795,-6.6795,-6.6795,-6.6795,-6.6795,-6.6795,-6.6229,-6.5956,-6.5936,-6.5097,-6.4355,-6.377,-6.3496,-6.2891,-6.2091,-6.2091,-6.1939,-6.1694,-6.1694,-6.1697,-6.1702,-6.1705,-6.1709,-6.1694,-6.1695,-6.1697,-6.1699,-6.1699,-6.1699,-6.1699,-6.1699,-6.1699,-6.1699,-6.1699,-6.1699,-6.1699,-6.1699,-6.1699,-6.1699,-6.1699,-6.1699,-6.1699,-6.1699,-6.1699,-6.1699,-6.1699,-6.1699,-6.1699,-6.1699,-6.1699,-6.1699,-6.1699,-6.1699,-6.1699,-6.1699,-6.1699,-6.1699,-6.1699,-6.1699,-6.1699,-6.1699,-6.1699,-6.1699,-6.1699,-6.1699,-6.1699,-6.1699,-6.1699,-6.1699,-6.1699,-6.1699,-6.1699,-6.1699,-6.1699,-6.1699,-6.1699,-6.1699,-6.1699,-6.1699,-6.1699,-6.1699,-6.1699,-6.1699,-6.1699,-6.1699,-6.1699,-6.1699,-6.1699,-6.1699,-6.1699,-6.1699,-6.1699,-6.1699,-6.1699,-6.293,-6.3848,-6.4687,-6.5038,-6.5761,-6.6327,-6.6327,-6.66,-6.6795,-6.6795,-6.6795,-6.6795,-6.6795,-6.6795,-6.6795,-6.6795,-6.6795,-6.6795,-6.6795,-6.6795,-6.6658,-6.6346,-6.6327,-6.6463,-6.6795,-6.6483,-6.6327,-6.6327,-6.5487,-6.5097,-6.5077,-6.4179,-6.3496,-6.2989,-6.2637,-6.2189,-6.1698,-6.1705,-6.1692,-6.1697,-6.1701,-6.1705,-6.1709,-6.1692,-6.1695,-6.1697,-6.1698,-6.1699,-6.1699,-6.1699,-6.1699,-6.1699,-6.1699,-6.1699,-6.1699,-6.1699,-6.1699,-6.1699,-6.1699,-6.1699,-6.1699,-6.1699,-6.1699,-6.1699,-6.1699,-6.1699,-6.1699,-6.1699,-6.1699,-6.1699,-6.1699,-6.1699,-6.1699,-6.1699,-6.1699,-6.1699,-6.1699,-6.1699,-6.1699,-6.1699,-6.1699,-6.1699,-6.1699,-6.1699,-6.1699,-6.1699,-6.1699,-6.1699,-6.1699,-6.1699,-6.1699,-6.1699,-6.1699,-6.1699,-6.1699,-6.1699,-6.1699,-6.1699,-6.1699,-6.1699,-6.1699,-6.1699,-6.1699,-6.1699,-6.1699,-6.1699,-6.1699,-6.1699,-6.1699,-6.1699,-6.1699,-6.1699,-6.1699,-6.1699,-6.1699,-6.1699,-6.2735,-6.295,-6.3243,-6.4045,-6.4902,-6.5487,-6.5487,-6.6112,-6.658,-6.658,-6.658,-6.658,-6.658,-6.658,-6.658,-6.658,-6.658,-6.658,-6.658,-6.658,-6.6249,-6.5526,-6.5487,-6.5839,-6.6561,-6.5858,-6.5487,-6.5487,-6.4609,-6.4182,-6.4162,-6.3284,-6.2874,-6.2855,-6.2054,-6.1703,-6.1703,-6.1696,-6.1699,-6.1701,-6.1708,-6.1691,-6.1692,-6.1696,-6.1697,-6.1698,-6.1699,-6.1699,-6.1699,-6.1699,-6.1699,-6.1699,-6.1699,-6.1699,-6.1699,-6.1699,-6.1699,-6.1699,-6.1699,-6.1699,-6.1699,-6.1699,-6.1699,-6.1699,-6.1699,-6.1699,-6.1699,-6.1699,-6.1699,-6.1699,-6.1699,-6.1699,-6.1699,-6.1699,-6.1699,-6.1699,-6.1699,-6.1699,-6.1699,-6.1699,-6.1699,-6.1699,-6.1699,-6.1699,-6.1699,-6.1699,-6.1699,-6.1699,-6.1699,-6.1699,-6.1699,-6.1699,-6.1699,-6.1699,-6.1699,-6.1699,-6.1699,-6.1699,-6.1699,-6.1699,-6.1699,-6.1699,-6.1699,-6.1699,-6.1699,-6.1699,-6.1699,-6.1699,-6.1699,-6.1699,-6.1699,-6.1699,-6.1699,-6.1699,-6.1699,-6.1699,-6.1932,-6.254,-6.3067,-6.3243,-6.4004,-6.457,-6.457,-6.4728,-6.4846,-6.4846,-6.4846,-6.4846,-6.4846,-6.4846,-6.4846,-6.4846,-6.4846,-6.4846,-6.4846,-6.4846,-6.4767,-6.4589,-6.457,-6.467,-6.4846,-6.467,-6.457,-6.457,-6.3711,-6.3282,-6.3262,-6.2393,-6.1987,-6.1969,-6.1779,-6.1704,-6.1704,-6.1707,-6.1691,-6.1695,-6.1695,-6.1697,-6.1699,-6.1699,-6.1699,-6.1699,-6.1699,-6.1699,-6.1699,-6.1699,-6.1699,-6.1699,-6.1699,-6.1699,-6.1699,-6.1699,-6.1699,-6.1699,-6.1699,-6.1699,-6.1699,-6.1699,-6.1699,-6.1699,-6.1699,-6.1699,-6.1699,-6.1699,-6.1699,-6.1699,-6.1699,-6.1699,-6.1699,-6.1699,-6.1699,-6.1699,-6.1699,-6.1699,-6.1699,-6.1699,-6.1699,-6.1699,-6.1699,-6.1699,-6.1699,-6.1699,-6.1699,-6.1699,-6.1699,-6.1699,-6.1699,-6.1699,-6.1699,-6.1699,-6.1699,-6.1699,-6.1699,-6.1699,-6.1699,-6.1699,-6.1699,-6.1699,-6.1699,-6.1699,-6.1699,-6.1699,-6.1699,-6.1699,-6.1699,-6.1699,-6.1699,-6.1699,-6.1699,-6.1699,-6.1699,-6.1699,-6.1698,-6.2071,-6.2384,-6.2384,-6.3106,-6.3674,-6.3679,-6.4028,-6.4299,-6.4306,-6.4301,-6.4299,-6.4299,-6.4299,-6.4299,-6.4299,-6.4299,-6.4299,-6.4299,-6.4299,-6.4104,-6.3691,-6.3679,-6.3484,-6.3067,-6.3058,-6.3254,-6.3672,-6.2813,-6.2386,-6.2373,-6.191,-6.1699,-6.1704,-6.1707,-6.1709,-6.1709,-6.1693,-6.1695,-6.1697,-6.1698,-6.1699,-6.1699,-6.1699,-6.1699,-6.1699,-6.1699,-6.1699,-6.1699,-6.1699,-6.1699,-6.1699,-6.1699,-6.1699,-6.1699,-6.1699,-6.1699,-6.1699,-6.1699,-6.1699,-6.1699,-6.1699,-6.1699,-6.1699,-6.1699,-6.1699,-6.1699,-6.1699,-6.1699,-6.1699,-6.1699,-6.1699,-6.1699,-6.1699,-6.1699,-6.1699,-6.1699,-6.1699,-6.1699,-6.1699,-6.1699,-6.1699,-6.1699,-6.1699,-6.1699,-6.1699,-6.1699,-6.1699,-6.1699,-6.1699,-6.1699,-6.1699,-6.1699,-6.1699,-6.1699,-6.1699,-6.1699,-6.1699,-6.1699,-6.1699,-6.1699,-6.1699,-6.1699,-6.1699,-6.1699,-6.1699,-6.1699,-6.1699,-6.1699,-6.1699,-6.1699,-6.1699,-6.1699,-6.1699,-6.1699,-6.1699,-6.1705,-6.1705,-6.1705,-6.1705,-6.2291,-6.2783,-6.2771,-6.339,-6.3859,-6.3866,-6.3861,-6.3855,-6.3855,-6.3855,-6.3855,-6.3855,-6.3855,-6.3855,-6.3855,-6.3852,-6.3521,-6.282,-6.2787,-6.2436,-6.1725,-6.1702,-6.2054,-6.2776,-6.2056,-6.1692,-6.1701,-6.1702,-6.1705,-6.1691,-6.1692,-6.1692,-6.1693,-6.1697,-6.1698,-6.1698,-6.1699,-6.1699,-6.1699,-6.1699,-6.1699,-6.1699,-6.1699,-6.1699,-6.1699,-6.1699,-6.1699,-6.1699,-6.1699,-6.1699,-6.1699,-6.1699,-6.1699,-6.1699,-6.1699,-6.1699,-6.1699,-6.1699,-6.1699,-6.1699,-6.1699,-6.1699,-6.1699,-6.1699,-6.1699,-6.1699,-6.1699,-6.1699,-6.1699,-6.1699,-6.1699,-6.1699,-6.1699,-6.1699,-6.1699,-6.1699,-6.1699,-6.1699,-6.1699,-6.1699,-6.1699,-6.1699,-6.1699,-6.1699,-6.1699,-6.1699,-6.1699,-6.1699,-6.1699,-6.1699,-6.1699,-6.1699,-6.1699,-6.1699,-6.1699,-6.1699,-6.1699,-6.1699,-6.1699,-6.1699,-6.1699,-6.1699,-6.1699,-6.1699,-6.1699,-6.1699,-6.1699,-6.1699,-6.1699,-6.1699,-6.1699,-6.1699,-6.1705,-6.1705,-6.1705,-6.1705,-6.1803,-6.1882,-6.1882,-6.198,-6.2058,-6.2058,-6.2058,-6.2058,-6.2058,-6.2058,-6.2058,-6.2058,-6.2058,-6.2058,-6.2058,-6.2052,-6.1992,-6.1881,-6.1877,-6.1818,-6.1705,-6.1708,-6.1764,-6.1871,-6.1761,-6.1707,-6.1708,-6.1694,-6.1696,-6.1697,-6.1698,-6.1699,-6.1699,-6.1699,-6.1699,-6.1699,-6.1699,-6.1699,-6.1699,-6.1699,-6.1699,-6.1699,-6.1699,-6.1699,-6.1699,-6.1699,-6.1699,-6.1699,-6.1699,-6.1699,-6.1699,-6.1699,-6.1699,-6.1699,-6.1699,-6.1699,-6.1699,-6.1699,-6.1699,-6.1699,-6.1699,-6.1699,-6.1699,-6.1699,-6.1699,-6.1699,-6.1699,-6.1699,-6.1699,-6.1699,-6.1699,-6.1699,-6.1699,-6.1699,-6.1699,-6.1699,-6.1699,-6.1699,-6.1699,-6.1699,-6.1699,-6.1699,-6.1699,-6.1699,-6.1699,-6.1699,-6.1699,-6.1699,-6.1699,-6.1699,-6.1699,-6.1699,-6.1699,-6.1699,-6.1699,-6.1699,-6.1699,-6.1699,-6.1699,-6.1699,-6.1699,-6.1699,-6.1699,-6.1699,-6.1699,-6.1699,-6.1699,-6.1699,-6.1699,-6.1699,-6.1699,-6.1699,-6.1709,-6.1709,-6.1709,-6.1709,-6.1709,-6.1691,-6.1694,-6.1692,-6.1691,-6.1694,-6.1692,-6.1709,-6.1709,-6.1709,-6.1709,-6.1709,-6.1709,-6.1709,-6.1709,-6.1707,-6.1705,-6.1709,-6.1691,-6.1691,-6.1709,-6.1695,-6.1695,-6.1691,-6.1709,-6.1691,-6.1695,-6.1696,-6.1698,-6.1699,-6.1699,-6.1699,-6.1699,-6.1699,-6.1699,-6.1699,-6.1699,-6.1699,-6.1699,-6.1699,-6.1699,-6.1699,-6.1699,-6.1699,-6.1699,-6.1699,-6.1699,-6.1699,-6.1699,-6.1699,-6.1699,-6.1699,-6.1699,-6.1699,-6.1699,-6.1699,-6.1699,-6.1699,-6.1699,-6.1699,-6.1699,-6.1699,-6.1699,-6.1699,-6.1699,-6.1699,-6.1699,-6.1699,-6.1699,-6.1699,-6.1699,-6.1699,-6.1699,-6.1699,-6.1699,-6.1699,-6.1699,-6.1699,-6.1699,-6.1699,-6.1699,-6.1699,-6.1699,-6.1699,-6.1699,-6.1699,-6.1699,-6.1699,-6.1699,-6.1699,-6.1699,-6.1699,-6.1699,-6.1699,-6.1699,-6.1699,-6.1699,-6.1699,-6.1699,-6.1699,-6.1699,-6.1699,-6.1699,-6.1699,-6.1699,-6.1699,-6.1699,-6.1699,-6.1699,-6.1699,-6.1699,-6.1699]},{"header":{"parameterUnit":"m.s-1","parameterCategory":1,"la1":30.6,"la2":28.766,"lo1":-90.7593,"lo2":-88.6598,"dy":0.0162,"dx":0.0183,"nx":116,"ny":114,"refTime":"2023-03-22T18:00:00:Z","depth":0,"parameterNumber":3,"parameterNumberName":"V-component_of_WINDS"},"data":[0.0,0.0,0.0,0.0,0.0,0.0,0.0,0.0,0.0,0.0,0.0,0.0,0.0,0.0,0.0,0.0,0.0,0.0,0.0,0.0,0.0,0.0,0.0,0.0,0.0,0.0,0.0,0.0,0.0,0.0,0.0,0.0,0.0,0.0,0.0,0.0,0.0,0.0,0.0,0.0,0.0,0.0,0.0,0.0,0.0,0.0,0.0,0.0,0.0,0.0,0.0,0.0,0.0,0.0,0.0,0.0,0.0,0.0,0.0,0.0,0.0,0.0,0.0,0.0,0.0,0.0,0.0,0.0,0.0,0.0,0.0,0.0,0.0,0.0,0.0,0.0,0.0,0.0,0.0,0.0,0.0,0.0,0.0,0.0,0.0,0.0,0.0,0.0,0.0,0.0,0.0,0.0,0.0,0.0,0.0,0.0,0.0,0.0,0.0,0.0,0.0,0.0,0.0,0.0,0.0,0.0,0.0,0.0,0.0,0.0,0.0,0.0,0.0,0.0,0.0,0.0,0.0,0.0,0.0,0.0,0.0,0.0,0.0,0.0,0.0,0.0,0.0,0.0,0.0,0.0,0.0,0.0,0.0,0.0,0.0,0.0,0.0,0.0,0.0,0.0,0.0,0.0,0.0,0.0,0.0,0.0,0.0,0.0,0.0,0.0,0.0,0.0,0.0,0.0,0.0,0.0,0.0,0.0,0.0,0.0,0.0,0.0,0.0,0.0,0.0,0.0,0.0,0.0,0.0,0.0,0.0,0.0,0.0,0.0,0.0,0.0,0.0,0.0,0.0,0.0,0.0,0.0,0.0,0.0,0.0,0.0,0.0,0.0,0.0,0.0,0.0,0.0,0.0,0.0,0.0,0.0,0.0,0.0,0.0,0.0,0.0,0.0,0.0,0.0,0.0,0.0,0.0,0.0,0.0,0.0,0.0,0.0,0.0,0.0,0.0,0.0,0.0,0.0,0.0,0.0,0.0,0.0,0.0,0.0,0.0,0.0,0.0,0.0,0.0,0.0,0.0,0.0,0.0,0.0,0.0,0.0,0.0,0.0,0.0,0.0,0.0,0.0,0.0,0.0,0.0,0.0,0.0,0.0,0.0,0.0,0.0,0.0,0.0,0.0,0.0,0.0,0.0,0.0,0.0,0.0,0.0,0.0,0.0,0.0,0.0,0.0,0.0,0.0,0.0,0.0,0.0,0.0,0.0,0.0,0.0,0.0,0.0,0.0,0.0,0.0,0.0,0.0,0.0,0.0,0.0,0.0,0.0,0.0,0.0,0.0,0.0,0.0,0.0,0.0,0.0,0.0,0.0,0.0,0.0,0.0,0.0,0.0,0.0,0.0,0.0,0.0,0.0,0.0,0.0,0.0,0.0,0.0,0.0,0.0,0.0,0.0,0.0,0.0,0.0,0.0,0.0,0.0,0.0,0.0,0.0,0.0,0.0,0.0,0.0,0.0,0.0,0.0,0.0,0.0,0.0,0.0,0.0,0.0,0.0,0.0,0.0,0.0,0.0,0.0,0.0,0.0,0.0,0.0,0.0,0.0,0.0,0.0,0.0,0.0,0.0,0.0,0.0,0.0,0.0,0.0,0.0,0.0,0.0,0.0,0.0,0.0,0.0,0.0,0.0,0.0,0.0,0.0,0.0,0.0,0.0,0.0,0.0,0.0,0.0,0.0,0.0,0.0,0.0,0.0,0.0,0.0,0.0,0.0,0.0,0.0,0.0,0.0,0.0,0.0,0.0,0.0,0.0,0.0,0.0,0.0,0.0,0.0,0.0,0.0,0.0,0.0,0.0,0.0,0.0,0.0,0.0,0.0,0.0,0.0,0.0,0.0,0.0,0.0,0.0,0.0,0.0,0.0,0.0,0.0,0.0,0.0,0.0,0.0,0.0,0.0,0.0,0.0,0.0,0.0,0.0,0.0,0.0,0.0,0.0,0.0,0.0,0.0,0.0,0.0,0.0,0.0,0.0,0.0,0.0,0.0,0.0,0.0,0.0,0.0,0.0,0.0,0.0,0.0,0.0,0.0,0.0,0.0,0.0,0.0,0.0,0.0,0.0,0.0,0.0,0.0,0.0,0.0,0.0,0.0,0.0,0.0,0.0,0.0,0.0,0.0,0.0,0.0,0.0,0.0,0.0,0.0,0.0,0.0,0.0,0.0,0.0,0.0,0.0,0.0,0.0,0.0,0.0,0.0,0.0,0.0,0.0,0.0,0.0,0.0,0.0,0.0,0.0,0.0,0.0,0.0,0.0,0.0,0.0,0.0,0.0,0.0,0.0,0.0,0.0,0.0,0.0,0.0,0.0,0.0,0.0,0.0,0.0,0.0,0.0,0.0,0.0,0.0,0.0,0.0,0.0,0.0,0.0,0.0,0.0,0.0,0.0,0.0,0.0,0.0,0.0,0.0,0.0,0.0,0.0,0.0,0.0,0.0,0.0,0.0,0.0,0.0,0.0,0.0,0.0,0.0,0.0,0.0,0.0,0.0,0.0,0.0,0.0,0.0,0.0,0.0,0.0,0.0,0.0,0.0,0.0,0.0,0.0,0.0,0.0,0.0,0.0,0.0,0.0,0.0,0.0,0.0,0.0,0.0,0.0,0.0,0.0,0.0,0.0,0.0,0.0,0.0,0.0,0.0,0.0,0.0,0.0,0.0,0.0,0.0,0.0,0.0,0.0,0.0,0.0,0.0,0.0,0.0,0.0,0.0,0.0,0.0,0.0,0.0,0.0,0.0,0.0,0.0,0.0,0.0,0.0,0.0,0.0,0.0,0.0,0.0,0.0,0.0,0.0,0.0,0.0,0.0,0.0,0.0,0.0,0.0,0.0,0.0,0.0,0.0,0.0,0.0,0.0,0.0,0.0,0.0,0.0,0.0,0.0,0.0,0.0,0.0,0.0,0.0,0.0,0.0,0.0,0.0,0.0,0.0,0.0,0.0,0.0,0.0,0.0,0.0,0.0,0.0,0.0,0.0,0.0,0.0,0.0,0.0,0.0,0.0,0.0,0.0,0.0,0.0,0.0,0.0,0.0,0.0,0.0,0.0,0.0,0.0,0.0,0.0,0.0,0.0,0.0,0.0,0.0,0.0,0.0,0.0,0.0,0.0,0.0,0.0,0.0,0.0,0.0,0.0,0.0,0.0,0.0,0.0,0.0,0.0,0.0,0.0,0.0,0.0,0.0,0.0,0.0,0.0,0.0,0.0,0.0,0.0,0.0,0.0,0.0,0.0,0.0,0.0,0.0,0.0,0.0,0.0,0.0,0.0,0.0,0.0,0.0,0.0,0.0,0.0,0.0,0.0,0.0,0.0,0.0,0.0,0.0,0.0,0.0,0.0,0.0,0.0,0.0,0.0,0.0,0.0,0.0,0.0,0.0,0.0,0.0,0.0,0.0,0.0,0.0,0.0,0.0,0.0,0.0,0.0,0.0,0.0,0.0,0.0,0.0,0.0,0.0,0.0,0.0,0.0,0.0,0.0,0.0,0.0,0.0,0.0,0.0,0.0,0.0,0.0,0.0,0.0,0.0,0.0,0.0,0.0,0.0,0.0,0.0,0.0,0.0,0.0,0.0,0.0,0.0,0.0,0.0,0.0,0.0,0.0,0.0,0.0,0.0,0.0,0.0,0.0,0.0,0.0,0.0,0.0,0.0,0.0,0.0,0.0,0.0,0.0,0.0,0.0,0.0,0.0,0.0,0.0,0.0,0.0,0.0,0.0,0.0,0.0,0.0,0.0,0.0,0.0,0.0,0.0,0.0,0.0,0.0,0.0,0.0,0.0,0.0,0.0,0.0,0.0,0.0,0.0,0.0,0.0,0.0,0.0,0.0,0.0,0.0,0.0,0.0,0.0,0.0,0.0,0.0,0.0,0.0,0.0,0.0,0.0,0.0,0.0,0.0,0.0,0.0,0.0,0.0,0.0,0.0,0.0,0.0,0.0,0.0,0.0,0.0,0.0,0.0,0.0,0.0,0.0,0.0,0.0,0.0,0.0,0.0,0.0,0.0,0.0,0.0,0.0,0.0,0.0,0.0,0.0,0.0,0.0,0.0,0.0,0.0,0.0,0.0,0.0,0.0,0.0,0.0,0.0,0.0,0.0,0.0,0.0,0.0,0.0,0.0,0.0,0.0,0.0,0.0,0.0,0.0,0.0,0.0,0.0,0.0,0.0,0.0,0.0,0.0,0.0,0.0,0.0,0.0,0.0,0.0,0.0,0.0,0.0,0.0,0.0,0.0,0.0,0.0,0.0,0.0,0.0,0.0,0.0,0.0,0.0,0.0,0.0,0.0,0.0,0.0,0.0,0.0,0.0,0.0,0.0,0.0,0.0,0.0,0.0,0.0,0.0,0.0,0.0,0.0,0.0,0.0,0.0,0.0,0.0,0.0,0.0,0.0,0.0,0.0,0.0,0.0,0.0,0.0,0.0,0.0,0.0,0.0,0.0,0.0,0.0,0.0,0.0,0.0,0.0,0.0,0.0,0.0,0.0,0.0,0.0,0.0,0.0,0.0,0.0,0.0,0.0,0.0,0.0,0.0,0.0,0.0,0.0,0.0,0.0,0.0,0.0,0.0,0.0,0.0,0.0,0.0,0.0,0.0,0.0,0.0,0.0,0.0,0.0,0.0,0.0,0.0,0.0,0.0,0.0,0.0,0.0,0.0,0.0,0.0,0.0,0.0,0.0,0.0,0.0,0.0,0.0,0.0,0.0,0.0,0.0,0.0,0.0,0.0,0.0,0.0,0.0,0.0,0.0,0.0,0.0,0.0,0.0,0.0,0.0,0.0,0.0,0.0,0.0,0.0,0.0,0.0,0.0,0.0,0.0,0.0,0.0,0.0,0.0,0.0,0.0,0.0,0.0,0.0,0.0,0.0,0.0,0.0,0.0,0.0,0.0,0.0,0.0,0.0,0.0,0.0,0.0,0.0,0.0,0.0,0.0,0.0,0.0,0.0,0.0,0.0,0.0,0.0,0.0,0.0,0.0,0.0,0.0,0.0,0.0,0.0,0.0,0.0,0.0,0.0,0.0,0.0,0.0,0.0,0.0,0.0,0.0,0.0,0.0,0.0,0.0,0.0,0.0,0.0,0.0,0.0,0.0,0.0,0.0,0.0,0.0,0.0,0.0,0.0,0.0,0.0,0.0,0.0,0.0,0.0,0.0,0.0,0.0,0.0,0.0,0.0,0.0,0.0,0.0,0.0,0.0,0.0,0.0,0.0,0.0,0.0,0.0,0.0,0.0,0.0,0.0,0.0,0.0,0.0,0.0,0.0,0.0,0.0,0.0,0.0,0.0,0.0,0.0,0.0,0.0,0.0,0.0,0.0,0.0,0.0,0.0,0.0,0.0,0.0,0.0,0.0,0.0,0.0,0.0,0.0,0.0,0.0,0.0,0.0,0.0,0.0,0.0,0.0,0.0,0.0,0.0,0.0,0.0,0.0,0.0,0.0,0.0,0.0,0.0,0.0,0.0,0.0,0.0,0.0,0.0,0.0,0.0,0.0,0.0,0.0,0.0,0.0,0.0,0.0,0.0,0.0,0.0,0.0,0.0,0.0,0.0,0.0,0.0,0.0,0.0,0.0,0.0,0.0,0.0,0.0,0.0,0.0,0.0,0.0,0.0,0.0,0.0,0.0,0.0,0.0,0.0,0.0,0.0,0.0,0.0,0.0,0.0,0.0,0.0,0.0,0.0,0.0,0.0,0.0,0.0,0.0,0.0,0.0,0.0,0.0,0.0,0.0,0.0,0.0,0.0,0.0,0.0,0.0,0.0,0.0,0.0,0.0,0.0,0.0,0.0,0.0,0.0,0.0,0.0,0.0,0.0,0.0,0.0,0.0,0.0,0.0,0.0,0.0,0.0,0.0,0.0,0.0,0.0,0.0,0.0,0.0,0.0,0.0,0.0,0.0,0.0,0.0,0.0,0.0,0.0,0.0,0.0,0.0,0.0,0.0,0.0,0.0,0.0,0.0,0.0,0.0,0.0,0.0,0.0,0.0,0.0,0.0,0.0,0.0,0.0,0.0,0.0,0.0,0.0,0.0,0.0,0.0,0.0,0.0,0.0,0.0,0.0,0.0,0.0,0.0,0.0,0.0,0.0,-1.2958,0.0,0.0,0.0,0.0,0.0,0.0,0.0,0.0,0.0,0.0,0.0,0.0,0.0,0.0,0.0,0.0,0.0,0.0,0.0,0.0,0.0,0.0,0.0,0.0,0.0,0.0,0.0,0.0,0.0,0.0,0.0,0.0,0.0,0.0,0.0,0.0,0.0,0.0,0.0,0.2214,0.2222,0.2222,0.2222,0.2222,0.2222,0.0,0.0,0.0,0.0,0.0,0.0,0.0,0.0,0.0,0.0,0.0,0.0,0.0,0.0,0.0,0.0,0.0,0.0,0.0,0.0,0.0,0.0,0.0,0.0,0.0,0.0,0.0,0.0,0.0,0.0,0.0,0.0,0.0,0.0,0.0,0.0,0.0,0.0,0.0,0.0,0.0,0.0,0.0,0.0,0.0,0.0,0.0,0.0,0.0,0.0,0.0,0.0,0.0,0.0,0.0,0.0,0.0,0.0,0.0,0.0,0.0,0.0,0.0,0.0,0.0,0.0,0.0,0.0,0.0,0.0,0.0,-1.3145,0.0,0.0,0.0,0.0,0.0,0.0,0.0,0.0,0.0,0.0,0.0,0.0,0.0,0.0,0.0,0.0,0.0,0.0,0.0,0.0,0.0,0.0,0.0,0.0,0.0,0.0,0.0,0.0,0.0,0.0,0.0,0.0,0.0,0.0,0.0,-0.0959,0.0389,0.1779,0.2073,0.2222,0.2222,0.2222,0.2222,0.2222,0.2222,0.0,0.0,0.0,0.0,0.0,0.0,0.0,0.0,0.0,0.0,0.0,0.0,0.0,0.0,0.0,0.0,0.0,0.0,0.0,0.0,0.0,0.0,0.0,0.0,0.0,0.0,0.0,0.0,0.0,0.0,0.0,0.0,0.0,0.0,0.0,0.0,0.0,0.0,0.0,0.0,0.0,0.0,0.0,0.0,0.0,0.0,0.0,0.0,0.0,0.0,0.0,0.0,0.0,0.0,0.0,0.0,0.0,0.0,0.0,0.0,0.0,0.0,0.0,-1.3457,-1.3388,-1.3421,-1.3421,-1.3433,-1.3465,-1.3465,-1.3449,-1.3421,0.0,0.0,0.0,0.0,0.0,0.0,0.0,0.0,0.0,0.0,0.0,0.0,0.0,0.0,0.0,0.0,0.0,0.0,0.0,0.0,0.0,0.0,0.0,0.0,0.0,0.0,0.0,0.0,0.0,0.0,0.0,0.0,0.0,-0.409,-0.2491,-0.0973,0.0395,0.1604,0.2222,0.2222,0.2222,0.2222,0.2222,0.2222,0.2222,0.2222,0.0,0.0,0.0,0.0,0.0,0.0,0.0,0.0,0.0,0.0,0.0,0.0,0.0,0.0,0.0,0.0,0.0,0.0,0.0,0.0,0.0,0.0,0.0,0.0,0.0,0.0,0.0,0.0,0.0,0.0,0.0,0.0,0.0,0.0,0.0,0.0,0.0,0.0,0.0,0.0,0.0,-0.5597,-0.5752,0.0,0.0,0.0,0.0,0.0,0.0,0.0,0.0,0.0,0.0,0.0,0.0,0.0,-1.2391,-1.2391,-1.3232,-1.3574,-1.357,-1.3457,-1.3453,-1.3538,-1.3538,-1.3689,-1.3831,-1.3831,0.0,-1.3538,-1.3538,0.0,0.0,0.0,0.0,0.0,0.0,0.0,0.0,0.0,0.0,0.0,0.0,0.0,0.0,0.0,0.0,0.0,0.0,0.0,0.0,0.0,0.0,0.0,0.0,0.0,0.0,0.0,0.0,0.0,0.0,0.0,-0.5746,-0.4413,-0.3562,-0.2082,0.0067,0.1476,0.2222,0.2222,0.2222,0.2222,0.2222,0.2222,0.2222,0.2222,0.2222,0.0,0.0,0.0,0.0,0.0,0.0,0.0,0.0,0.0,0.0,0.0,0.0,0.0,0.0,0.0,0.0,0.0,0.0,0.0,0.0,0.0,0.0,0.0,0.0,0.0,0.0,0.0,0.0,0.0,0.0,0.0,0.0,0.0,0.0,0.0,0.0,0.0,0.0,0.0,-0.4502,-0.5318,-0.5754,-0.6117,-0.648,0.0,0.0,0.0,0.0,0.0,0.0,0.0,0.0,0.0,-0.8716,-1.095,-1.2176,-1.2176,-1.3255,-1.3786,-1.3786,-1.3709,-1.3709,-1.3786,-1.3786,-1.3831,-1.39,-1.39,-1.3859,-1.3786,-1.3786,-1.3831,-1.3892,0.0,0.0,0.0,0.0,0.0,-1.3405,0.0,0.0,0.0,0.0,0.0,0.0,0.0,0.0,0.0,0.0,0.0,0.0,0.0,0.0,0.0,-0.7811,0.0,0.0,0.0,0.0,0.0,0.0,0.0,-0.5667,-0.4802,-0.4247,-0.2676,0.0,0.074,0.148,0.2222,0.1817,0.1817,0.2222,0.2222,0.2222,0.2222,0.2222,0.2222,0.2222,0.0,0.0,0.0,0.0,0.0,0.0,0.0,0.0,0.0,0.0,0.0,0.0,0.0,0.0,0.0,0.0,0.0,0.0,0.0,0.0,0.0,0.0,0.0,0.0,0.0,0.0,0.0,0.0,0.0,0.0,0.0,0.0,0.0,0.0,0.0,0.0,0.0,-0.4228,-0.4956,-0.5682,-0.5827,-0.6117,0.0,0.0,0.0,0.0,0.0,0.0,-0.699,-0.7781,-0.8285,-0.8285,-1.023,-1.1456,-1.1746,-1.2896,-1.3615,-1.39,-1.39,-1.39,-1.39,-1.39,-1.39,-1.39,-1.39,-1.39,-1.39,-1.39,-1.39,-1.39,-1.39,-1.39,-1.39,-1.39,-1.379,-1.3574,0.0,0.0,0.0,0.0,0.0,0.0,0.0,0.0,0.0,0.0,0.0,0.0,0.0,0.0,-0.9079,-0.7569,-0.7689,-0.775,0.0,0.0,-0.7204,-0.69,-0.6589,-0.6219,-0.5855,-0.463,-0.2676,0.0,-0.1276,-0.047,0.2155,0.074,0.0874,0.2222,0.2222,0.2222,0.2222,0.2222,0.2222,0.2222,0.2222,0.0,0.0,0.0,0.0,0.0,0.0,0.0,0.0,0.0,0.0,0.0,0.0,0.0,0.0,0.0,0.0,0.0,0.0,0.0,0.0,0.0,0.0,0.0,0.0,0.0,0.0,0.0,0.0,0.0,0.0,0.0,0.0,0.0,0.0,0.0,0.0,0.0,0.0,-0.5682,-0.5827,0.0,0.0,0.0,0.0,-0.699,-0.699,-0.699,-0.699,-0.7061,-0.7061,-0.7061,-0.8285,-0.9366,-1.0452,-1.1674,-1.2824,-1.39,-1.39,-1.39,-1.39,-1.39,-1.39,-1.39,-1.39,-1.39,-1.39,-1.39,-1.39,-1.39,-1.39,-1.39,-1.39,-1.39,-1.379,-1.3574,0.0,0.0,0.0,0.0,0.0,0.0,0.0,0.0,0.0,0.0,0.0,0.0,0.0,-1.1551,-1.0347,-0.8775,-0.8529,-0.8105,-0.7143,0.0,-0.6653,-0.7204,-0.6469,-0.6093,-0.6084,-0.4737,-0.3591,-0.2754,-0.235,-0.1544,-0.0537,-0.0202,0.0269,0.0807,0.175,0.2222,0.2222,0.2222,0.2222,0.2222,0.2222,0.2222,0.0,0.0,0.0,0.0,0.0,0.0,0.0,0.0,0.0,0.0,0.0,0.0,0.0,0.0,0.0,0.0,0.0,0.0,0.0,0.0,0.0,0.0,0.0,0.0,0.0,0.0,0.0,0.0,0.0,0.0,0.0,0.0,0.0,0.0,0.0,0.0,0.0,-0.4301,-0.5173,0.0,-0.619,-0.67,-0.699,-0.699,-0.699,-0.699,-0.699,-0.699,-0.699,-0.699,-0.814,-0.9221,-1.038,-1.1603,-1.2753,-1.39,-1.39,-1.39,-1.39,-1.39,-1.39,-1.39,-1.39,-1.39,-1.39,-1.39,-1.39,-1.39,-1.39,-1.39,-1.39,-1.39,-1.3863,-1.3811,0.0,0.0,0.0,0.0,0.0,0.0,0.0,0.0,0.0,0.0,0.0,-1.4399,-1.3834,-1.2859,-1.1619,-1.0229,-0.9316,-0.8532,-0.793,0.0,-0.653,-0.7204,-0.6377,-0.6031,-0.6178,-0.5238,-0.4593,-0.43,-0.3828,-0.3088,-0.2081,-0.1679,-0.1209,-0.0672,0.0807,0.1211,0.0807,0.1817,0.2222,0.2222,0.2222,0.1885,0.148,0.0,0.0,0.0,0.0,0.0,0.0,0.0,0.0,0.0,0.0,0.0,0.0,0.0,0.0,0.0,0.0,0.0,0.0,0.0,0.0,0.0,0.0,0.0,0.0,0.0,0.0,0.0,0.0,0.0,0.0,0.0,0.0,0.0,0.0,0.0,-0.3281,-0.3864,-0.4809,-0.5536,-0.5754,-0.6553,-0.699,-0.699,-0.699,-0.699,-0.699,-0.699,-0.699,-0.699,-0.7709,-0.8863,-1.038,-1.1172,-1.2391,-1.39,-1.39,-1.39,-1.39,-1.39,-1.39,-1.39,-1.39,-1.39,-1.39,-1.39,-1.39,-1.39,-1.39,-1.39,-1.39,-1.39,-1.39,-1.39,0.0,0.0,0.0,0.0,0.0,0.0,0.0,0.0,0.0,0.0,-1.6312,-1.5721,-1.4245,-1.3557,-1.2808,-1.1824,-1.0065,-0.9217,-0.9751,-0.7991,-0.6962,-0.6905,-0.6318,-0.6094,-0.6182,-0.6272,-0.5697,-0.4368,-0.578,-0.5037,-0.2282,-0.3627,-0.3559,-0.2081,-0.0672,-0.0806,-0.1947,0.0874,0.2087,0.2155,0.2155,0.1278,0.0,0.0,0.0,0.0,0.0,0.0,0.0,0.0,0.0,0.0,0.0,0.0,0.0,0.0,0.0,0.0,0.0,0.0,0.0,0.0,0.0,0.0,0.0,0.0,0.0,0.0,0.0,0.0,0.0,0.0,0.0,0.0,0.0,0.0,-0.3354,-0.2843,-0.2915,-0.4445,-0.4664,-0.5027,-0.5682,-0.648,-0.699,-0.6918,-0.6988,-0.699,-0.6988,-0.699,-0.699,-0.699,-0.699,-0.8073,-1.0308,-1.038,-1.1531,-1.3829,-1.39,-1.39,-1.39,-1.39,-1.39,-1.39,-1.39,-1.39,-1.39,-1.39,-1.39,-1.39,-1.39,-1.39,-1.39,-1.39,-1.39,-1.39,0.0,0.0,0.0,0.0,0.0,0.0,0.0,0.0,0.0,0.0,-1.6312,-1.6161,-1.5716,-1.5525,-1.4866,-1.342,-1.2615,-1.1498,-0.9838,-0.8824,-0.7777,-0.6632,-0.6475,-0.6311,-0.6276,-0.6304,-0.6163,-0.5915,-0.6319,-0.6116,-0.5307,-0.4637,-0.4099,-0.3627,-0.2148,-0.1745,-0.2081,-0.1276,-0.0336,0.0605,0.0605,0.0336,-0.0134,0.0,0.0,0.0,0.0,0.0,0.0,0.0,0.0,0.0,0.0,0.0,0.0,0.0,0.0,0.0,0.0,0.0,0.0,0.0,0.0,0.0,0.0,0.0,0.0,0.0,0.0,0.0,0.0,0.0,0.0,0.0,0.0,-0.2405,-0.2625,-0.2916,-0.3135,-0.2988,-0.4444,-0.5173,-0.4228,-0.5899,-0.6553,-0.5391,-0.6335,-0.6771,-0.619,-0.6698,-0.699,-0.699,-0.699,-0.7711,-0.9149,-1.0017,-1.1172,-1.2681,-1.3543,-1.39,-1.39,-1.39,-1.39,-1.39,-1.39,-1.39,-1.39,-1.39,-1.39,-1.39,-1.39,-1.39,-1.39,-1.39,-1.39,-1.39,0.0,0.0,0.0,0.0,0.0,0.0,0.0,0.0,0.0,0.0,-1.6603,-1.6565,-1.6474,-1.6202,-1.5716,-1.498,-1.3406,-1.2,-1.0769,-0.9017,-0.7555,-0.6417,-0.6394,-0.6402,-0.6315,-0.6355,-0.64,-0.652,-0.652,-0.652,-0.6453,-0.5646,-0.5242,-0.5175,-0.3694,-0.3356,-0.3894,-0.2617,-0.2014,-0.1813,-0.1813,-0.1411,-0.1007,-0.2484,-0.3022,-0.3089,-0.3692,-0.4097,-0.4368,-0.4638,0.0,0.0,0.0,0.0,0.0,0.0,0.0,0.0,0.0,0.0,0.0,0.0,0.0,0.0,0.0,0.0,0.0,0.0,0.0,0.0,0.0,0.0,0.0,0.0,-0.2333,-0.2333,-0.2333,-0.2698,-0.2843,-0.2333,-0.3789,-0.4518,-0.3574,-0.5027,-0.5682,-0.4736,-0.5827,-0.6263,-0.5827,-0.6553,-0.699,-0.699,-0.699,-0.7566,-0.8716,-0.9801,-1.1028,-1.2176,-1.3329,-1.39,-1.39,-1.39,-1.39,0.0,-1.39,-1.39,-1.39,-1.39,-1.39,0.0,0.0,0.0,0.0,0.0,-1.39,-1.39,0.0,0.0,0.0,0.0,0.0,0.0,0.0,0.0,0.0,0.0,0.0,-1.6926,-1.6721,-1.618,-1.597,-1.6347,-1.3403,-1.1661,-1.1888,-0.8801,-0.6733,-0.6256,-0.6274,-0.6323,-0.6331,-0.6413,-0.652,-0.652,-0.652,-0.652,-0.652,-0.652,-0.652,-0.6453,-0.5108,-0.5242,-0.6317,-0.3691,-0.3223,-0.4301,-0.4502,-0.3694,-0.2483,-0.3963,-0.457,-0.4704,-0.6049,-0.5646,-0.4637,-0.5312,0.0,0.0,0.0,0.0,0.0,0.0,0.0,0.0,0.0,0.0,0.0,0.0,0.0,0.0,0.0,0.0,0.0,0.0,0.0,0.0,0.0,0.0,0.0,0.0,-0.2333,-0.2333,-0.2333,-0.2333,-0.2333,-0.2333,-0.299,-0.3428,-0.3355,-0.4155,-0.4591,-0.4445,-0.5173,-0.5682,-0.5682,0.0,0.0,0.0,0.0,-0.7494,-0.8499,-0.9801,-1.0956,-1.2033,-1.3253,-1.39,-1.39,-1.39,-1.39,-1.39,-1.39,-1.39,-1.39,-1.39,-1.39,-1.39,-1.39,-1.39,-1.39,-1.39,-1.39,0.0,0.0,0.0,0.0,0.0,0.0,0.0,0.0,0.0,0.0,-1.7001,-1.7001,-1.6985,-1.6942,-1.6808,-1.6786,-1.6872,-1.54,-1.3407,-1.0904,-0.8259,-0.6713,-0.6682,-0.6439,-0.6351,-0.6491,-0.6512,-0.652,-0.652,-0.652,-0.652,-0.652,-0.652,-0.652,-0.652,-0.6183,-0.625,-0.6453,-0.5914,-0.5106,-0.4435,-0.5579,-0.5173,-0.403,-0.551,-0.6049,-0.6116,-0.6386,-0.6319,-0.6116,-0.6252,-0.5478,-0.4343,-0.4203,-0.3353,0.0,0.0,0.0,0.0,0.0,0.0,0.0,0.0,0.0,0.0,0.0,0.0,0.0,0.0,0.0,0.0,0.0,0.0,0.0,-0.2333,-0.2333,-0.2333,-0.2333,-0.2333,-0.2333,-0.2333,-0.299,-0.3209,-0.2625,-0.3863,-0.4154,-0.2842,-0.4081,-0.4882,-0.4882,-0.5609,0.0,-0.699,-0.699,-0.7133,-0.7349,-0.9371,-1.0524,-1.074,0.0,0.0,-1.39,-1.39,-1.39,-1.39,-1.39,-1.39,-1.39,-1.39,-1.39,-1.39,-1.39,-1.39,-1.39,-1.39,-1.39,-1.39,0.0,0.0,0.0,0.0,0.0,0.0,0.0,0.0,0.0,0.0,-1.7001,-1.7001,-1.7001,-1.7001,-1.7001,-1.7001,-1.5778,-1.3442,-0.9624,-0.8531,-0.7652,-0.6715,-0.6519,-0.6406,-0.652,-0.652,-0.652,-0.652,-0.652,-0.652,-0.652,-0.652,-0.652,-0.652,-0.652,-0.652,-0.652,-0.652,-0.6049,-0.5444,-0.6183,-0.6049,-0.5512,-0.625,-0.652,-0.652,-0.652,-0.6252,-0.5917,-0.5917,-0.5,-0.3853,-0.3853,-0.314,-0.2333,0.0,0.0,0.0,0.0,0.0,0.0,0.0,0.0,0.0,0.0,0.0,0.0,0.0,0.0,-0.2333,0.0,0.0,-0.2333,-0.2333,-0.2333,-0.2333,-0.2333,-0.2333,-0.2333,-0.2333,-0.2625,-0.277,-0.2333,-0.3061,-0.3134,-0.2333,-0.3426,-0.4083,-0.4083,-0.5173,-0.5827,-0.5827,-0.6626,-0.6773,-0.6408,-0.908,-1.038,-1.0452,-1.2749,-1.39,-1.39,-1.39,-1.39,-1.39,-1.39,-1.39,-1.39,-1.39,-1.39,-1.39,-1.39,-1.39,-1.39,-1.39,-1.39,-1.39,0.0,0.0,0.0,0.0,0.0,0.0,0.0,0.0,0.0,0.0,-1.7001,-1.7001,-1.7001,-1.7001,-1.6856,-1.655,-1.5376,-1.289,-0.8858,-0.9065,-0.847,-0.6583,-0.652,-0.652,-0.652,-0.652,-0.652,-0.652,-0.652,-0.652,-0.652,-0.652,-0.652,-0.652,-0.652,-0.652,-0.652,-0.652,-0.652,-0.652,-0.652,-0.652,-0.652,-0.652,-0.652,-0.652,-0.652,-0.6051,-0.5381,-0.5381,-0.4453,-0.3294,-0.3294,-0.2856,-0.2333,-0.2333,-0.2333,0.0,0.0,0.0,0.0,0.0,0.0,0.0,0.0,-0.2333,-0.2333,-0.2333,-0.2333,-0.2333,-0.2333,-0.2333,-0.2333,-0.2333,-0.2333,-0.2333,-0.2333,-0.2333,-0.2333,-0.2333,-0.2333,-0.2333,-0.2333,-0.2333,-0.2333,-0.2333,-0.2916,-0.3354,-0.3501,-0.4664,-0.5173,-0.4738,-0.5899,-0.6335,-0.5827,-0.8499,-1.0017,-1.0452,-1.2534,-1.3686,-1.39,-1.39,-1.39,-1.39,-1.39,-1.39,-1.39,-1.39,-1.39,-1.39,-1.39,-1.39,-1.39,-1.39,-1.39,-1.39,0.0,0.0,0.0,0.0,0.0,0.0,0.0,0.0,0.0,0.0,0.0,0.0,0.0,0.0,-1.6464,-1.5051,-1.4655,-1.2963,-0.9512,-0.9219,-0.836,-0.6587,-0.652,-0.652,-0.652,-0.652,-0.652,-0.652,-0.652,-0.652,-0.652,-0.652,-0.652,-0.652,-0.652,-0.652,-0.652,-0.652,-0.652,-0.652,-0.652,-0.652,-0.652,-0.652,-0.652,-0.652,-0.652,-0.6051,-0.5381,-0.5381,-0.4453,-0.3294,-0.3294,-0.2856,-0.2333,-0.2333,-0.2333,-0.2333,-0.2333,-0.2333,-0.2333,-0.2333,-0.2333,-0.2333,0.0,-0.2333,-0.2333,-0.2333,-0.2333,-0.2333,-0.2333,-0.2333,-0.2333,-0.2333,-0.2333,-0.2333,-0.2333,-0.2333,-0.2333,-0.2333,-0.2333,-0.2333,-0.2333,-0.2333,-0.2333,-0.2333,-0.2405,-0.277,-0.3428,-0.3647,-0.4083,-0.4664,-0.4883,-0.5245,-0.5827,-0.7197,-0.8786,-1.0452,-1.1746,-1.2896,-1.39,-1.39,-1.39,-1.39,-1.39,-1.39,-1.39,-1.39,-1.39,-1.39,-1.39,-1.39,-1.39,-1.39,-1.39,-1.39,0.0,0.0,0.0,0.0,0.0,0.0,0.0,0.0,0.0,0.0,0.0,0.0,0.0,-1.6423,-1.5998,-1.4938,-1.513,-1.3957,-1.0674,-1.0195,-0.9235,-0.7448,-0.6786,-0.652,-0.652,-0.652,-0.652,-0.652,-0.652,-0.652,-0.652,-0.652,-0.652,-0.652,-0.652,-0.652,-0.652,-0.652,-0.652,-0.652,-0.652,-0.652,-0.652,-0.652,-0.652,-0.6453,-0.5984,-0.5379,0.0,-0.4277,-0.3519,-0.2669,-0.269,-0.2515,-0.2333,-0.2333,-0.2333,-0.2333,-0.2333,-0.2333,-0.2333,-0.2333,-0.2333,-0.2333,-0.2333,-0.2333,-0.2333,-0.2333,-0.2333,-0.2333,-0.2333,-0.2333,-0.2333,0.0,-0.2348,-0.2359,-0.2359,-0.2374,-0.2386,-0.2386,-0.2386,-0.2371,-0.2336,-0.2333,-0.2333,-0.2333,-0.2333,-0.2478,-0.277,-0.3281,-0.3427,-0.3279,-0.4227,-0.4883,-0.5173,-0.6761,-0.8569,-1.038,-1.1603,-1.2824,-1.39,-1.39,-1.39,-1.39,-1.39,-1.39,-1.39,-1.39,-1.39,-1.39,-1.39,-1.39,-1.39,-1.39,-1.39,-1.39,0.0,0.0,0.0,0.0,0.0,0.0,0.0,0.0,0.0,0.0,0.0,0.0,0.0,-1.6164,-1.5904,-1.4996,-1.5583,-1.4651,-1.1428,-1.1156,-1.0227,-0.811,-0.7316,-0.6786,-0.652,-0.652,-0.652,-0.652,-0.652,-0.652,-0.652,-0.652,-0.652,-0.652,-0.652,-0.652,-0.652,-0.652,-0.652,-0.652,-0.652,-0.652,-0.652,-0.652,-0.652,-0.6386,-0.5649,-0.4908,-0.4175,-0.3553,-0.2842,-0.218,-0.2281,-0.231,-0.2333,-0.2333,-0.2333,-0.2333,-0.2333,-0.2333,-0.2333,-0.2333,-0.2333,-0.2333,-0.2333,-0.2333,-0.2333,-0.2333,-0.2333,-0.2333,-0.2333,-0.2333,-0.2335,-0.2344,-0.2364,-0.2381,-0.2389,-0.241,-0.2423,-0.2423,-0.2423,-0.2406,-0.2362,-0.2358,-0.2358,-0.2358,-0.2358,-0.2358,-0.2358,-0.2874,-0.2948,-0.2358,-0.3462,-0.4271,-0.4713,-0.6101,-0.8073,-1.049,-1.1431,-1.2594,-1.4046,-1.3997,-1.3949,-1.39,-1.39,-1.39,-1.39,-1.39,-1.39,-1.39,-1.39,-1.39,-1.39,-1.39,-1.39,-1.39,0.0,0.0,0.0,0.0,0.0,0.0,0.0,0.0,0.0,0.0,0.0,0.0,0.0,0.0,-1.6423,-1.4996,-1.5583,-1.4651,-1.1428,-1.1894,-1.0962,-0.811,-0.7977,-0.7514,-0.652,-0.652,-0.652,-0.652,-0.652,-0.652,-0.652,-0.652,-0.652,-0.652,-0.652,-0.652,-0.652,-0.652,-0.652,-0.652,-0.652,-0.652,-0.652,-0.652,-0.652,-0.6386,-0.5649,-0.4908,-0.4175,-0.3553,-0.2842,-0.218,-0.2281,-0.231,-0.2333,-0.2333,-0.2333,-0.2333,-0.2333,-0.2333,-0.2333,-0.2333,-0.2333,-0.2333,-0.2333,-0.2333,-0.2333,-0.2333,-0.2333,-0.2333,-0.2333,-0.2333,-0.2343,-0.2372,-0.2378,-0.2388,-0.2418,-0.2423,-0.2423,-0.2423,-0.2423,-0.2423,0.0,-0.242,-0.242,-0.242,-0.242,-0.242,-0.242,-0.242,-0.242,-0.242,-0.242,-0.3251,-0.4758,-0.4834,-0.686,-1.076,-1.0837,-1.2104,-1.4412,-1.4245,-1.4071,-1.39,-1.39,-1.39,-1.39,-1.39,-1.39,-1.39,-1.39,-1.39,-1.39,-1.39,-1.39,-1.39,0.0,0.0,0.0,0.0,0.0,0.0,0.0,0.0,0.0,0.0,0.0,0.0,0.0,0.0,0.0,0.0,-1.473,-1.394,-1.2367,-1.1831,-1.1163,-1.0167,-0.8773,-0.7846,-0.7514,-0.6853,-0.652,-0.652,-0.652,-0.652,-0.652,-0.652,-0.652,-0.652,-0.652,-0.652,-0.652,-0.652,-0.652,-0.652,-0.652,-0.652,-0.652,-0.652,-0.652,-0.6386,0.0,-0.4937,-0.4166,-0.3534,-0.2811,-0.2281,-0.2309,-0.2325,-0.2333,-0.2333,-0.2333,-0.2333,-0.2333,-0.2333,-0.2333,-0.2333,-0.2333,-0.2333,-0.2333,-0.2333,-0.2333,-0.2333,-0.2333,-0.2339,-0.2359,-0.2363,-0.2373,-0.2403,-0.2425,-0.2442,-0.2452,-0.2471,-0.2484,-0.2484,-0.2484,0.0,0.0,0.0,0.0,-0.2423,-0.2423,-0.2423,-0.2423,-0.2423,-0.2423,-0.2423,-0.2423,-0.2952,-0.401,-0.4537,-0.6117,-0.8748,-1.0694,-1.227,-1.362,-1.3862,-1.3881,-1.3818,-1.399,-1.4083,-1.4075,-1.3953,-1.39,-1.39,-1.39,-1.39,-1.39,-1.39,-1.39,-1.39,0.0,0.0,0.0,0.0,0.0,0.0,0.0,0.0,0.0,0.0,0.0,0.0,0.0,0.0,0.0,0.0,0.0,-1.3617,-1.2836,-1.2165,-1.1633,-1.123,-0.9507,-0.8376,-0.7977,-0.6985,-0.652,-0.652,-0.652,-0.652,-0.652,-0.652,-0.652,-0.652,-0.652,-0.652,-0.652,-0.652,-0.652,-0.652,-0.652,-0.652,-0.652,-0.652,-0.652,0.0,-0.6018,-0.5193,-0.4222,-0.3563,-0.283,-0.2296,-0.2324,-0.2333,-0.2333,-0.2333,-0.2333,-0.2333,-0.2333,-0.2333,-0.2333,-0.2333,-0.2333,-0.2333,-0.2333,-0.2333,-0.2333,-0.2333,-0.2341,-0.2355,-0.2375,-0.2387,-0.2404,-0.2435,-0.2456,-0.2473,-0.2484,-0.2502,-0.2515,-0.2515,-0.2515,-0.2515,0.0,0.0,0.0,-0.2456,-0.2456,-0.2456,-0.2456,-0.2456,-0.2456,-0.2456,-0.2456,-0.2839,-0.3681,-0.4216,-0.5741,-0.8329,-1.0914,-1.2559,-1.3338,-1.3716,-1.3834,-1.3847,-1.4098,-1.427,-1.4253,-1.4075,-1.3997,-1.3993,-1.3928,-1.39,-1.39,-1.39,-1.39,-1.39,0.0,0.0,0.0,0.0,0.0,0.0,0.0,0.0,0.0,0.0,0.0,0.0,0.0,0.0,0.0,0.0,0.0,0.0,-1.2836,-1.277,-1.2367,-1.1296,-1.024,-0.9178,-0.811,-0.7116,-0.652,-0.652,-0.652,-0.652,-0.652,-0.652,-0.652,-0.652,-0.652,-0.652,-0.652,-0.652,-0.652,-0.652,-0.652,-0.652,-0.652,-0.652,-0.652,-0.6533,-0.6558,-0.5677,-0.4343,-0.3646,-0.2974,-0.237,-0.2324,-0.2333,-0.2333,-0.2333,-0.2333,-0.2333,-0.2333,-0.2333,-0.2333,-0.2333,-0.2333,-0.2333,-0.2333,-0.2333,-0.2333,-0.2333,-0.2357,-0.2378,-0.238,-0.2405,-0.2435,-0.2466,-0.2472,-0.2482,-0.251,-0.2515,-0.2515,0.0,-0.2515,0.0,0.0,0.0,0.0,-0.2515,0.0,-0.2515,-0.2515,-0.2515,-0.2515,-0.2515,-0.2515,-0.2906,-0.369,-0.3768,-0.5641,-0.9376,-1.1408,-1.2734,-1.3426,-1.3884,-1.3951,-1.3803,-1.423,-1.437,-1.4432,-1.4261,-1.4188,-1.416,-1.3985,-1.3908,-1.39,-1.39,-1.39,-1.39,0.0,0.0,0.0,0.0,0.0,0.0,0.0,0.0,0.0,0.0,0.0,0.0,0.0,0.0,0.0,0.0,0.0,0.0,-1.2836,-1.277,-1.2704,-1.2367,-1.1369,-1.0303,-0.9244,-0.8179,-0.725,-0.652,-0.652,-0.652,-0.652,-0.652,-0.652,-0.652,-0.652,-0.652,-0.652,-0.652,-0.652,-0.652,-0.652,-0.652,-0.652,-0.652,-0.652,-0.6533,-0.6558,-0.6022,-0.5259,-0.5171,-0.4233,-0.3123,-0.2476,-0.2333,-0.2333,-0.2333,-0.2333,-0.2333,-0.2333,-0.2333,-0.2333,-0.2333,-0.2333,-0.2333,-0.2333,-0.2333,-0.2333,-0.2333,-0.2357,-0.2385,-0.2408,-0.2437,-0.2467,-0.2498,-0.2503,-0.2506,-0.2513,-0.2515,-0.2515,-0.2515,-0.2515,-0.2515,-0.2515,-0.2515,0.0,0.0,-0.2515,-0.2515,-0.2515,-0.2515,-0.2515,-0.2515,-0.2515,-0.2592,-0.2828,-0.3455,-0.5564,-0.8998,-0.9467,-1.0773,-1.2751,-1.3139,-1.3501,-1.3763,-1.4013,-1.4334,-1.4623,-1.4444,-1.4294,-1.4172,-1.4127,-1.4022,-1.39,-1.39,-1.39,-1.39,0.0,0.0,0.0,0.0,0.0,0.0,0.0,0.0,0.0,0.0,0.0,0.0,0.0,0.0,0.0,0.0,0.0,0.0,0.0,-1.277,-1.277,-1.277,-1.1765,-1.0899,-1.0306,-0.8776,-0.7712,-0.7183,-0.6719,-0.652,-0.652,-0.652,-0.652,-0.652,-0.652,-0.652,-0.652,-0.652,-0.652,0.0,0.0,-0.652,-0.652,-0.652,-0.652,-0.6537,-0.6602,-0.6452,-0.599,-0.467,-0.3912,-0.3354,-0.2552,-0.2333,-0.2333,-0.2333,-0.2333,-0.2333,-0.2333,-0.2333,-0.2333,-0.2333,-0.2333,-0.2333,-0.2333,-0.2333,-0.2337,-0.235,-0.2377,-0.2408,-0.2438,-0.2468,-0.2494,-0.2512,-0.2515,-0.2515,-0.2515,-0.2515,-0.2515,-0.2515,-0.2515,-0.2515,-0.2515,-0.2515,-0.2515,0.0,-0.2515,-0.2515,-0.2515,-0.2515,-0.2515,-0.2515,-0.2515,-0.2515,-0.2515,-0.3377,-0.5254,-0.8219,-0.8611,-1.0089,-1.2501,-1.2888,-1.32,-1.3425,0.0,-1.414,-1.4586,-1.4326,-1.4348,-1.4395,-1.4241,-1.4115,-1.4014,-1.3932,-1.39,-1.39,0.0,0.0,0.0,0.0,0.0,0.0,0.0,0.0,0.0,0.0,0.0,0.0,0.0,0.0,0.0,0.0,0.0,0.0,0.0,0.0,-1.277,-1.277,-1.1901,-1.1365,-1.123,-0.9371,-0.831,-0.7977,-0.7116,-0.6652,-0.652,-0.652,-0.652,-0.652,-0.652,-0.652,-0.652,-0.652,-0.652,-0.652,-0.652,-0.652,-0.652,0.0,-0.652,-0.6478,-0.6521,-0.6768,-0.6553,-0.3497,-0.2989,-0.35,-0.2552,-0.2333,-0.2333,-0.2333,-0.2333,-0.2333,-0.2333,-0.2333,-0.2333,-0.2333,-0.2333,-0.2333,-0.2333,-0.2333,-0.2341,-0.2372,-0.2402,-0.2433,-0.2463,-0.2493,-0.2515,-0.2515,-0.2515,-0.2515,-0.2515,-0.2515,-0.2515,-0.2515,-0.2515,-0.2515,-0.2515,-0.2515,-0.2515,-0.2515,-0.2515,-0.2515,-0.2515,-0.2515,-0.2515,-0.2515,-0.2515,-0.2515,-0.2515,-0.322,-0.494,-0.7515,-0.8297,-1.0011,-1.2501,-1.2888,-1.3046,-1.3123,0.0,0.0,-1.4276,-1.4197,-1.435,-1.46,-1.4343,-1.4196,-1.4156,-1.3969,-1.39,-1.39,0.0,0.0,0.0,0.0,0.0,0.0,0.0,0.0,0.0,0.0,-1.3687,-1.277,0.0,0.0,0.0,0.0,0.0,0.0,0.0,0.0,0.0,-1.277,-1.2634,-1.2103,-1.123,-1.0833,-0.9769,-0.7977,-0.7843,-0.7316,-0.652,-0.652,-0.652,-0.652,-0.652,-0.652,-0.652,-0.652,-0.652,-0.652,-0.652,-0.652,-0.652,-0.652,0.0,0.0,-0.5963,-0.6338,-0.6626,-0.4154,-0.3791,-0.4227,-0.277,-0.2333,-0.2333,-0.2333,-0.2333,-0.2333,-0.2333,-0.2333,-0.2333,-0.2333,-0.2333,-0.2333,-0.2333,-0.2333,-0.2341,-0.2372,-0.2402,-0.2433,-0.2463,-0.2493,-0.2515,-0.2515,-0.2515,-0.2515,-0.2515,-0.2515,-0.2515,-0.2515,-0.2515,-0.2515,-0.2515,-0.2515,0.0,0.0,0.0,-0.2515,-0.2515,-0.2515,-0.2515,-0.2515,-0.2515,-0.2515,-0.2515,-0.2671,-0.4314,-0.7515,-0.7671,-0.9384,-1.2501,-1.2579,-1.2811,-1.312,-1.32,0.0,-1.3818,-1.4176,-1.4308,-1.4231,-1.432,-1.4302,-1.4156,-1.3969,-1.39,-1.39,0.0,0.0,0.0,0.0,0.0,0.0,0.0,-1.6423,-1.5714,-1.4996,-1.4015,-1.326,-1.2962,-1.2889,-1.2807,0.0,0.0,0.0,0.0,0.0,0.0,0.0,0.0,0.0,-1.2033,-1.1497,-1.0435,-0.8845,0.0,-0.7514,-0.652,-0.652,-0.652,-0.652,-0.652,-0.652,-0.652,-0.652,-0.652,-0.652,-0.652,-0.652,0.0,0.0,0.0,0.0,-0.5839,-0.5884,-0.6062,-0.4146,-0.3792,-0.3864,-0.2697,-0.2333,-0.2333,-0.2333,-0.2333,-0.2333,-0.2333,-0.2333,-0.2333,-0.2333,-0.2333,-0.2333,-0.2333,-0.2333,-0.2346,-0.2392,-0.2414,-0.2438,-0.2484,-0.2504,-0.2515,-0.2515,-0.2515,-0.2515,-0.2515,-0.2515,-0.2515,-0.2515,-0.2515,-0.2515,-0.2515,-0.2515,-0.2515,-0.2515,0.0,-0.2515,-0.2515,-0.2515,-0.2515,-0.2515,-0.2515,-0.2515,-0.2515,-0.2515,-0.4158,-0.7515,-0.6655,-0.8446,-1.2501,-1.1566,-1.1798,-1.2811,-1.2811,0.0,-1.3432,-1.3667,-1.3773,-1.3912,-1.4117,-1.4171,-1.4004,-1.4039,-1.3985,-1.39,0.0,0.0,0.0,0.0,0.0,0.0,0.0,-1.6423,-1.5714,-1.4996,-1.4338,-1.3703,-1.3196,-1.2999,-1.2962,0.0,0.0,0.0,0.0,0.0,0.0,0.0,0.0,0.0,0.0,0.0,0.0,-0.9975,-0.8842,0.0,0.0,0.0,0.0,0.0,-0.652,-0.652,-0.652,-0.652,-0.652,0.0,0.0,-0.652,0.0,0.0,0.0,0.0,0.0,-0.5648,-0.5511,-0.3992,-0.3501,-0.3354,-0.2552,-0.2333,-0.2333,-0.2333,-0.2333,-0.2333,-0.2333,-0.2333,-0.2333,-0.2333,-0.2333,-0.2333,-0.2333,-0.2333,-0.235,-0.2411,-0.2423,-0.2442,-0.2503,-0.2515,-0.2515,-0.2515,-0.2515,-0.2515,-0.2515,-0.2515,-0.2515,-0.2515,-0.2515,-0.2515,-0.2515,-0.2515,0.0,0.0,0.0,0.0,-0.2515,-0.2515,-0.2515,-0.2515,-0.2515,-0.2515,-0.2515,-0.2515,-0.4001,-0.6967,-0.5639,-0.7275,-1.1408,-1.0083,-1.0394,-1.1953,-1.1953,0.0,0.0,-1.3046,-1.3278,-1.3571,-1.3862,-1.3868,-1.3729,-1.3965,-1.3942,-1.381,0.0,0.0,0.0,0.0,0.0,0.0,0.0,-1.6423,-1.5714,-1.4996,-1.4338,-1.3755,-1.3444,-1.3181,-1.3145,0.0,0.0,0.0,0.0,0.0,0.0,0.0,0.0,0.0,0.0,0.0,0.0,-1.1031,-0.9975,0.0,0.0,0.0,0.0,0.0,0.0,-0.652,-0.652,-0.652,0.0,0.0,0.0,0.0,0.0,0.0,0.0,0.0,0.0,-0.5648,-0.5511,-0.3992,-0.3501,-0.3354,-0.2552,-0.2333,-0.2333,-0.2333,-0.2333,-0.2333,-0.2333,-0.2333,-0.2333,-0.2333,-0.2333,-0.2333,-0.2333,-0.2333,-0.235,-0.2411,-0.2423,-0.2442,-0.2503,-0.2515,-0.2515,-0.2515,-0.2515,-0.2515,-0.2515,-0.2515,-0.2515,-0.2515,-0.2515,-0.2515,-0.2515,-0.2515,-0.2515,0.0,0.0,0.0,-0.2515,-0.2515,-0.2515,-0.2515,-0.2515,-0.2515,-0.2515,-0.2515,-0.3453,-0.5248,-0.5092,-0.6028,-0.7983,-0.7825,-0.8682,-1.0239,-1.0239,0.0,0.0,-1.2969,-1.3123,-1.3182,-1.3478,-1.3559,-1.3506,-1.3637,-1.3655,-1.3616,0.0,0.0,0.0,0.0,0.0,0.0,-1.6423,-1.5774,-1.5062,-1.4403,-1.4076,-1.3759,-1.3468,-1.3303,-1.3336,-1.3518,0.0,0.0,0.0,0.0,0.0,0.0,0.0,0.0,0.0,0.0,-1.2301,-1.123,-1.0767,0.0,0.0,0.0,0.0,0.0,0.0,0.0,-0.652,0.0,0.0,0.0,0.0,0.0,0.0,0.0,0.0,0.0,0.0,0.0,-0.4816,-0.4414,-0.3573,-0.2698,-0.2405,-0.2333,-0.2333,-0.2333,-0.2333,-0.2333,-0.2333,-0.2333,-0.2333,-0.2333,-0.2333,-0.2333,-0.2333,-0.2347,-0.2372,-0.2415,-0.2438,-0.2463,-0.2506,-0.2515,-0.2515,-0.2515,-0.2515,-0.2515,-0.2515,-0.2515,-0.2515,-0.2515,-0.2515,-0.2515,0.0,0.0,-0.2515,0.0,0.0,0.0,-0.2515,-0.2515,-0.2515,-0.2515,-0.2515,-0.2515,-0.2515,-0.2515,-0.3375,-0.5014,-0.4,-0.4938,-0.7437,-0.642,-0.6887,-0.8526,-0.954,0.0,0.0,-1.2266,-1.2733,-1.2804,-1.3129,-1.3203,-1.317,-1.3612,-1.3536,-1.3271,0.0,0.0,0.0,0.0,0.0,-1.5909,-1.5714,-1.5057,-1.4403,-1.3945,-1.373,-1.3624,-1.3404,-1.3421,-1.3526,-1.3705,-1.3555,0.0,0.0,0.0,0.0,0.0,0.0,0.0,0.0,0.0,-1.2437,-1.1699,-1.1365,-1.0432,0.0,0.0,-0.7648,0.0,0.0,0.0,0.0,0.0,0.0,0.0,0.0,0.0,0.0,0.0,0.0,0.0,0.0,0.0,0.0,0.0,0.0,-0.2333,-0.2333,-0.2333,-0.2333,-0.2333,-0.2333,-0.2333,-0.2333,-0.2333,-0.2333,-0.2333,-0.2333,-0.2333,-0.2333,-0.2349,-0.2376,-0.2416,-0.2441,-0.2467,-0.2507,-0.2515,-0.2515,-0.2515,-0.2515,-0.2515,-0.2515,-0.2515,-0.2515,-0.2515,0.0,-0.2515,0.0,-0.2515,0.0,0.0,0.0,0.0,0.0,-0.2515,-0.2515,-0.2515,-0.2515,-0.2515,-0.2515,-0.2515,-0.3062,-0.4234,-0.3062,-0.3767,-0.5953,-0.4782,-0.5172,-0.6811,0.0,0.0,0.0,-1.1098,-1.1721,-1.1876,-1.2656,-1.2825,-1.2869,-1.3386,-1.3293,-1.2908,0.0,0.0,0.0,0.0,0.0,0.0,-1.4996,-1.4338,-1.394,-1.3875,-1.3448,-1.3161,-1.3352,-1.3535,-1.3709,-1.3884,-1.3742,0.0,0.0,0.0,0.0,0.0,0.0,0.0,0.0,0.0,-1.277,-1.277,-1.1699,-1.1163,-1.1097,-0.8972,-0.7977,-0.791,0.0,0.0,0.0,0.0,0.0,0.0,0.0,0.0,0.0,0.0,0.0,0.0,0.0,0.0,0.0,0.0,0.0,0.0,0.0,-0.2333,-0.2333,-0.2333,-0.2333,-0.2333,-0.2333,-0.2333,-0.2333,-0.2333,-0.2333,-0.2333,-0.2333,-0.2333,-0.235,-0.2411,-0.2424,-0.2442,-0.2503,-0.2515,-0.2515,-0.2515,-0.2515,-0.2515,-0.2515,-0.2515,-0.2515,0.0,-0.2515,-0.2515,-0.2515,-0.2515,0.0,0.0,0.0,0.0,0.0,-0.2515,-0.2515,-0.2515,-0.2515,-0.2515,-0.2515,-0.2515,-0.2515,-0.2515,-0.2515,-0.2515,-0.2514,-0.2515,-0.3453,0.0,0.0,0.0,0.0,-0.9306,-1.0006,-1.0164,-1.1879,-1.2501,-1.2558,-1.2786,-1.2785,-1.2632,0.0,0.0,0.0,0.0,0.0,0.0,0.0,-1.3621,-1.3161,-1.3161,-1.312,-1.3165,-1.3352,-1.3535,-1.3713,-1.3888,-1.3851,0.0,0.0,0.0,0.0,0.0,0.0,0.0,0.0,0.0,-1.277,-1.277,-1.2437,-1.1901,-1.1163,-0.9772,-0.8709,-0.7977,-0.6918,0.0,0.0,0.0,0.0,0.0,0.0,0.0,0.0,0.0,0.0,0.0,0.0,0.0,0.0,0.0,0.0,0.0,0.0,0.0,0.0,-0.2333,-0.2333,-0.2333,-0.2333,-0.2333,-0.2333,-0.2333,-0.2333,-0.2333,-0.2333,-0.2349,-0.2375,-0.2415,-0.244,-0.2467,-0.2507,-0.2515,-0.2515,-0.2515,-0.2515,-0.2515,-0.2515,-0.2515,-0.2515,-0.2515,-0.2515,-0.2515,0.0,0.0,0.0,0.0,0.0,0.0,0.0,-0.2515,-0.2515,-0.2515,-0.2515,-0.2515,-0.2515,-0.2515,-0.2515,-0.2515,-0.2515,-0.2515,-0.2515,-0.2515,0.0,0.0,0.0,0.0,0.0,-0.7591,-0.8294,-0.8372,-0.8837,-0.9073,-0.9136,-0.9405,-0.9215,-0.8952,0.0,0.0,0.0,0.0,0.0,0.0,0.0,-1.3095,-1.277,-1.277,-1.3047,-1.3242,-1.336,-1.3591,-1.3782,-1.3892,-1.39,0.0,0.0,0.0,0.0,0.0,0.0,0.0,-1.3096,-1.299,-1.2901,-1.277,-1.277,-1.2437,-1.1765,-1.0704,-0.964,-0.8576,-0.7517,-0.6853,0.0,0.0,0.0,0.0,0.0,0.0,-0.652,0.0,0.0,0.0,0.0,0.0,0.0,0.0,0.0,0.0,0.0,0.0,0.0,0.0,-0.2333,-0.2333,-0.2333,-0.2333,-0.2333,-0.2333,-0.2333,-0.2333,-0.2333,-0.2348,-0.2373,-0.2415,-0.2438,-0.2465,-0.2506,-0.2515,-0.2515,-0.2515,-0.2515,-0.2515,-0.2515,-0.2515,0.0,-0.2515,0.0,0.0,0.0,0.0,0.0,0.0,0.0,0.0,0.0,-0.2515,-0.2515,-0.2515,-0.2515,-0.2515,-0.2515,-0.2515,-0.2515,-0.2515,-0.2515,-0.2515,-0.2515,-0.2515,0.0,0.0,0.0,0.0,0.0,-0.5874,-0.6577,-0.6655,-0.7281,-0.7515,-0.7507,-0.7679,-0.7523,-0.728,0.0,0.0,0.0,0.0,0.0,0.0,0.0,-1.277,-1.277,-1.277,-1.3149,-1.3372,-1.3372,-1.3689,-1.39,-1.39,0.0,0.0,0.0,0.0,0.0,0.0,0.0,0.0,-1.3141,-1.3108,-1.3015,-1.279,-1.2778,-1.277,-1.277,-1.1699,-1.07,-0.9646,-0.8509,-0.7448,-0.652,-0.652,-0.652,-0.652,-0.652,-0.652,0.0,0.0,0.0,0.0,0.0,0.0,0.0,0.0,0.0,0.0,0.0,0.0,0.0,0.0,0.0,0.0,0.0,-0.2333,-0.2333,-0.2333,-0.2333,-0.2333,-0.2333,-0.2333,0.0,-0.2408,-0.242,-0.2439,-0.25,-0.2511,-0.2512,-0.2514,-0.2515,-0.2514,-0.2512,-0.2509,0.0,0.0,-0.2511,0.0,0.0,0.0,0.0,0.0,0.0,0.0,0.0,-0.2515,-0.2515,-0.2515,-0.2515,-0.2515,-0.2515,-0.2515,-0.2515,-0.2515,-0.2515,-0.2515,-0.2515,-0.2515,0.0,0.0,0.0,0.0,0.0,-0.4155,-0.4857,-0.5014,-0.6499,-0.7125,-0.7125,-0.7125,-0.7069,-0.6984,0.0,0.0,0.0,0.0,0.0,0.0,0.0,0.0,0.0,0.0,-1.3149,-1.3372,-1.3372,-1.3689,-1.39,0.0,0.0,0.0,0.0,0.0,0.0,0.0,0.0,0.0,-1.3449,-1.3238,-1.3076,-1.3035,-1.2901,-1.277,-1.277,-1.1699,-1.1101,-1.0767,-0.8839,-0.7448,-0.652,-0.652,-0.652,-0.652,-0.652,-0.652,0.0,0.0,0.0,0.0,-0.6558,-0.5677,0.0,0.0,0.0,0.0,0.0,0.0,0.0,0.0,-0.2333,0.0,-0.2333,0.0,-0.2333,-0.2333,-0.2333,-0.2333,0.0,-0.2333,-0.2343,-0.2381,-0.2389,-0.2408,-0.2468,-0.248,-0.2487,-0.251,-0.2515,-0.2506,-0.2483,-0.2459,0.0,-0.2477,-0.248,-0.2489,0.0,0.0,0.0,0.0,0.0,0.0,0.0,-0.2515,-0.2515,-0.2515,-0.2515,-0.2515,-0.2515,-0.2515,-0.2515,-0.2515,-0.2515,-0.2515,-0.2515,-0.2515,0.0,0.0,0.0,0.0,-0.2515,-0.2906,-0.3062,-0.314,-0.3532,-0.3688,-0.3688,-0.3688,-0.366,-0.362,0.0,0.0,0.0,0.0,0.0,0.0,0.0,0.0,0.0,0.0,0.0,-1.3372,-1.3372,-1.3689,0.0,0.0,0.0,0.0,0.0,0.0,0.0,0.0,0.0,-1.3655,-1.3574,-1.3449,-1.3262,-1.3092,-1.2999,-1.2913,-1.277,-1.2235,-1.1699,-1.1097,-0.8972,-0.7448,-0.652,-0.652,-0.652,-0.652,-0.652,0.0,0.0,0.0,0.0,0.0,-0.6509,-0.5646,0.0,-0.4449,-0.3514,-0.2333,0.0,0.0,0.0,0.0,-0.2333,-0.2333,-0.2333,-0.2333,-0.2333,-0.2333,-0.2333,-0.2333,-0.2333,-0.2333,-0.2341,-0.2372,-0.2378,-0.2393,-0.244,-0.2448,-0.2454,-0.247,-0.2473,-0.2467,0.0,0.0,-0.243,-0.2446,-0.2448,0.0,0.0,0.0,0.0,0.0,0.0,0.0,0.0,-0.2515,-0.2515,-0.2515,-0.2515,-0.2515,-0.2515,-0.2515,-0.2515,-0.2515,-0.2515,-0.2515,-0.2515,-0.2515,-0.2515,0.0,0.0,0.0,-0.2515,-0.2515,-0.2515,-0.2515,-0.2515,-0.2515,-0.2515,-0.2515,-0.2504,-0.2488,0.0,0.0,0.0,0.0,0.0,0.0,0.0,0.0,0.0,0.0,0.0,0.0,0.0,0.0,0.0,0.0,0.0,0.0,0.0,0.0,0.0,0.0,-1.39,-1.3831,-1.3619,-1.3586,-1.349,-1.3177,-1.312,-1.3019,-1.2877,-1.2782,-1.2235,-1.1097,-0.9105,-0.7648,-0.6719,-0.6587,-0.652,-0.652,-0.652,0.0,0.0,0.0,0.0,0.0,0.0,0.0,0.0,-0.4412,-0.3494,-0.2333,-0.2333,0.0,0.0,0.0,0.0,0.0,-0.2333,-0.2333,-0.2333,-0.2333,-0.2333,-0.2333,-0.2333,-0.2333,-0.234,-0.2366,-0.2371,-0.238,-0.2411,-0.2416,-0.2418,-0.2423,0.0,0.0,-0.2416,-0.2413,-0.2411,-0.2416,0.0,0.0,0.0,0.0,0.0,0.0,0.0,0.0,0.0,-0.2515,-0.2515,-0.2515,-0.2515,-0.2515,-0.2515,-0.2515,-0.2515,-0.2515,-0.2515,-0.2515,-0.2515,-0.2515,-0.2515,0.0,0.0,0.0,-0.2515,-0.2515,-0.2515,-0.2515,-0.2515,-0.2515,-0.2515,-0.2515,-0.2515,-0.251,0.0,0.0,0.0,0.0,0.0,0.0,0.0,0.0,0.0,0.0,0.0,0.0,0.0,0.0,0.0,0.0,0.0,0.0,0.0,0.0,0.0,-1.39,-1.39,-1.3888,-1.3863,-1.3717,-1.3546,-1.3489,-1.3246,-1.308,-1.3051,-1.2905,-1.2235,-1.1163,-0.9908,-0.8778,-0.7712,-0.6853,-0.652,-0.652,-0.652,0.0,0.0,0.0,0.0,0.0,0.0,0.0,0.0,-0.4412,-0.3494,-0.2333,-0.2333,0.0,0.0,0.0,0.0,0.0,-0.2333,-0.2333,-0.2333,-0.2333,-0.2333,-0.2333,-0.2333,-0.2333,-0.2334,-0.2339,-0.2339,-0.2349,-0.238,-0.2385,-0.2393,-0.2419,0.0,-0.2385,0.0,0.0,-0.2356,0.0,0.0,0.0,0.0,0.0,0.0,0.0,0.0,0.0,0.0,-0.2515,-0.2515,-0.2515,-0.2515,-0.2515,-0.2515,-0.2515,-0.2515,-0.2515,-0.2515,-0.2515,-0.2515,-0.2515,-0.2515,0.0,0.0,-0.2515,-0.2515,-0.2515,-0.2515,-0.2515,-0.2515,-0.2515,-0.2515,-0.2515,-0.2515,-0.251,0.0,0.0,0.0,0.0,0.0,0.0,0.0,0.0,0.0,0.0,0.0,0.0,0.0,0.0,0.0,0.0,0.0,0.0,0.0,0.0,-1.39,-1.39,-1.39,-1.39,-1.39,-1.3823,-1.3738,-1.3574,-1.3474,-1.3287,-1.3088,-1.2917,-1.2235,-1.1163,-1.0107,-0.8978,-0.791,-0.6918,-0.652,-0.652,0.0,0.0,0.0,0.0,0.0,0.0,0.0,0.0,0.0,0.0,-0.3494,-0.2333,-0.2333,0.0,0.0,0.0,0.0,0.0,-0.2333,-0.2333,-0.2333,-0.2333,-0.2333,-0.2333,-0.2333,-0.2333,-0.2333,-0.2333,-0.2333,-0.2337,-0.2351,-0.2354,-0.2358,-0.2372,0.0,-0.2354,-0.2354,-0.2341,0.0,0.0,0.0,0.0,0.0,0.0,0.0,0.0,0.0,0.0,0.0,0.0,-0.2497,-0.2514,-0.2515,-0.2515,-0.2515,-0.2515,-0.2515,-0.2515,-0.2515,-0.2515,-0.2515,-0.2515,-0.2515,-0.2515,0.0,-0.2515,-0.2515,-0.2515,-0.2515,-0.2515,-0.2515,-0.2515,-0.2515,-0.2515,-0.2515,-0.251,0.0,0.0,0.0,0.0,0.0,0.0,0.0,0.0,0.0,0.0,0.0,0.0,0.0,0.0,0.0,0.0,0.0,0.0,0.0,-1.39,-1.39,-1.39,-1.39,-1.39,-1.39,-1.39,-1.3835,-1.3705,-1.3594,-1.3457,-1.3092,-1.2958,-1.2406,-1.1497,-1.0174,-0.9111,-0.831,-0.7051,-0.652,-0.652,0.0,0.0,0.0,0.0,0.0,0.0,0.0,0.0,0.0,0.0,0.0,0.0,0.0,0.0,0.0,-0.2333,-0.2333,-0.2333,-0.2333,-0.2333,-0.2333,-0.2333,-0.2333,-0.2333,-0.2333,-0.2333,-0.2333,-0.2333,-0.2333,-0.2333,-0.2333,-0.2333,0.0,-0.2333,-0.2333,-0.2333,-0.2333,0.0,0.0,0.0,0.0,0.0,0.0,0.0,0.0,0.0,0.0,0.0,0.0,0.0,-0.248,-0.2503,-0.251,-0.2515,-0.2515,-0.2515,-0.2515,-0.2515,-0.2515,-0.2515,-0.2515,-0.2515,-0.2515,-0.2515,-0.2515,-0.2515,-0.2515,-0.2515,-0.2515,-0.2515,-0.2515,-0.2515,-0.2515,-0.2515,-0.2515,-0.2511,0.0,0.0,0.0,0.0,0.0,0.0,0.0,0.0,0.0,0.0,0.0,0.0,0.0,0.0,0.0,0.0,0.0,0.0,0.0,-1.39,-1.39,-1.39,-1.39,-1.39,-1.39,-1.39,-1.3896,-1.3884,-1.3721,-1.3457,-1.3092,-1.308,-1.2924,-1.2568,-1.0508,-0.9579,-0.938,-0.7319,-0.652,-0.652,-0.652,0.0,0.0,0.0,0.0,0.0,0.0,0.0,0.0,0.0,0.0,0.0,0.0,0.0,-0.2333,-0.2333,-0.2333,-0.2333,-0.2333,-0.2333,-0.2333,-0.2333,-0.2333,-0.2333,-0.2333,-0.2333,-0.2333,-0.2333,-0.2333,-0.2333,-0.2333,-0.2333,-0.2333,-0.2333,-0.2333,-0.2333,0.0,0.0,0.0,0.0,0.0,0.0,0.0,0.0,0.0,0.0,0.0,0.0,0.0,0.0,0.0,-0.2472,-0.25,-0.2515,-0.2515,-0.2515,-0.2515,-0.2515,-0.2515,-0.2515,-0.2515,-0.2515,-0.2515,-0.2515,-0.2515,-0.2515,-0.2515,-0.2515,-0.2515,-0.2515,-0.2515,-0.2515,-0.2515,-0.2515,-0.2515,-0.2514,0.0,0.0,0.0,0.0,0.0,0.0,0.0,0.0,0.0,0.0,0.0,0.0,0.0,0.0,0.0,0.0,0.0,0.0,0.0,-1.39,-1.39,-1.39,-1.39,-1.39,-1.39,-1.39,-1.39,-1.39,-1.3729,-1.3571,-1.3433,-1.3319,-1.3169,-1.2861,-1.0705,-0.9719,-0.9446,-0.7386,-0.652,-0.652,-0.652,-0.652,0.0,0.0,0.0,0.0,0.0,0.0,0.0,0.0,-0.3051,-0.2309,-0.2327,-0.2333,-0.2333,-0.2333,-0.2333,-0.2333,-0.2333,-0.2333,-0.2333,-0.2333,-0.2333,-0.2333,-0.2333,-0.2333,-0.2333,-0.2333,-0.2333,-0.2333,-0.2333,-0.2333,-0.2333,-0.2333,-0.2333,0.0,0.0,0.0,0.0,0.0,0.0,0.0,0.0,0.0,0.0,0.0,0.0,0.0,0.0,0.0,0.0,-0.2468,-0.248,-0.2495,-0.2514,-0.2515,-0.2515,-0.2515,-0.2515,-0.2515,-0.2515,-0.2515,-0.2515,-0.2515,-0.2515,-0.2515,-0.2515,-0.2515,-0.2515,-0.2515,-0.2515,-0.2515,-0.2515,-0.2515,-0.2515,-0.2515,0.0,0.0,0.0,0.0,0.0,0.0,0.0,0.0,0.0,0.0,0.0,0.0,0.0,0.0,0.0,0.0,0.0,0.0,-1.39,-1.39,-1.39,-1.39,-1.39,-1.39,-1.39,-1.39,-1.39,-1.39,-1.3782,-1.3627,-1.357,-1.3514,-1.336,-1.3114,-1.1339,-1.0171,-0.9573,-0.7836,-0.6881,-0.652,-0.652,-0.652,0.0,0.0,0.0,0.0,0.0,0.0,0.0,0.0,-0.283,-0.2296,-0.2324,-0.2333,-0.2333,-0.2333,-0.2326,-0.232,-0.232,-0.2312,-0.2233,-0.2233,-0.2233,-0.2233,-0.2233,-0.232,-0.2333,-0.2333,-0.2333,-0.2333,-0.2333,-0.2333,0.0,0.0,-0.2333,0.0,0.0,0.0,0.0,0.0,0.0,0.0,0.0,0.0,0.0,0.0,0.0,0.0,0.0,0.0,0.0,0.0,-0.2459,-0.2479,-0.25,-0.2509,-0.2515,-0.2515,-0.2515,-0.2515,-0.2515,-0.2515,-0.2515,-0.2515,-0.2515,-0.2515,-0.2515,-0.2515,-0.2515,-0.2515,-0.2515,-0.2515,-0.2515,-0.2515,-0.2515,-0.2515,0.0,0.0,0.0,0.0,0.0,0.0,0.0,0.0,0.0,0.0,0.0,0.0,0.0,0.0,0.0,0.0,0.0,0.0,-1.39,-1.39,-1.39,-1.39,-1.39,-1.39,-1.39,-1.39,-1.39,-1.39,-1.39,-1.3815,-1.3574,-1.3574,-1.3551,-1.3372,-1.2268,-1.1073,-0.9841,-0.8761,-0.7617,-0.6522,-0.6522,-0.6522,-0.652,0.0,0.0,0.0,0.0,0.0,0.0,0.0,-0.2829,-0.2295,-0.2323,-0.2332,-0.2332,-0.2332,-0.2312,-0.229,-0.229,-0.2268,-0.2175,-0.2175,-0.2175,-0.2175,-0.2175,-0.2219,-0.2332,-0.2332,-0.2332,-0.2332,-0.2333,-0.2333,0.0,-0.2333,0.0,0.0,0.0,0.0,0.0,0.0,0.0,0.0,0.0,0.0,0.0,0.0,0.0,0.0,0.0,0.0,0.0,0.0,-0.2436,-0.2468,-0.2469,-0.2499,-0.2514,-0.2515,-0.2515,-0.2515,-0.2515,-0.2515,-0.2515,-0.2515,-0.2515,-0.2515,-0.2515,-0.2515,-0.2515,-0.2515,-0.2515,-0.2515,-0.2515,-0.2515,-0.2515,-0.2515,0.0,0.0,0.0,0.0,0.0,0.0,0.0,0.0,0.0,0.0,0.0,0.0,0.0,0.0,0.0,0.0,0.0,0.0,-1.39,-1.39,-1.39,-1.39,-1.39,-1.39,-1.39,-1.39,-1.39,-1.39,-1.39,-1.3876,-1.3823,-1.3823,-1.3729,-1.3493,-1.2436,-1.1226,-0.9913,-0.8886,-0.7726,-0.6549,-0.6549,-0.6511,-0.6453,0.0,0.0,0.0,0.0,0.0,0.0,0.0,0.0,0.0,-0.2262,-0.22,-0.22,-0.22,-0.2265,-0.2259,-0.2259,-0.2182,-0.2175,-0.2175,-0.2175,-0.2175,-0.2175,-0.2188,-0.22,-0.22,-0.22,-0.2278,-0.2299,-0.2303,0.0,0.0,0.0,0.0,0.0,0.0,0.0,0.0,0.0,0.0,0.0,0.0,0.0,0.0,0.0,0.0,0.0,0.0,0.0,0.0,-0.2396,-0.2426,-0.2469,-0.2478,-0.2493,-0.2515,-0.2515,-0.2515,-0.2515,-0.2515,-0.2515,-0.2515,-0.2515,-0.2515,-0.2515,-0.2515,-0.2515,-0.2515,-0.2515,-0.2515,-0.2515,-0.2515,-0.2515,-0.2515,0.0,0.0,0.0,0.0,0.0,0.0,0.0,0.0,0.0,0.0,-1.39,-1.39,0.0,0.0,0.0,0.0,0.0,0.0,0.0,-1.39,-1.39,-1.39,-1.39,-1.39,-1.39,-1.39,-1.39,-1.39,-1.39,-1.39,-1.39,-1.39,-1.3847,-1.3675,-1.3028,-1.2012,-1.0749,-0.9637,-0.8529,-0.7328,-0.685,-0.6471,-0.6077,0.0,0.0,0.0,0.0,0.0,0.0,0.0,0.0,0.0,-0.2166,-0.2175,-0.2175,-0.2175,-0.2167,-0.2227,-0.2227,-0.2219,-0.2209,-0.2209,-0.2209,-0.2209,-0.2209,-0.2228,-0.2175,-0.2175,-0.2175,-0.218,-0.2269,-0.2273,0.0,0.0,0.0,0.0,0.0,0.0,0.0,0.0,0.0,0.0,0.0,0.0,0.0,0.0,0.0,0.0,0.0,0.0,0.0,0.0,-0.2372,-0.2396,-0.2433,-0.2457,-0.2478,-0.2497,-0.2508,-0.2515,-0.2515,-0.2515,-0.2515,-0.2515,-0.2515,-0.2515,-0.2515,-0.2515,-0.2515,-0.2515,-0.2515,-0.2515,-0.2515,-0.2515,-0.2515,-0.2515,0.0,0.0,0.0,0.0,0.0,0.0,0.0,0.0,0.0,0.0,-1.39,-1.39,0.0,0.0,0.0,0.0,0.0,0.0,0.0,-1.39,-1.39,-1.39,-1.39,-1.39,-1.39,-1.39,-1.39,-1.39,-1.39,-1.39,-1.39,-1.39,-1.39,-1.39,-1.39,-1.3164,-1.1959,-1.0831,-0.9628,-0.8405,-0.7154,-0.617,-0.5592,-0.5384,0.0,0.0,0.0,0.0,0.0,0.0,0.0,0.0,-0.2228,-0.2167,-0.2167,-0.2167,-0.2217,-0.2196,-0.2196,-0.2176,-0.2222,-0.2222,-0.2222,-0.2222,-0.2222,-0.2198,-0.2167,-0.2167,-0.2167,-0.2168,-0.2171,-0.2171,-0.2172,0.0,0.0,0.0,0.0,0.0,0.0,0.0,0.0,0.0,0.0,0.0,0.0,0.0,0.0,0.0,0.0,0.0,0.0,-0.2333,-0.236,-0.2375,-0.2378,-0.2433,-0.2463,0.0,-0.2497,-0.2512,-0.2515,-0.2515,-0.2515,-0.2515,-0.2515,-0.2515,-0.2515,-0.2515,-0.2515,-0.2515,-0.2515,-0.2515,-0.2515,-0.2515,-0.2515,-0.2515,0.0,0.0,0.0,0.0,0.0,0.0,0.0,0.0,0.0,0.0,0.0,0.0,0.0,0.0,0.0,0.0,0.0,0.0,0.0,-1.39,-1.39,-1.39,-1.39,-1.39,-1.39,-1.39,-1.39,-1.39,-1.39,-1.39,-1.39,-1.39,-1.39,-1.39,-1.39,-1.3234,-1.2055,-1.0911,-0.9689,-0.8452,-0.661,-0.5794,-0.5457,-0.4258,-0.3559,0.0,0.0,0.0,0.0,0.0,0.0,0.0,-0.2172,-0.2174,-0.2174,-0.2174,-0.217,-0.2232,-0.2232,-0.2227,-0.2222,-0.2222,-0.2222,-0.2222,-0.2222,-0.2232,-0.2174,-0.2174,-0.2174,-0.2181,-0.2205,-0.221,0.0,0.0,0.0,0.0,0.0,0.0,0.0,0.0,0.0,0.0,0.0,0.0,0.0,0.0,0.0,0.0,0.0,0.0,0.0,-0.2333,-0.2339,-0.2354,-0.2378,-0.2391,-0.2422,0.0,-0.2476,-0.2491,-0.2515,-0.2515,-0.2515,-0.2515,-0.2515,-0.2515,-0.2515,-0.2515,-0.2515,-0.2515,-0.2515,-0.2515,-0.2515,-0.2515,-0.2515,-0.2515,0.0,0.0,0.0,0.0,0.0,0.0,0.0,0.0,0.0,0.0,0.0,0.0,0.0,0.0,0.0,0.0,0.0,0.0,0.0,0.0,-1.39,-1.39,-1.39,-1.39,-1.39,-1.39,-1.39,-1.39,-1.39,-1.39,-1.39,-1.39,-1.39,-1.39,-1.39,-1.3543,-1.2896,-1.1168,-0.9833,-0.8767,-0.6626,-0.5314,-0.4494,-0.3688,-0.3186,-0.2757,-0.2372,0.0,0.0,0.0,0.0,0.0,0.0,0.0,-0.2222,-0.2222,-0.2222,-0.2222,-0.2222,-0.2222,-0.2222,-0.2222,-0.2222,-0.2222,-0.2222,-0.2222,-0.2222,-0.2222,-0.2222,-0.2227,-0.2175,0.0,0.0,0.0,0.0,0.0,0.0,0.0,0.0,0.0,0.0,0.0,0.0,0.0,0.0,0.0,0.0,0.0,0.0,-0.2333,-0.2333,-0.2333,-0.2333,-0.234,-0.2356,-0.2371,-0.2394,-0.2426,-0.2455,-0.2485,-0.2515,-0.2515,-0.2515,-0.2515,-0.2515,-0.2515,-0.2515,-0.2515,-0.2515,-0.2515,-0.2515,-0.2515,-0.2515,-0.2515,-0.2515,-0.2515,0.0,0.0,0.0,0.0,0.0,0.0,0.0,0.0,0.0,0.0,0.0,0.0,0.0,0.0,0.0,0.0,0.0,0.0,0.0,0.0,0.0,-1.39,-1.39,-1.39,-1.39,-1.39,-1.39,-1.39,-1.39,-1.39,-1.39,-1.39,-1.39,-1.39,-1.39,-1.3757,-1.3472,-1.1165,-0.972,-0.8776,-0.64,-0.4664,-0.3497,-0.3315,-0.2871,-0.2294,-0.2264,-0.2234,-0.2207,-0.2202,0.0,0.0,0.0,0.0,-0.2222,-0.2222,-0.2222,-0.2222,-0.2222,-0.2222,-0.2222,-0.2222,-0.2222,-0.2222,-0.2222,-0.2222,-0.2222,-0.2222,-0.2222,-0.2222,0.0,0.0,0.0,0.0,0.0,0.0,0.0,0.0,0.0,0.0,0.0,0.0,0.0,0.0,0.0,0.0,0.0,0.0,-0.2333,-0.2333,-0.2333,-0.2333,-0.2333,-0.2333,-0.2333,-0.2358,-0.2373,-0.2379,-0.2434,-0.2477,-0.2506,-0.2506,-0.2509,-0.2515,-0.2515,-0.2515,-0.2515,-0.2515,-0.2515,-0.2515,-0.2515,-0.2515,-0.2515,-0.2515,-0.2515,-0.2515,0.0,0.0,0.0,0.0,0.0,0.0,0.0,0.0,0.0,0.0,-1.39,-1.39,0.0,0.0,0.0,0.0,0.0,0.0,0.0,0.0,0.0,-1.39,-1.39,-1.39,-1.39,-1.39,-1.39,-1.39,-1.39,-1.39,-1.39,-1.39,-1.39,-1.39,-1.39,-1.3329,-1.232,-1.029,-0.8848,-0.7625,-0.4879,-0.3718,-0.3427,-0.2692,-0.24,-0.2323,-0.2295,-0.2265,-0.2165,-0.2208,-0.218,0.0,0.0,0.0,-0.2222,-0.2222,-0.2222,-0.2222,-0.2222,-0.2222,-0.2222,-0.2222,-0.2222,-0.2222,-0.2222,-0.2222,-0.2222,0.0,-0.2222,0.0,0.0,0.0,0.0,0.0,0.0,0.0,0.0,0.0,0.0,0.0,0.0,0.0,0.0,0.0,0.0,0.0,0.0,0.0,-0.2331,-0.2333,-0.2333,-0.2333,-0.2333,-0.2333,-0.2333,-0.2337,-0.2352,-0.2378,-0.2413,-0.2446,-0.2475,-0.2475,-0.2489,-0.2515,-0.2515,-0.2515,-0.2515,-0.2515,-0.2515,-0.2515,-0.2515,-0.2515,-0.2515,-0.2515,-0.2515,-0.2515,0.0,0.0,0.0,0.0,0.0,0.0,0.0,0.0,0.0,0.0,0.0,-1.39,0.0,0.0,0.0,0.0,0.0,0.0,0.0,0.0,0.0,-1.39,-1.39,-1.39,-1.39,-1.39,-1.39,-1.39,-1.39,-1.39,-1.39,-1.3686,-1.3686,-1.39,-1.39,-1.3035,-1.1449,-0.9928,-0.8124,-0.6103,-0.4226,-0.3209,-0.277,-0.2405,-0.2333,-0.2331,-0.2319,-0.2296,-0.2266,-0.2236,-0.2205,-0.2177,-0.2228,0.0,0.0,0.0,-0.2222,-0.2222,-0.2222,-0.2222,-0.2222,-0.2222,-0.2222,-0.2222,-0.2222,-0.2222,-0.2222,-0.2222,-0.2222,0.0,0.0,0.0,0.0,0.0,0.0,0.0,0.0,0.0,0.0,0.0,0.0,0.0,0.0,0.0,0.0,0.0,0.0,-0.2296,-0.2309,-0.2324,-0.2333,-0.2333,-0.2333,-0.2333,-0.2333,-0.2333,-0.2348,-0.2378,-0.2392,-0.2414,-0.2444,-0.2461,-0.2486,-0.2515,-0.2515,-0.2515,-0.2515,-0.2515,-0.2515,-0.2515,-0.2515,-0.2515,-0.2515,-0.2515,-0.2515,-0.2515,0.0,0.0,0.0,0.0,0.0,0.0,0.0,0.0,0.0,0.0,0.0,0.0,0.0,0.0,0.0,0.0,0.0,0.0,0.0,0.0,0.0,-1.39,-1.39,-1.39,-1.39,-1.39,-1.39,-1.39,-1.39,-1.39,-1.39,-1.3615,-1.3543,-1.3757,-1.3686,-1.2456,-1.0506,-0.9347,-0.7255,-0.4657,-0.3644,-0.2843,-0.2333,-0.2333,-0.2333,-0.2333,-0.2333,-0.2315,-0.2286,-0.2256,-0.2225,-0.2195,-0.2232,-0.2222,0.0,0.0,0.0,-0.2222,-0.2222,-0.2222,-0.2222,-0.2222,-0.2222,-0.2222,-0.2222,-0.2222,-0.2222,0.0,0.0,0.0,0.0,0.0,0.0,0.0,0.0,0.0,0.0,0.0,0.0,0.0,0.0,0.0,0.0,0.0,0.0,0.0,0.0,-0.2275,-0.229,-0.2311,-0.2325,-0.2333,-0.2333,-0.2333,-0.2333,-0.2333,-0.2344,-0.2367,-0.2367,-0.2383,-0.2413,-0.2435,-0.2462,-0.2492,-0.2508,-0.2515,-0.2515,-0.2515,-0.2515,-0.2515,-0.2515,-0.2515,-0.2515,-0.2515,-0.2515,-0.2515,0.0,0.0,0.0,0.0,0.0,0.0,0.0,0.0,0.0,0.0,0.0,0.0,-1.39,-1.39,-1.39,-1.39,-1.39,-1.39,-1.39,-1.39,-1.39,-1.39,-1.39,0.0,-1.39,-1.39,-1.39,-1.39,-1.39,-1.39,-1.39,-1.39,-1.3686,-1.3325,-1.2968,-1.1592,-0.9277,-0.8119,-0.6031,-0.35,-0.2698,-0.2333,-0.2333,-0.2333,-0.2333,-0.2333,-0.2333,-0.2315,-0.2286,-0.2256,-0.2225,-0.2195,-0.2232,-0.2222,-0.2222,0.0,0.0,0.0,-0.2222,-0.2222,-0.2222,-0.2222,-0.2222,-0.2222,-0.2222,0.0,-0.2222,0.0,0.0,0.0,0.0,0.0,0.0,0.0,0.0,0.0,0.0,0.0,0.0,0.0,0.0,0.0,0.0,0.0,0.0,0.0,0.0,-0.223,-0.2288,-0.2292,-0.2305,-0.2332,-0.2333,-0.2333,-0.2333,-0.2333,-0.2333,-0.2335,-0.2335,-0.2351,-0.238,-0.2382,-0.2399,-0.2431,-0.2489,-0.2515,-0.2515,-0.2515,-0.2515,-0.2515,-0.2515,-0.2515,-0.2515,-0.2515,-0.2515,-0.2515,0.0,0.0,0.0,0.0,0.0,0.0,0.0,0.0,0.0,0.0,0.0,0.0,0.0,-1.39,-1.39,-1.39,-1.39,-1.39,-1.39,-1.39,-1.39,-1.39,-1.39,-1.39,-1.39,-1.3686,-1.3539,-1.3539,-1.3329,-1.3182,-1.3182,-1.2904,-1.2904,-1.2968,-1.3111,-1.1811,-0.9571,-0.8121,-0.6246,-0.4152,-0.2842,-0.2333,-0.2333,-0.2333,-0.2333,-0.2333,-0.2333,-0.2326,-0.2313,-0.2284,-0.2254,-0.2223,-0.2193,-0.217,-0.2222,-0.2222,-0.2222,-0.2222,-0.2222,-0.2222,-0.2222,-0.2222,-0.2222,-0.2222,-0.2222,-0.2222,-0.2222,0.0,0.0,0.0,0.0,0.0,0.0,0.0,0.0,0.0,0.0,0.0,0.0,0.0,0.0,0.0,0.0,0.0,0.0,0.0,0.0,0.0,-0.2232,-0.227,-0.2295,-0.2305,-0.2323,-0.2333,-0.2333,-0.2333,-0.2333,-0.2333,-0.2333,-0.2338,-0.235,-0.2369,-0.2384,-0.2397,-0.2438,-0.2467,-0.2487,-0.2506,-0.2515,-0.2515,-0.2515,-0.2515,-0.2515,-0.2515,-0.2515,-0.2515,0.0,0.0,0.0,0.0,0.0,0.0,0.0,0.0,0.0,-1.39,0.0,0.0,0.0,0.0,-1.39,-1.39,-1.3957,-1.3993,-1.3993,-1.4046,-1.4079,-1.4079,-1.3938,-1.387,-1.387,-1.3446,-1.3225,-1.3283,-1.2952,-1.2854,-1.2835,-1.2571,-1.2474,-1.2617,-1.2828,-1.1524,-0.8992,-0.7835,-0.6029,-0.3786,-0.2696,-0.2333,-0.2333,-0.2333,-0.2333,-0.2333,-0.2333,-0.2333,-0.2328,-0.23,-0.2277,-0.2253,-0.2213,-0.2179,-0.2222,-0.2222,-0.2222,-0.2222,-0.2222,-0.2222,-0.2222,-0.2222,-0.2222,-0.2222,-0.2222,-0.2222,-0.2222,0.0,0.0,0.0,0.0,0.0,0.0,0.0,0.0,0.0,0.0,0.0,0.0,0.0,0.0,0.0,0.0,0.0,0.0,0.0,0.0,0.0,-0.22,-0.2238,-0.227,-0.229,-0.2318,-0.2333,-0.2333,-0.2333,-0.2333,-0.2333,-0.2333,-0.2333,-0.2333,-0.2354,-0.2363,-0.2365,-0.2395,-0.2426,-0.2455,-0.2476,-0.249,-0.2499,-0.2499,-0.2505,-0.2513,-0.2503,-0.2499,-0.2497,0.0,0.0,0.0,0.0,0.0,0.0,0.0,0.0,-1.39,-1.39,0.0,0.0,0.0,0.0,0.0,-1.3908,-1.4075,-1.418,-1.4184,-1.4343,-1.4432,-1.4432,-1.3995,-1.378,-1.378,-1.3243,-1.3019,-1.3178,-1.2928,-1.2853,-1.2937,-1.2846,-1.2556,-1.2201,-1.2201,-1.0449,-0.7542,-0.7185,-0.5304,-0.2405,-0.2405,-0.2333,-0.2333,-0.2333,-0.2333,-0.2333,-0.2333,-0.2333,-0.2328,-0.2301,-0.2292,-0.228,-0.2219,-0.218,-0.2223,-0.2223,-0.2222,-0.2222,0.0,0.0,0.0,-0.2222,-0.2222,0.0,-0.2222,0.0,-0.2222,0.0,0.0,0.0,0.0,0.0,0.0,0.0,0.0,0.0,0.0,0.0,0.0,0.0,0.0,0.0,0.0,0.0,0.0,0.0,0.0,-0.2168,-0.2197,-0.22,-0.2228,-0.2288,-0.2317,-0.2331,-0.2331,-0.2333,-0.2333,-0.2333,-0.2333,-0.2333,-0.2333,-0.2333,-0.2333,-0.2335,-0.2364,-0.2393,-0.2421,-0.2423,-0.2441,-0.2467,-0.2467,-0.2486,-0.2508,-0.2478,-0.2467,-0.2463,0.0,0.0,0.0,0.0,0.0,0.0,-1.39,-1.39,-1.39,0.0,0.0,0.0,-1.39,-1.39,-1.3953,-1.4091,-1.4148,-1.4233,-1.4355,-1.4408,-1.4432,-1.4432,-1.3995,-1.378,-1.378,-1.3059,-1.2763,-1.2806,-1.242,-1.2328,-1.237,-1.2325,-1.2171,-1.1918,-1.1918,-1.0759,-0.8781,-0.8709,-0.7548,-0.5594,-0.4511,-0.335,-0.2333,-0.2333,-0.2333,-0.2333,-0.2333,-0.2333,-0.2332,-0.2324,-0.2307,-0.228,-0.2219,-0.2194,-0.2183,-0.2229,-0.2222,-0.2222,-0.2222,0.0,0.0,0.0,0.0,0.0,0.0,0.0,0.0,0.0,0.0,0.0,0.0,0.0,0.0,0.0,0.0,0.0,0.0,0.0,0.0,0.0,0.0,0.0,0.0,0.0,0.0,0.0,-0.2222,-0.2226,-0.2167,-0.2188,-0.2218,-0.2257,-0.2287,-0.2303,-0.2303,-0.2322,-0.2333,-0.2333,-0.2333,-0.2333,-0.2333,-0.2333,-0.2333,-0.2333,-0.2341,-0.235,-0.2361,-0.2405,-0.2429,-0.2436,-0.2436,-0.2442,-0.2448,-0.2439,-0.2436,-0.2435,0.0,0.0,0.0,0.0,0.0,-1.39,-1.39,-1.39,-1.39,0.0,0.0,0.0,-1.39,-1.3969,-1.4062,-1.4168,-1.4314,-1.444,-1.4542,-1.4615,-1.4655,-1.4655,-1.4061,-1.3759,-1.3759,-1.2943,-1.2487,-1.2546,-1.2271,-1.2094,-1.2155,-1.2166,-1.2013,-1.1925,-1.186,-1.1265,-1.0311,-1.0257,-0.9,-0.6898,-0.6031,-0.4728,-0.3278,-0.3278,-0.2914,-0.2333,-0.2333,-0.2333,-0.2333,-0.2333,-0.2314,-0.2285,-0.2249,-0.223,-0.2213,-0.2183,-0.2174,-0.2171,-0.2225,-0.2222,-0.2222,-0.2222,0.0,0.0,-0.2222,-0.2222,0.0,0.0,0.0,0.0,0.0,0.0,0.0,0.0,0.0,0.0,0.0,0.0,0.0,0.0,0.0,0.0,0.0,0.0,0.0,-0.0403,-0.0807,-0.1413,-0.2155,-0.2184,-0.2208,-0.2226,-0.2256,-0.2278,-0.2291,-0.2307,-0.2321,-0.2333,-0.2333,-0.2333,-0.2333,-0.2333,-0.2333,-0.2333,-0.2333,-0.2333,-0.2335,-0.2371,-0.2393,-0.2405,-0.2405,-0.2412,-0.2422,-0.2409,-0.2405,-0.2403,0.0,0.0,0.0,-1.39,-1.39,-1.39,-1.39,-1.39,-1.39,0.0,-1.39,-1.3908,-1.3928,-1.4079,-1.4124,-1.416,-1.4451,-1.4565,-1.4585,-1.473,-1.4887,-1.4887,-1.4045,-1.3663,-1.3663,-1.2762,-1.2376,-1.2501,-1.224,-1.2179,-1.2311,-1.2176,-1.2176,-1.2081,-1.1925,-1.1847,-1.1823,-1.1681,-1.0017,-0.7476,-0.7331,-0.632,-0.4947,-0.4729,-0.3786,-0.2551,-0.2333,-0.2333,-0.2333,-0.2333,-0.2316,0.0,-0.2292,-0.227,-0.217,-0.2213,-0.22,-0.219,-0.2234,-0.2225,-0.2222,-0.2222,-0.2222,0.0,-0.2155,-0.2155,-0.2155,0.0,0.0,0.0,0.0,0.0,0.0,0.0,0.0,0.0,0.0,0.0,0.0,0.0,0.0,0.0,0.0,0.2616,0.2817,0.2281,0.1142,-0.0202,-0.1818,-0.2112,-0.2195,-0.2195,-0.2224,-0.2253,-0.228,-0.2288,-0.2303,-0.2328,-0.2331,-0.2333,-0.2333,-0.2333,-0.2333,-0.2333,-0.2333,-0.2333,-0.2333,-0.2333,-0.2349,-0.2373,-0.2373,-0.239,-0.241,-0.2383,-0.2373,-0.2369,0.0,0.0,-1.39,-1.39,-1.39,-1.39,-1.39,-1.39,-1.39,-1.39,-1.39,-1.3957,-1.4107,-1.3865,-1.385,-1.4125,-1.391,-1.3778,-1.3915,-1.3953,-1.3972,-1.3972,-1.3509,-1.32,-1.32,-1.2706,-1.2474,-1.2501,-1.2444,-1.243,-1.2461,-1.243,-1.2355,-1.224,-1.2088,-1.1948,-1.1823,-1.1681,-1.1253,-1.0599,-0.9363,-0.7912,-0.6391,-0.5164,-0.4513,-0.4077,-0.2769,-0.2333,-0.2333,-0.2333,-0.2329,-0.232,0.0,0.0,0.0,-0.2169,-0.2202,-0.2168,-0.2186,-0.2173,-0.2222,0.0,0.0,0.0,-0.1818,-0.175,-0.1616,0.0,0.0,0.0,0.0,0.0,0.0,0.0,0.0,0.0,0.0,0.0,0.0,0.0,0.0,0.0,0.0,0.1745,0.2482,0.295,0.141,0.0336,0.0,-0.1417,-0.2231,-0.2231,-0.2193,-0.2212,-0.2218,-0.2266,-0.2294,-0.2299,-0.2322,-0.2333,-0.2333,-0.2333,-0.2333,-0.2333,-0.2333,-0.2333,-0.2333,-0.2333,-0.2336,-0.2341,-0.2341,-0.2345,-0.235,-0.2344,-0.2341,-0.2341,-1.39,-1.39,-1.39,-1.39,-1.39,-1.39,-1.39,-1.39,-1.39,-1.39,-1.3757,-1.3682,-1.3865,-1.3594,-1.3527,-1.3774,-1.3645,-1.3651,-1.3737,-1.3663,-1.3663,-1.3663,-1.3274,-1.312,-1.312,-1.2733,-1.2501,-1.2501,-1.2501,-1.2501,-1.2501,-1.2501,-1.2427,-1.2284,-1.2132,-1.1976,-1.1823,-1.1681,-1.1619,-1.1548,-1.0743,-0.9072,-0.6896,-0.6176,-0.4872,-0.3423,-0.2624,-0.2333,-0.2333,-0.2333,-0.2333,0.0,-0.2316,-0.2301,-0.2215,0.0,-0.2247,-0.2219,0.0,0.0,0.0,-0.2226,0.0,0.0,0.0,-0.1481,-0.1279,0.0,0.0,0.0,0.0,0.0,0.0,0.0,0.0,0.0,0.0,0.0,0.0,0.0,0.0,0.0,0.0,0.3423,0.3825,0.3957,0.2483,0.1276,0.0538,-0.1009,-0.202,-0.2222,-0.217,-0.2185,-0.22,-0.223,-0.2253,-0.2268,-0.2298,-0.2311,-0.2313,-0.2326,-0.2333,-0.2333,-0.2333,-0.2333,-0.2333,-0.2333,-0.2333,-0.2333,-0.2333,-0.2333,-0.2333,-0.2333,-0.2333,-0.2333,-1.3757,-1.3829,-1.39,-1.3829,-1.3829,-1.39,-1.39,-1.39,-1.39,-1.3757,-1.3472,-1.3323,-1.3497,-1.3273,-1.3208,-1.3397,-1.3388,-1.3476,-1.3505,-1.3432,-1.3432,-1.3432,-1.3123,-1.2965,-1.2965,-1.2656,-1.2501,-1.2501,-1.2501,-1.2501,-1.2501,-1.2501,-1.2427,-1.2284,-1.1825,-1.1676,-1.1746,-1.1312,-1.1181,-1.1181,-1.1181,-0.9654,-0.7404,-0.6753,-0.4944,-0.2696,-0.2405,-0.2333,-0.2333,-0.2333,-0.2333,-0.2333,-0.2333,-0.2329,0.0,0.0,0.0,0.0,0.0,0.0,0.0,0.0,0.0,-0.1554,0.0,0.0,0.0,0.0,0.0,0.0,0.0,0.0,0.0,0.0,0.0,0.0,0.0,0.0,0.0,0.0,0.0,0.0,0.0,0.5237,0.5438,0.5101,0.3758,0.2416,0.1209,-0.0538,-0.1683,-0.2087,-0.2087,-0.2099,-0.2191,-0.2197,-0.2212,-0.2167,-0.2267,-0.2282,-0.2283,-0.2311,-0.2324,-0.2325,-0.233,-0.2333,-0.2333,-0.2333,-0.2333,-0.2333,-0.2333,-0.2333,-0.2333,-0.2333,-0.2333,-0.2333,-1.3396,-1.3686,-1.3757,-1.3396,0.0,0.0,-1.39,-1.39,-1.3757,-1.3396,-1.3325,-1.3247,-1.3061,-1.3021,-1.3008,-1.2932,-1.2681,-1.2522,-1.2649,-1.2656,-1.2656,-1.2656,-1.2579,-1.2579,-1.2579,-1.2501,-1.2501,-1.2501,-1.2501,-1.2501,-1.2501,-1.2501,-1.2427,-1.2208,-1.0682,-1.0625,-1.1673,-1.0215,-0.9582,-0.9582,-0.9582,-0.9363,0.0,-0.6032,-0.4729,-0.4222,-0.2842,-0.2333,-0.2333,0.0,-0.2333,-0.2333,0.0,-0.2315,-0.23,-0.2322,0.0,0.0,0.0,0.0,0.0,0.0,-0.1714,0.0,0.0,0.0,-0.0471,-0.0202,0.0,0.0,0.0,0.0,0.0,0.0,0.0,0.0,0.0,0.0,0.0,0.0,0.0,0.0,0.0,0.0,0.6241,0.6241,0.4628,0.3622,0.3421,0.0538,-0.1346,-0.1683,-0.1683,-0.1819,-0.2228,-0.2187,-0.2202,-0.2206,-0.2236,-0.218,-0.2181,-0.2281,-0.2296,-0.2297,-0.2322,-0.2333,-0.2333,-0.2333,-0.2333,-0.2333,-0.2333,-0.2333,-0.2333,-0.2333,-0.2333,-0.2333,-1.3253,-1.3253,-1.3325,-1.3615,0.0,0.0,-1.3543,-1.3396,-1.3186,-1.3039,-1.2832,-1.2717,-1.275,-1.2557,-1.2532,-1.2685,-1.2486,-1.2437,0.0,-1.2501,-1.2501,-1.2501,-1.2501,-1.2501,-1.2501,-1.2501,-1.2501,-1.2501,-1.2501,-1.2501,-1.2501,-1.2501,-1.2379,-1.208,-1.0421,-0.9911,-1.0236,-0.8654,-0.7984,0.0,0.0,-0.6612,0.0,-0.5165,-0.4149,-0.3205,-0.2551,-0.2333,-0.2333,0.0,-0.2333,0.0,0.0,0.0,0.0,-0.2329,0.0,0.0,0.0,0.0,0.0,0.0,0.0,0.0,-0.0613,0.0,-0.0202,0.0,0.0,0.0,0.0,0.0,0.0,0.0,0.0,0.0,0.0,0.0,0.0,0.0,0.0,0.0,0.0,0.0,0.0,0.0,0.0,0.4896,0.3823,0.1679,-0.0067,-0.1279,-0.1279,-0.1481,-0.1818,-0.1828,-0.197,-0.2174,-0.2204,-0.2219,-0.222,-0.2251,-0.2264,-0.2266,-0.2296,-0.2308,-0.2309,-0.2326,-0.2333,-0.2333,-0.2333,-0.2333,-0.2333,-0.2333,-0.2333,-0.2333,-1.29,-1.2896,-1.2968,-1.3543,-1.3329,-1.3182,-1.3182,-1.2828,-1.2613,-1.2613,-1.2406,-1.2207,-1.2286,-1.2237,-1.221,-1.2355,-1.2379,-1.2416,0.0,-1.2501,-1.2266,-1.1798,-1.2266,-1.2269,-1.1798,-1.2266,-1.2501,-1.2501,-1.2501,-1.2501,-1.2501,-1.2501,-1.2113,-1.1379,-0.9794,-0.8918,-0.8564,-0.7044,-0.6391,-0.6246,-0.5164,-0.4439,-0.4077,-0.4077,-0.335,-0.2333,-0.2333,-0.2333,-0.2333,-0.2333,-0.2333,0.0,-0.2333,0.0,0.0,0.0,0.0,0.0,-0.2308,0.0,0.0,0.0,0.0,0.0,0.0,0.0,0.0,0.0,0.0,0.0,0.0,0.0,0.0,0.0,0.0,0.0,0.0,0.0,0.0,0.0,0.0,0.0,0.0,0.0,0.0,0.5168,0.557,0.5098,0.3422,0.1948,0.0538,-0.0875,-0.0942,-0.1077,-0.1481,-0.1481,-0.1683,-0.202,-0.2041,-0.2119,-0.2189,-0.2219,-0.2233,-0.2234,-0.2265,-0.2278,-0.2281,-0.2309,-0.2321,-0.2322,-0.233,-0.2333,-0.2333,-0.2333,-0.2333,-0.2333,-1.2194,-1.2545,-1.2824,-1.2824,-1.2824,-1.2824,-1.2824,-1.2474,-1.2194,-1.2194,-1.2194,-1.2058,-1.1705,-1.1993,-1.2188,-1.2125,-1.2077,-1.2196,-1.2481,0.0,-1.1798,-1.0161,-1.1643,-1.1721,-1.0086,-1.1643,-1.2501,-1.2501,-1.2501,-1.2501,-1.2501,-1.2501,-1.1568,-0.9716,-0.8143,-0.729,-0.697,-0.5454,-0.4802,-0.4802,-0.4729,-0.3786,-0.2405,0.0,-0.2333,-0.2333,-0.2333,0.0,0.0,-0.2333,-0.2333,0.0,0.0,0.0,0.0,0.0,0.0,0.0,0.0,0.0,0.0,-0.1363,0.0,0.0,0.0,0.0,0.0,0.0,0.0,0.0,0.0,0.0,0.0,0.0,0.0,0.0,0.0,0.0,0.0,0.0,0.0,0.0,0.0,0.0,0.0,0.4427,0.4361,0.3691,0.2218,0.0807,-0.0135,-0.0538,-0.0538,-0.074,-0.1144,-0.1144,-0.1279,-0.1616,-0.1617,-0.1819,-0.2225,-0.2187,-0.2202,-0.2203,-0.2234,-0.2176,-0.2179,-0.2279,-0.2292,-0.2295,-0.2322,-0.2333,-0.2333,-0.2333,-0.2333,-0.2333,-1.1835,-1.1903,-1.2187,-1.2681,-1.2613,-1.2406,0.0,-1.2051,0.0,0.0,-1.1835,0.0,0.0,-1.1831,-1.1986,0.0,0.0,-1.2104,-1.2203,-1.2213,0.0,-0.9842,-1.146,-1.1587,0.0,0.0,-1.2501,-1.2501,-1.2501,-1.2501,-1.2498,-1.1395,-1.041,-0.9564,-0.6957,-0.5617,-0.538,-0.3786,-0.3132,0.0,0.0,-0.2769,-0.2333,0.0,0.0,-0.2333,-0.2333,-0.2333,0.0,-0.2333,-0.2333,-0.2333,-0.2333,-0.2333,-0.2333,-0.2333,-0.2333,0.0,0.0,0.0,-0.1803,-0.1303,0.0,0.0,0.0,0.0,0.0,0.0,0.0,0.0,0.0,0.0,0.0,0.0,0.0,0.0,0.0,0.0,0.0,0.0,0.0,0.0,0.0,0.0,0.0,0.4361,0.4293,0.3624,0.0,0.1681,0.0942,-0.0135,-0.0202,-0.0337,-0.0673,-0.0673,-0.0875,-0.1279,-0.1481,-0.1683,-0.1818,-0.2098,-0.217,-0.2172,-0.2202,-0.2215,-0.2218,-0.2248,-0.2261,-0.2264,-0.2293,-0.2305,-0.2307,-0.2326,-0.2333,-0.2333,-1.1619,-1.1619,-1.1832,-1.2474,-1.2406,-1.2122,0.0,0.0,0.0,0.0,-1.1619,0.0,-1.1745,0.0,-1.1002,0.0,-1.0634,-1.0577,-1.1226,-1.0703,0.0,-0.8893,-0.9949,-0.9842,0.0,0.0,0.0,0.0,-1.1309,-1.1306,-1.0714,-0.9632,-0.8678,-0.7936,-0.5803,-0.4495,-0.3786,-0.2769,-0.2333,0.0,0.0,-0.2333,0.0,0.0,-0.2333,-0.2333,0.0,-0.2333,-0.2333,-0.2333,-0.2333,-0.2333,-0.2333,-0.2333,-0.2333,-0.2333,-0.2333,-0.2333,-0.2333,-0.2029,0.0,-0.1311,-0.0865,0.0,-0.0072,0.0,0.0,0.0,0.0,0.0,0.0,0.0,0.0,0.0,0.0,0.0,0.0,0.0,0.0,0.0,0.0,0.0,0.0,0.0,0.4093,0.3558,0.349,0.2887,0.0,0.0,0.0942,0.0,0.0,-0.0135,-0.0337,-0.0337,-0.0538,-0.0875,-0.1077,-0.1279,-0.1414,-0.1818,-0.202,-0.2021,-0.2107,-0.2184,-0.2187,-0.2217,-0.223,-0.2232,-0.2263,-0.2281,-0.2294,-0.2322,-0.2333,-0.2333,0.0,-1.1619,-1.1691,-1.2122,-1.2194,0.0,0.0,0.0,-1.1619,0.0,-1.1619,-1.1548,-1.1472,-1.0161,-0.9337,-0.9378,-0.8058,-0.7875,-0.9465,-0.8204,0.0,0.0,-0.7308,-0.6634,-0.4904,0.0,0.0,0.0,0.0,-0.9079,-0.7525,-0.7444,-0.6521,-0.4898,-0.4819,-0.3831,-0.2333,-0.2333,-0.2333,-0.2333,-0.2333,-0.2333,-0.2333,-0.2333,-0.2333,-0.2333,-0.2333,-0.2333,-0.2333,-0.2333,-0.2333,-0.2333,-0.2333,-0.2333,-0.2333,-0.2333,-0.2333,-0.2333,-0.2333,-0.2041,-0.1677,-0.1313,0.0,0.0,0.0,0.0,0.0,0.0,0.0,0.0,0.0,0.0,0.0,0.0,0.0,0.0,0.0,0.0,0.0,0.0,0.0,0.0,0.0,0.416,0.3624,0.2218,0.2084,0.1479,0.0,0.0,0.0067,0.0,0.0,0.0,0.0,0.0,-0.0135,-0.0471,-0.0471,-0.0673,-0.1077,-0.1414,-0.1548,-0.1616,-0.202,-0.2155,-0.2157,-0.2186,-0.2198,-0.2201,-0.2232,-0.2262,-0.2292,-0.2322,-0.2333,-0.2333,-1.14,-1.1619,-1.1619,0.0,-1.1763,-1.1691,0.0,0.0,0.0,0.0,-1.1619,-1.1181,-1.0017,-0.9507,-0.8866,-0.7729,-0.7295,0.0,0.0,0.0,0.0,-0.5362,-0.659,-0.655,-0.4919,-0.7006,-0.7882,-0.7429,0.0,-0.7831,-0.7427,-0.6164,-0.53,-0.4821,-0.3529,-0.2705,-0.2333,-0.2333,-0.2333,-0.2333,-0.2333,-0.2333,0.0,0.0,-0.2333,-0.2333,-0.2333,-0.2333,-0.2333,-0.2333,-0.2333,-0.2333,-0.2333,-0.2333,-0.2333,-0.2333,-0.2333,-0.2333,-0.2333,-0.1824,-0.1313,-0.1241,-0.0657,-0.0146,0.0,0.0,0.0,0.0,0.0,0.0,0.0,0.0,0.0,0.0,0.0,0.0,0.0,0.0,0.0,0.0,0.0,0.0,0.0,0.2687,0.2486,0.2151,0.2084,0.0,0.0,0.0,0.0,0.0,0.0,0.0,0.0,0.0,-0.0067,-0.0135,-0.0404,-0.0538,-0.0673,-0.1077,-0.1212,-0.1279,-0.1616,-0.175,-0.1751,-0.2095,-0.2234,-0.217,-0.22,-0.223,-0.2263,-0.2314,-0.2333,-0.2333,-0.9435,0.0,0.0,-1.0455,0.0,0.0,-1.14,-1.1619,0.0,-1.1619,-1.1034,0.0,-0.9363,-0.8131,-0.6974,-0.6103,-0.5378,0.0,-0.5958,0.0,0.0,-0.4729,-0.4907,-0.4632,-0.3754,-0.5435,0.0,-0.5245,0.0,-0.5947,-0.5168,-0.4244,-0.3775,-0.3753,-0.2705,-0.2333,-0.2333,-0.2333,-0.2333,-0.2333,-0.2333,0.0,0.0,-0.2333,-0.2333,-0.2333,-0.2333,-0.2333,-0.2333,-0.2333,-0.2333,-0.2333,-0.2333,-0.2333,-0.2333,-0.2333,-0.2333,-0.2333,-0.2333,-0.1751,-0.1168,-0.1168,-0.0584,0.0,0.0,0.0,0.0,0.0,0.0,0.0,0.0,0.0,0.0,0.0,0.0,0.0,0.0,0.0,0.0,0.0,0.0,0.0,0.0,0.0,0.1412,0.2084,0.0,0.0,0.0,0.0,0.0,0.0067,0.0,0.0,0.0,0.0,0.0,0.0,-0.0202,-0.0269,-0.0269,-0.0673,-0.0808,-0.0875,-0.1212,-0.1481,-0.1616,-0.1818,-0.202,-0.2225,-0.2188,-0.2211,-0.2231,-0.2277,-0.2303,-0.2315,0.0,0.0,0.0,0.0,0.0,0.0,0.0,-1.1109,0.0,-1.1034,0.0,-0.8928,-0.8711,-0.6324,-0.4585,-0.4439,0.0,-0.2914,-0.4295,-0.306,-0.2914,-0.4295,-0.306,-0.2333,-0.2333,-0.3755,-0.385,0.0,0.0,-0.3815,-0.2372,-0.2372,-0.2358,-0.2333,-0.2333,-0.2333,0.0,-0.2333,-0.2333,-0.2333,-0.2333,-0.2333,-0.2333,-0.2333,-0.2333,-0.2333,-0.2333,-0.2333,-0.2333,-0.2333,-0.2333,-0.2333,-0.2333,-0.2333,-0.2333,-0.2333,-0.2333,-0.2333,-0.2333,-0.1751,-0.1168,-0.1168,-0.0584,0.0,0.0,0.0,0.0,0.0,0.0,0.0,0.0,0.0,0.0,0.0,0.0,0.0,0.0,0.0,0.0,0.0,0.0,0.0,0.0,0.0,0.0,0.0,0.0,0.0,0.0,0.0,0.0,0.0067,0.0,0.0,0.0,0.0,0.0,0.0,0.0,0.0,0.0,-0.0269,-0.0404,-0.0471,-0.0875,-0.1212,-0.1481,-0.1548,-0.1818,-0.2225,-0.2184,-0.2194,-0.2197,-0.2223,-0.2253,-0.2279,0.0,0.0,0.0,0.0,0.0,-0.7621,-0.9435,-0.8636,-0.7837,-0.7837,-0.7548,-0.69,-0.5672,-0.502,-0.4149,-0.2842,-0.2478,0.0,0.0,0.0,0.0,-0.2696,-0.2478,-0.2333,-0.2333,-0.2629,-0.2632,0.0,0.0,0.0,-0.2341,-0.2341,-0.2338,-0.2333,-0.2333,-0.2333,-0.2333,-0.2333,0.0,-0.2333,-0.2333,-0.2333,-0.2333,-0.2333,-0.2333,-0.2333,-0.2333,-0.2333,-0.2333,-0.2333,-0.2333,-0.2333,-0.2333,-0.2333,-0.2333,-0.2333,-0.2333,-0.2333,-0.2333,-0.1751,-0.1168,-0.1168,-0.0584,0.0,0.0,0.0,0.0,0.0,0.0,0.0,0.0,0.0,0.0,0.0,0.0,0.0,0.0,0.0,0.0,0.0,0.0,0.0,0.0,0.0,0.0,0.0,0.0,0.0,0.0,0.0,0.0,0.0,0.0,0.0,0.0,0.0,0.0,0.0,0.0,0.0,0.0,-0.0067,-0.0067,-0.0135,-0.0471,-0.0606,-0.074,-0.1346,-0.1818,-0.2223,-0.2228,-0.223,-0.2231,-0.2169,-0.219,-0.2219,0.0,0.0,-0.509,0.0,0.0,0.0,0.0,-0.5596,0.0,-0.6751,-0.6319,-0.5525,-0.4802,-0.3931,-0.3132,-0.2333,-0.2333,-0.2333,-0.2333,-0.2333,-0.2333,-0.2333,-0.2333,-0.2333,-0.2333,-0.2333,-0.2333,-0.2333,0.0,0.0,-0.2333,-0.2333,-0.2333,-0.2333,-0.2333,-0.2333,0.0,0.0,0.0,-0.2333,-0.2333,-0.2333,-0.2333,-0.2333,-0.2333,-0.2333,-0.2333,-0.2333,-0.2333,-0.2333,-0.2333,-0.2333,-0.2333,-0.2333,-0.2333,-0.2333,-0.2333,-0.2333,-0.2333,-0.1751,-0.1168,-0.1168,-0.0584,0.0,0.0,0.0,0.0,0.0,0.0,0.0,0.0,0.0,0.0,0.0,0.0,0.0,0.0,0.0,0.0,0.0,0.0,0.0,0.0,0.0,0.0,0.0,0.0,0.0,0.0,0.0,0.0,0.0,0.0,0.0,0.0,0.0,0.0,0.0,0.0,0.0,0.0,0.0,0.0,0.0,-0.0202,-0.0337,-0.0538,-0.1279,-0.1683,-0.1885,-0.2087,-0.2222,-0.2222,-0.2222,-0.2232,-0.2181,0.0,-0.2333,0.0,0.0,-0.335,0.0,-0.444,-0.335,-0.3204,-0.5667,-0.4944,-0.4222,-0.4222,-0.306,-0.2333,-0.2333,-0.2333,-0.2333,-0.2333,-0.2333,-0.2333,-0.2333,-0.2333,-0.2333,-0.2333,-0.2333,-0.2333,0.0,0.0,0.0,0.0,-0.2333,0.0,0.0,0.0,0.0,0.0,0.0,-0.2333,-0.2333,-0.2333,-0.2333,-0.2333,-0.2333,-0.2333,-0.2333,-0.2333,-0.2333,-0.2333,-0.2333,-0.2333,-0.2333,-0.2333,-0.2333,-0.2333,-0.2333,-0.2333,-0.2333,-0.2333,-0.1751,-0.1168,-0.1168,-0.0584,0.0,0.0,0.0,0.0,0.0,0.0,0.0,0.0,0.0,0.0,0.0,0.0,0.0,0.0,0.0,0.0,0.0,0.0,0.0,0.0,0.0,0.0,0.0,0.0,0.0,0.0,0.0,0.0,0.0,0.0,0.0135,0.0471,0.0,0.0,0.0,0.0,0.0,0.0,0.0,0.0,0.0,0.0,-0.0202,-0.0538,-0.1144,-0.1481,-0.1616,-0.1953,-0.2155,-0.2222,-0.2222,-0.2222,-0.2225,0.0,0.0,0.0,0.0,0.0,0.0,-0.444,-0.335,-0.2405,-0.2696,-0.2623,-0.2551,-0.2551,-0.2405,-0.2333,-0.2333,-0.2333,-0.2333,-0.2333,-0.2333,-0.2333,-0.2333,-0.2333,-0.2333,-0.2333,-0.2333,-0.2333,0.0,0.0,-0.2333,0.0,0.0,0.0,0.0,0.0,0.0,0.0,-0.2333,-0.2333,-0.2333,-0.2333,-0.2333,-0.2333,-0.2333,-0.2333,-0.2333,-0.2333,-0.2333,-0.2333,-0.2333,-0.2333,-0.2333,-0.2333,-0.2333,-0.2333,-0.2333,-0.2333,-0.2333,-0.2333,-0.1751,-0.1168,-0.1168,-0.0584,0.0,0.0,0.0,0.0,0.0,0.0,0.0,0.0,0.0,0.0,0.0,0.0,0.0,0.0,0.0,0.0,0.0,0.0,0.0,0.0,0.0,0.0,0.0,0.0,0.0,0.0,0.0,0.0,0.1882,0.0,0.0606,0.1882,0.0606,0.0,0.0,0.0,0.0,0.0,0.0,0.0,0.0,0.0,-0.0202,-0.0538,-0.0606,-0.101,-0.1616,-0.1616,-0.1885,-0.2222,-0.2222,-0.2222,-0.2223,0.0,0.0,0.0,0.0,0.0,0.0,0.0,-0.2696,-0.2333,-0.2333,-0.2333,-0.2333,-0.2333,-0.2333,-0.2333,-0.2333,-0.2333,-0.2333,-0.2333,-0.2333,-0.2333,-0.2333,-0.2333,-0.2333,-0.2333,-0.2333,-0.2333,0.0,0.0,0.0,0.0,0.0,0.0,0.0,0.0,-0.2333,-0.2333,-0.2333,-0.2333,-0.2333,-0.2333,-0.2333,-0.2333,-0.2333,-0.2333,-0.2333,-0.2333,-0.2333,-0.2333,-0.2333,-0.2333,-0.2333,-0.2333,-0.2333,-0.2333,-0.2333,-0.2333,-0.226,-0.2041,-0.1605,-0.1168,-0.0876,-0.0438,0.0,0.0,0.0,0.0,0.0,0.0,0.0,0.0,0.0,0.0,0.0,0.0,0.0,0.0,0.0,0.0,0.0,0.0,0.0,0.0,0.0,0.0,0.0,0.0,0.0,0.0,0.0,0.0,0.0807,0.0,0.0269,0.0807,0.0269,0.0,0.0,0.0,0.0,0.0,0.0,0.0,0.0,0.0,-0.0067,-0.0202,-0.0404,-0.0808,-0.1346,-0.1548,-0.1818,-0.2222,-0.2222,-0.2222,-0.2222,-0.2333,0.0,-0.2333,0.0,-0.2333,-0.2333,-0.2333,-0.2333,-0.2333,-0.2333,-0.2333,-0.2333,-0.2333,-0.2333,-0.2333,-0.2333,-0.2333,-0.2333,-0.2333,-0.2333,-0.2333,-0.2333,-0.2333,0.0,-0.2333,-0.2333,-0.2333,-0.2333,-0.2333,0.0,0.0,0.0,0.0,0.0,-0.2333,-0.2333,-0.2333,-0.2333,-0.2333,-0.2333,-0.2333,-0.2333,-0.2333,-0.2333,-0.2333,-0.2333,-0.2333,-0.2333,-0.2333,-0.2333,-0.2333,-0.2333,-0.2333,-0.2333,-0.2333,-0.2333,-0.2333,-0.226,-0.2041,-0.1605,-0.1168,-0.0876,-0.0365,0.0,0.0,0.0,0.0,0.0,0.0,0.0,0.0,0.0,0.0,0.0,0.0,0.0,0.0,0.0,0.0,0.0,0.0,0.0,0.0,0.0,0.0,0.0,0.0,0.0,0.0,0.0,0.0,0.0,0.0,0.0,0.0,0.0202,0.0,0.0,0.0,0.0,0.0,0.0,0.0,0.0,0.0,0.0,0.0,-0.0269,-0.0606,-0.0942,-0.1212,-0.1548,-0.1885,-0.202,-0.202,-0.202,-0.2333,-0.2333,-0.2333,-0.2333,-0.2333,-0.2333,-0.2333,-0.2333,-0.2333,-0.2333,-0.2333,-0.2333,-0.2333,-0.2333,-0.2333,-0.2333,-0.2333,-0.2333,-0.2333,-0.2333,-0.2333,0.0,0.0,-0.2333,-0.2333,-0.2333,-0.2333,-0.2333,0.0,0.0,-0.2333,0.0,-0.2333,-0.2333,-0.2333,-0.2333,-0.2333,-0.2333,-0.2333,-0.2333,-0.2333,-0.2333,-0.2333,-0.2333,-0.2333,-0.2333,-0.2333,-0.2333,-0.2333,-0.2333,-0.2333,-0.2333,-0.2333,-0.2333,-0.2333,-0.2333,-0.2333,-0.2333,-0.226,-0.1751,-0.1168,-0.1168,-0.0584,0.0,0.0,0.0,0.0,0.0,0.0,0.0,0.0,0.0,0.0,0.0,0.0,0.0,0.0,0.0,0.0,0.0,0.0,0.0,0.0,0.0,0.0,0.0,0.0,0.0,0.0,0.0,0.0,0.2017,0.074,0.0,0.2084,0.0673,0.0,0.0,0.0,0.0,0.0,0.0,0.0,0.0,0.0,0.0,0.0,0.0,-0.0202,-0.0538,-0.0538,-0.074,-0.1144,-0.1481,-0.1616,-0.1683,-0.2333,-0.2333,-0.2333,-0.2333,-0.2333,-0.2333,-0.2333,-0.2333,-0.2333,-0.2333,-0.2333,-0.2333,-0.2333,-0.2333,-0.2333,0.0,-0.2333,-0.2333,0.0,-0.2333,-0.2333,-0.2333,-0.2333,-0.2333,-0.2333,-0.2333,-0.2333,-0.2333,0.0,0.0,0.0,-0.2333,-0.2333,-0.2333,-0.2333,-0.2333,-0.2333,-0.2333,-0.2333,-0.2333,-0.2333,-0.2333,-0.2333,-0.2333,-0.2333,-0.2333,-0.2333,-0.2333,-0.2333,-0.2333,-0.2333,-0.2333,-0.2333,-0.2333,-0.2333,-0.2333,-0.2333,-0.2187,-0.1678,-0.1386,-0.1095,-0.0511,-0.0219,0.0,0.0,0.0,0.0,0.0,0.0,0.0,0.0,0.0,0.0,0.0,0.0,0.0,0.0,0.0,0.0,0.0,0.0,0.0,0.0,0.0,0.0,0.0,0.0,0.0,0.0,0.0,0.0,0.0,0.0202,0.0,0.0673,0.0202,0.0,0.0,0.0,0.0,0.0,0.0,0.0,0.0,0.0,0.0,0.0,0.0,-0.0202,-0.0471,-0.0471,-0.074,-0.1144,-0.1212,-0.1279,-0.1279,-0.2333,-0.2333,-0.2333,-0.2333,-0.2333,-0.2333,-0.2333,-0.2333,-0.2333,-0.2333,-0.2333,-0.2333,-0.2333,-0.2333,0.0,-0.2333,-0.2333,-0.2333,-0.2333,-0.2333,-0.2333,-0.2333,-0.2333,-0.2333,-0.2333,0.0,0.0,-0.2333,-0.2333,-0.2333,-0.2333,-0.2333,-0.2333,-0.2333,-0.2333,-0.2333,-0.2333,-0.2333,-0.2333,-0.2333,-0.2333,-0.2333,-0.2333,-0.2333,-0.2333,-0.2333,-0.2333,-0.2333,-0.2333,-0.2333,-0.2333,-0.2333,-0.2333,-0.2333,-0.2333,-0.2333,-0.2333,-0.2187,-0.1605,-0.1313,-0.1022,-0.0365,-0.0146,0.0,0.0,0.0,0.0,0.0,0.0,0.0,0.0,0.0,0.0,0.0,0.0,0.0,0.0,0.0,0.0,0.0,0.0,0.0,0.0,0.0,0.0,0.0,0.0,0.0,0.0,0.0,0.0,0.0,0.0,0.0,0.0,0.0,0.0,0.0,0.0,0.0,0.0,0.0,0.0,0.0,0.0,0.0,0.0,0.0,-0.0135,-0.0337,-0.0337,-0.0471,-0.0673,-0.0808,-0.0875,-0.0942,-0.2333,-0.2333,0.0,0.0,-0.2333,0.0,-0.2333,-0.2333,-0.2333,-0.2333,-0.2333,-0.2333,-0.2333,-0.2333,-0.2333,-0.2333,0.0,0.0,0.0,-0.2333,-0.2333,-0.2333,-0.2333,-0.2333,-0.2333,-0.2333,-0.2333,-0.2333,-0.2333,-0.2333,-0.2333,-0.2333,-0.2333,-0.2333,-0.2333,-0.2333,-0.2333,-0.2333,-0.2333,-0.2333,-0.2333,-0.2333,-0.2333,-0.2333,-0.2333,-0.2333,-0.2333,-0.2333,-0.2333,-0.2333,-0.2333,-0.2333,-0.2333,-0.2333,-0.2333,-0.2333,-0.226,-0.2187,-0.1822,-0.1459,-0.1095,-0.0657,-0.0292,0.0,0.0,0.0,0.0,0.0,0.0,0.0,0.0,0.0,0.0,0.0,0.0,0.0,0.0,0.0,0.0,0.0,0.0,0.0,0.0,0.0,0.0,0.0,0.0,0.0,0.0,0.0,0.0,0.0,0.0,0.0,0.0,0.0,0.0,0.0,0.0,0.0,0.0,0.0,0.0,0.0,0.0,0.0,0.0,0.0,0.0,0.0,0.0,0.0,-0.0067,-0.0337,-0.0471,-0.0538,0.0,0.0,-0.2333,-0.2333,-0.2333,-0.2333,-0.2333,-0.2333,-0.2333,-0.2333,-0.2333,-0.2333,-0.2333,-0.2333,-0.2333,-0.2333,-0.2333,-0.2333,-0.2333,-0.2333,-0.2333,-0.2333,-0.2333,-0.2333,-0.2333,-0.2333,-0.2333,-0.2333,-0.2333,-0.2333,-0.2333,-0.2333,-0.2333,-0.2333,-0.2333,-0.2333,-0.2333,-0.2333,-0.2333,-0.2333,-0.2333,-0.2333,-0.2333,-0.2333,-0.2333,-0.2333,-0.2333,-0.2333,-0.2333,-0.2333,-0.2333,-0.2333,-0.2333,-0.2333,-0.2333,-0.2333,-0.2114,-0.1822,-0.1459,-0.1022,-0.0657,-0.0219,-0.0073,0.0,0.0,0.0,0.0,0.0,0.0,0.0,0.0,0.0,0.0,0.0,0.0,0.0,0.0,0.0,0.0,0.0,0.0,0.0,0.0,0.0,0.0,0.0,0.0,0.0,0.0,0.0,0.0,0.0,0.0,0.0,0.0,0.0,0.0,0.0,0.0,0.0,0.0,0.0,0.0,0.0,0.0,0.0,0.0,0.0,0.0,0.0,0.0,0.0,0.0,-0.0067,-0.0135,-0.0202,-0.2333,-0.2333,-0.2333,-0.2333,-0.2333,-0.2333,-0.2333,-0.2333,-0.2333,-0.2333,-0.2333,-0.2333,-0.2333,-0.2333,-0.2333,-0.2333,-0.2333,-0.2333,-0.2333,-0.2333,-0.2333,-0.2333,-0.2333,-0.2333,-0.2333,-0.2333,-0.2333,-0.2333,-0.2333,-0.2333,-0.2333,-0.2333,-0.2333,-0.2333,-0.2333,-0.2333,-0.2333,-0.2333,-0.2333,-0.2333,-0.2333,-0.2333,-0.2333,-0.2333,-0.2333,-0.2333,-0.2333,-0.2324,-0.2313,-0.2313,-0.2305,-0.2221,-0.2221,-0.2221,-0.2296,-0.2309,-0.2177,-0.1895,-0.1386,-0.1022,-0.073,-0.0146,0.0,0.0,0.0,0.0,0.0,0.0,0.0,0.0,0.0,0.0,0.0,0.0,0.0,0.0,0.0,0.0,0.0,0.0,0.0,0.0,0.0,0.0,0.0,0.0,0.0,0.0,0.0,0.0,0.0,0.0,0.0,0.0,0.0,0.0,0.0,0.0,0.0,0.0,0.0,0.0,0.0,0.0,0.0,0.0,0.0,0.0,0.0,0.0,0.0,0.0,0.0,0.0,0.0,0.0,-0.2333,-0.2333,-0.2333,-0.2333,-0.2333,-0.2333,-0.2333,-0.2333,-0.2333,-0.2333,-0.2333,-0.2333,-0.2333,-0.2333,-0.2333,-0.2333,-0.2333,-0.2333,-0.2333,-0.2333,-0.2333,-0.2333,-0.2333,-0.2333,-0.2333,-0.2333,-0.2333,-0.2333,-0.2333,-0.2333,-0.2333,-0.2333,-0.2333,-0.2333,-0.2333,-0.2333,-0.2333,-0.2333,-0.2333,-0.2333,-0.2333,-0.233,-0.2326,-0.2326,-0.2324,-0.232,-0.232,-0.2304,-0.2284,-0.2284,-0.2266,-0.2175,-0.2105,-0.2105,-0.211,-0.2134,-0.2157,-0.2032,-0.1385,-0.1095,-0.0876,-0.0146,0.0,0.0,0.0,0.0,0.0,0.0,0.0,0.0,0.0,0.0,0.0,0.0,0.0,0.0,0.0,0.0,0.0,0.0,0.0,0.0,0.0,0.0,0.0,0.0,0.0,0.0,0.0,0.0,0.0,0.0,0.0,0.0,0.0,0.0,0.0,0.0,0.0,0.0,0.0,0.0,0.0,0.0,0.0,0.0,0.0,0.0,0.0,0.0,0.0,0.0,0.0,0.0,0.0,0.0,-0.2333,-0.2333,-0.2333,-0.2333,-0.2333,-0.2333,-0.2333,-0.2333,-0.2333,-0.2333,-0.2333,-0.2333,-0.2333,-0.2333,-0.2333,-0.2333,-0.2333,-0.2333,-0.2333,-0.2333,-0.2333,-0.2333,-0.2333,-0.2333,-0.2333,-0.2333,-0.2333,-0.2333,-0.2333,-0.2333,-0.2333,-0.2333,-0.2333,-0.2333,-0.2333,-0.2333,-0.2333,-0.2333,-0.2333,-0.2333,-0.2333,-0.2318,-0.2298,-0.2298,-0.2281,-0.2188,-0.2188,-0.2186,-0.2182,-0.2182,-0.2179,-0.2175,-0.1895,-0.1754,-0.1755,-0.1477,-0.1339,-0.1347,-0.1233,-0.073,-0.0146,0.0,0.0,0.0,0.0,0.0,0.0,0.0,0.0,0.0,0.0,0.0,0.0,0.0,0.0,0.0,0.0,0.0,0.0,0.0,0.0,0.0,0.0,0.0,0.0,0.0,0.0,0.0,0.0,0.0,0.0,0.0,0.0,0.0,0.0,0.0,0.0,0.0,0.0,0.0,0.0,0.0,0.0,0.0,0.0,0.0,0.0,0.0,0.0,0.0,0.0,0.0,0.0,0.0,0.0,0.0,-0.2333,-0.2333,-0.2333,-0.2333,-0.2333,-0.2333,-0.2333,-0.2333,-0.2333,-0.2333,-0.2333,-0.2333,-0.2333,-0.2333,-0.2333,-0.2333,-0.2333,-0.2333,-0.2333,-0.2333,-0.2333,-0.2333,-0.2333,-0.2333,-0.2333,-0.2333,-0.2333,-0.2333,-0.2333,-0.2333,-0.2333,-0.2333,-0.2333,-0.2333,-0.2333,-0.2333,-0.2333,-0.2333,-0.2324,-0.231,-0.231,-0.2292,-0.2266,-0.2266,-0.2258,-0.2175,-0.2175,-0.2235,-0.2151,-0.2013,-0.1934,-0.1785,-0.151,-0.1372,-0.1375,-0.1177,-0.1046,-0.0844,-0.0855,-0.0429,0.0,0.0,0.0,0.0,0.0,0.0,0.0,0.0,0.0,0.0,0.0,0.0,0.0,0.0,0.0,0.0,0.0,0.0,0.0,0.0,0.0,0.0,0.0,0.0,0.0,0.0,0.0,0.0,0.0,0.0,0.0,0.0,0.0,0.0,0.0,0.0,0.0,0.0,0.0,0.0,0.0,0.0,0.0,0.0,0.0,0.0,0.0,0.0,0.0,0.0,0.0,0.0,0.0,0.0,0.0,0.0,-0.2331,-0.2333,-0.2333,-0.2333,-0.2333,-0.2333,-0.2333,-0.2333,-0.2333,-0.2333,-0.2333,-0.2333,-0.2333,-0.2333,-0.2333,-0.2333,-0.2333,-0.2333,-0.2333,-0.2333,-0.2333,-0.2333,-0.2333,-0.2333,-0.2333,-0.2333,-0.2333,-0.2333,-0.2333,-0.2333,-0.2333,-0.2333,-0.2333,-0.2333,-0.2333,-0.2329,-0.2323,-0.2323,-0.2307,-0.228,-0.228,-0.2262,-0.2235,-0.2235,-0.223,-0.2224,-0.2224,-0.214,-0.2053,-0.1779,-0.1562,-0.1414,-0.1077,-0.0942,-0.0944,-0.0886,-0.0689,-0.0487,-0.056,-0.0281,0.0,0.0,0.0,0.0,0.0,0.0,0.0,0.0,0.0,0.0,0.0,0.0,0.0,0.0,0.0,0.0,0.0,0.0,0.0,0.0,0.0,0.0,0.0,0.0,0.0,0.0,0.0,0.0,0.0,0.0,0.0,0.0,0.0,0.0,0.0,0.0,0.0,0.0,0.0,0.0,0.0,0.0,0.0,0.0,0.0,0.0,0.0,0.0,0.0,0.0,0.0,0.0,0.0,0.0,0.0,0.0,-0.2328,-0.2333,-0.2333,-0.2333,-0.2333,-0.2333,-0.2333,-0.2333,-0.2333,-0.2333,-0.2333,-0.2333,-0.2333,-0.2333,-0.2333,-0.2333,-0.2333,-0.2333,-0.2333,-0.2333,-0.2333,-0.2333,-0.2333,-0.2333,-0.2333,-0.2333,-0.2333,-0.2333,-0.2333,-0.2333,-0.2333,-0.2333,-0.2333,-0.2333,-0.2333,-0.2318,-0.2294,-0.2294,-0.2277,-0.2178,-0.2178,-0.223,-0.2204,-0.2204,-0.2186,-0.2229,-0.2229,-0.1957,-0.1618,-0.1618,-0.1415,-0.1077,-0.0673,-0.0538,-0.0471,-0.0202,-0.0067,-0.0136,-0.0488,-0.0281,0.0,0.0,0.0,0.0,0.0,0.0,0.0,0.0,0.0,0.0,0.0,0.0,0.0,0.0,0.0,0.0,0.0,0.0,0.0,0.0,0.0,0.0,0.0,0.0,0.0,0.0,0.0,0.0,0.0,0.0,0.0,0.0,0.0,0.0,0.0,0.0,0.0,0.0,0.0,0.0,0.0,0.0,0.0,0.0,0.0,0.0,0.0,0.0,0.0,0.0,0.0,0.0,0.0,0.0,0.0,0.0,-0.2305,-0.2321,-0.2333,-0.2333,-0.2333,-0.2333,-0.2333,-0.2333,-0.2333,-0.2333,-0.2333,-0.2333,-0.2333,-0.2333,-0.2333,-0.2333,-0.2333,-0.2333,-0.2333,-0.2333,-0.2333,-0.2333,-0.2333,-0.2333,-0.2333,-0.2333,-0.2333,-0.2333,-0.2333,-0.2333,-0.2333,-0.2333,-0.2323,-0.2307,-0.2307,-0.229,-0.2262,-0.2262,-0.2245,-0.2217,-0.2217,-0.2199,-0.2172,-0.2172,-0.203,-0.1818,-0.1818,-0.1616,-0.1279,-0.101,-0.0808,-0.0673,-0.0337,-0.0202,-0.0135,-0.0067,0.0,0.0,-0.0205,-0.0137,0.0,0.0,0.0,0.0,0.0,0.0,0.0,0.0,0.0,0.0,0.0,0.0,0.0,0.0,0.0,0.0,0.0,0.0,0.0,0.0,0.0,0.0,0.0,0.0,0.0,0.0,0.0,0.0,0.0,0.0,0.0,0.0,0.0,0.0,0.0,0.0,0.0,0.0,0.0,0.0,0.0,0.0,0.0,0.0,0.0,0.0,0.0,0.0,0.0,0.0,0.0,0.0,0.0,0.0,0.0,0.0,-0.2287,-0.2306,-0.2322,-0.2331,-0.2333,-0.2333,-0.2333,-0.2333,-0.2333,-0.2333,-0.2333,-0.2333,-0.2333,-0.2333,-0.2333,-0.2333,-0.2333,-0.2333,-0.2333,-0.2333,-0.2333,-0.2333,-0.2333,-0.2333,-0.2333,-0.2333,-0.2333,-0.2333,-0.2333,-0.2333,-0.2333,-0.2324,-0.2309,-0.229,-0.2281,-0.226,-0.2231,-0.2231,-0.2214,-0.2186,-0.2186,-0.2173,-0.2155,-0.2087,-0.1818,-0.1616,-0.1481,-0.1212,-0.0875,-0.0606,-0.0404,-0.0269,-0.0067,0.0,0.0,0.0,0.0,0.0,0.0,0.0,0.0,0.0,0.0,0.0,0.0,0.0,0.0,0.0,0.0,0.0,0.0,0.0,0.0,0.0,0.0,0.0,0.0,0.0,0.0,0.0,0.0,0.0,0.0,0.0,0.0,0.0,0.0,0.0,0.0,0.0,0.0,0.0,0.0,0.0,0.0,0.0,0.0,0.0,0.0,0.0,0.0,0.0,0.0,0.0,0.0,0.0,0.0,0.0,0.0,0.0,0.0,0.0,0.0,0.0,0.0,0.0,-0.2278,-0.229,-0.23,-0.2328,-0.2333,-0.2333,-0.2333,-0.2333,-0.2333,-0.2333,-0.2333,-0.2333,-0.2333,-0.2333,-0.2333,-0.2333,-0.2333,-0.2333,-0.2333,-0.2333,-0.2333,-0.2333,-0.2333,-0.2333,-0.2333,-0.2333,-0.2333,-0.2333,-0.2333,-0.2333,-0.2332,-0.2304,-0.229,-0.2289,-0.2259,-0.2228,-0.22,-0.22,-0.2182,-0.2222,-0.2222,-0.2222,-0.2155,-0.175,-0.1616,-0.1548,-0.1212,-0.0808,-0.0471,-0.0471,-0.0269,0.0,0.0,0.0,0.0,0.0,0.0,0.0,0.0,0.0,0.0,0.0,0.0,0.0,0.0,0.0,0.0,0.0,0.0,0.0,0.0,0.0,0.0,0.0,0.0,0.0,0.0,0.0,0.0,0.0,0.0,0.0,0.0,0.0,0.0,0.0,0.0,0.0,0.0,0.0,0.0,0.0,0.0,0.0,0.0,0.0,0.0,0.0,0.0,0.0,0.0,0.0,0.0,0.0,0.0,0.0,0.0,0.0,0.0,0.0,0.0,0.0,0.0,0.0,0.0,0.0,-0.2223,-0.2262,-0.2294,-0.2302,-0.232,-0.2333,-0.2333,-0.2333,-0.2333,-0.2333,-0.2333,-0.2333,-0.2333,-0.2333,-0.2333,-0.2333,-0.2333,-0.2333,-0.2333,-0.2333,-0.2333,-0.2333,-0.2333,-0.2333,-0.2333,-0.2333,-0.2333,-0.2333,-0.2313,-0.2303,-0.2303,-0.2273,-0.2247,-0.2227,-0.2217,-0.2196,-0.2168,-0.2168,-0.2028,-0.175,-0.175,-0.1616,-0.1414,-0.1279,-0.1077,-0.0808,-0.074,-0.0471,-0.0135,-0.0135,-0.0067,0.0,0.0,0.0,0.0,0.0,0.0,0.0,0.0,0.0,0.0,0.0,0.0,0.0,0.0,0.0,0.0,0.0,0.0,0.0,0.0,0.0,0.0,0.0,0.0,0.0,0.0,0.0,0.0,0.0,0.0,0.0,0.0,0.0,0.0,0.0,0.0,0.0,0.0,0.0,0.0,0.0,0.0,0.0,0.0,0.0,0.0,0.0,0.0,0.0,0.0,0.0,0.0,0.0,0.0,0.0,0.0,0.0,0.0,0.0,0.0,0.0,0.0,0.0,0.0,0.0,-0.2198,-0.223,-0.2259,-0.2271,-0.2296,-0.2316,-0.2316,-0.2326,-0.2333,-0.2333,-0.2333,-0.2333,-0.2333,-0.2333,-0.2333,-0.2333,-0.2333,-0.2333,-0.2333,-0.2333,-0.2328,-0.2317,-0.2316,-0.2321,-0.2333,-0.2322,-0.2316,-0.2316,-0.2287,-0.2273,-0.2273,-0.2241,-0.2217,-0.22,-0.2187,-0.2172,-0.2222,-0.202,-0.1818,-0.1616,-0.1481,-0.1279,-0.1077,-0.0942,-0.074,-0.0471,-0.0337,-0.0202,0.0,0.0,0.0,0.0,0.0,0.0,0.0,0.0,0.0,0.0,0.0,0.0,0.0,0.0,0.0,0.0,0.0,0.0,0.0,0.0,0.0,0.0,0.0,0.0,0.0,0.0,0.0,0.0,0.0,0.0,0.0,0.0,0.0,0.0,0.0,0.0,0.0,0.0,0.0,0.0,0.0,0.0,0.0,0.0,0.0,0.0,0.0,0.0,0.0,0.0,0.0,0.0,0.0,0.0,0.0,0.0,0.0,0.0,0.0,0.0,0.0,0.0,0.0,0.0,0.0,0.0,0.0,0.0,-0.2191,-0.2198,-0.2208,-0.2167,-0.2266,-0.2287,-0.2287,-0.2309,-0.2325,-0.2325,-0.2325,-0.2325,-0.2325,-0.2325,-0.2325,-0.2325,-0.2325,-0.2325,-0.2325,-0.2325,-0.2313,-0.2288,-0.2287,-0.2299,-0.2324,-0.23,-0.2287,-0.2287,-0.2256,-0.2171,-0.2171,-0.2141,-0.2127,-0.2126,-0.2099,-0.2087,-0.2087,-0.1683,-0.1548,-0.1481,-0.1144,-0.101,-0.0942,-0.0606,-0.0471,-0.0404,-0.0135,0.0,0.0,0.0,0.0,0.0,0.0,0.0,0.0,0.0,0.0,0.0,0.0,0.0,0.0,0.0,0.0,0.0,0.0,0.0,0.0,0.0,0.0,0.0,0.0,0.0,0.0,0.0,0.0,0.0,0.0,0.0,0.0,0.0,0.0,0.0,0.0,0.0,0.0,0.0,0.0,0.0,0.0,0.0,0.0,0.0,0.0,0.0,0.0,0.0,0.0,0.0,0.0,0.0,0.0,0.0,0.0,0.0,0.0,0.0,0.0,0.0,0.0,0.0,0.0,0.0,0.0,0.0,0.0,0.0,-0.223,-0.2184,-0.2202,-0.2208,-0.2235,-0.2255,-0.2255,-0.219,-0.2194,-0.2194,-0.2194,-0.2194,-0.2194,-0.2194,-0.2194,-0.2194,-0.2194,-0.2194,-0.2194,-0.2194,-0.2191,-0.2256,-0.2255,-0.2188,-0.2194,-0.2188,-0.2255,-0.2255,-0.2225,-0.221,-0.2209,-0.1906,-0.1759,-0.169,-0.1483,-0.1346,-0.1346,-0.1212,-0.101,-0.074,-0.0673,-0.0471,-0.0202,-0.0135,-0.0135,-0.0067,0.0,0.0,0.0,0.0,0.0,0.0,0.0,0.0,0.0,0.0,0.0,0.0,0.0,0.0,0.0,0.0,0.0,0.0,0.0,0.0,0.0,0.0,0.0,0.0,0.0,0.0,0.0,0.0,0.0,0.0,0.0,0.0,0.0,0.0,0.0,0.0,0.0,0.0,0.0,0.0,0.0,0.0,0.0,0.0,0.0,0.0,0.0,0.0,0.0,0.0,0.0,0.0,0.0,0.0,0.0,0.0,0.0,0.0,0.0,0.0,0.0,0.0,0.0,0.0,0.0,0.0,0.0,0.0,0.0,0.0,-0.2222,-0.2168,-0.2178,-0.2178,-0.2204,-0.2154,-0.2015,-0.2096,-0.2175,-0.1965,-0.2105,-0.2175,-0.2175,-0.2175,-0.2175,-0.2175,-0.2175,-0.2175,-0.2175,-0.2175,-0.2169,-0.2224,-0.2015,-0.2009,-0.2202,-0.1858,-0.1864,-0.2223,-0.2193,-0.211,-0.1906,-0.1689,-0.1548,-0.1346,-0.1212,-0.1077,-0.1077,-0.0875,-0.0673,-0.0471,-0.0337,-0.0135,0.0,0.0,0.0,0.0,0.0,0.0,0.0,0.0,0.0,0.0,0.0,0.0,0.0,0.0,0.0,0.0,0.0,0.0,0.0,0.0,0.0,0.0,0.0,0.0,0.0,0.0,0.0,0.0,0.0,0.0,0.0,0.0,0.0,0.0,0.0,0.0,0.0,0.0,0.0,0.0,0.0,0.0,0.0,0.0,0.0,0.0,0.0,0.0,0.0,0.0,0.0,0.0,0.0,0.0,0.0,0.0,0.0,0.0,0.0,0.0,0.0,0.0,0.0,0.0,0.0,0.0,0.0,0.0,0.0,0.0,0.0,0.0,0.0,0.0,-0.202,-0.202,-0.202,-0.202,-0.2039,-0.1918,-0.1644,-0.1868,-0.1881,-0.1603,-0.1812,-0.2021,-0.2021,-0.2021,-0.2021,-0.2021,-0.2021,-0.2021,-0.2021,-0.209,-0.2079,-0.1988,-0.1781,-0.1771,-0.2021,-0.1414,-0.1422,-0.2124,-0.2032,-0.1818,-0.1481,-0.1414,-0.1279,-0.101,-0.0942,-0.0942,-0.0875,-0.0538,-0.0404,-0.0404,-0.0135,0.0,0.0,0.0,0.0,0.0,0.0,0.0,0.0,0.0,0.0,0.0,0.0,0.0,0.0,0.0,0.0,0.0,0.0,0.0,0.0,0.0,0.0,0.0,0.0,0.0,0.0,0.0,0.0,0.0,0.0,0.0,0.0,0.0,0.0,0.0,0.0,0.0,0.0,0.0,0.0,0.0,0.0,0.0,0.0,0.0,0.0,0.0,0.0,0.0,0.0,0.0,0.0,0.0,0.0,0.0,0.0,0.0,0.0,0.0,0.0,0.0,0.0,0.0,0.0,0.0,0.0,0.0,0.0,0.0,0.0,0.0,0.0,0.0,0.0,0.0,-0.1279,-0.1279,-0.1279,-0.1279,-0.1281,-0.1215,-0.1215,-0.1217,-0.1219,-0.1219,-0.1219,-0.1219,-0.1219,-0.1219,-0.1219,-0.1219,-0.1219,-0.1219,-0.1219,-0.1489,-0.1556,-0.1283,-0.1485,-0.1484,-0.1279,-0.1144,-0.128,-0.1688,-0.1415,-0.1212,-0.1144,-0.0808,-0.0606,-0.0538,-0.0269,-0.0135,-0.0135,-0.0067,-0.0067,-0.0067,0.0,0.0,0.0,0.0,0.0,0.0,0.0,0.0,0.0,0.0,0.0,0.0,0.0,0.0,0.0,0.0,0.0,0.0,0.0,0.0,0.0,0.0,0.0,0.0,0.0,0.0,0.0,0.0,0.0,0.0,0.0,0.0,0.0,0.0,0.0,0.0,0.0,0.0,0.0,0.0,0.0,0.0,0.0,0.0,0.0,0.0,0.0,0.0,0.0,0.0,0.0,0.0,0.0,0.0,0.0,0.0,0.0,0.0,0.0,0.0,0.0,0.0,0.0,0.0,0.0,0.0,0.0,0.0,0.0,0.0,0.0,0.0,0.0,0.0,0.0,0.0,-0.1077,-0.1077,-0.1077,-0.1077,-0.1077,-0.101,-0.0808,-0.0942,-0.101,-0.0808,-0.0942,-0.1077,-0.1077,-0.1077,-0.1077,-0.1077,-0.1077,-0.1077,-0.1077,-0.1212,-0.1279,-0.1077,-0.101,-0.101,-0.1077,-0.0673,-0.0673,-0.101,-0.1077,-0.101,-0.074,-0.0606,-0.0404,-0.0202,-0.0067,0.0,0.0,0.0,0.0,0.0,0.0,0.0,0.0,0.0,0.0,0.0,0.0,0.0,0.0,0.0,0.0,0.0,0.0,0.0,0.0,0.0,0.0,0.0,0.0,0.0,0.0,0.0,0.0,0.0,0.0,0.0,0.0,0.0,0.0,0.0,0.0,0.0,0.0,0.0,0.0,0.0,0.0,0.0,0.0,0.0,0.0,0.0,0.0,0.0,0.0,0.0,0.0,0.0,0.0,0.0,0.0,0.0,0.0,0.0,0.0,0.0,0.0,0.0,0.0,0.0,0.0,0.0,0.0,0.0,0.0,0.0,0.0,0.0,0.0,0.0,0.0,0.0,0.0,0.0,0.0,0.0]}]]